ftp/pub/palmer/observations_modified/2019/July/original_files/AR190721_BASE.txt
Download
Sample DateTime Unit Id WS Avg 2min WD Avg 2min WGS 10min WGD 10min Air Temp Rel Humidity Dew Point Pyranometer Quantum Air Pressure Snow Level Rainfall PW Current Visibility CBase 1 CBase 2 CBase 3 Vert Vis
2019/07/21 00:00:00 BASE 4.86 168 6.53 193 -4.7 100 -4.7 0 0 981.5 NA 0.0000 BR 7000 390 0 0 0
2019/07/21 00:01:00 BASE 5.05 167 6.28 186 -4.7 100 -4.7 0 0 981.5 NA 0.0000 BR 8000 390 0 0 0
2019/07/21 00:02:00 BASE 5.35 166 6.48 155 -4.7 100 -4.7 0 0 981.5 NA 0.0000 BR 9000 390 0 0 0
2019/07/21 00:03:00 BASE 5.99 172 6.74 174 -4.7 100 -4.7 0 0 981.5 NA 0.0000 BR 9000 390 0 0 0
2019/07/21 00:04:00 BASE 6.36 177 7.36 175 -4.7 100 -4.7 0 0 981.5 NA 0.0000 BR 9999 430 0 0 0
2019/07/21 00:05:00 BASE 6.61 178 7.36 175 -4.7 100 -4.7 0 0 981.4 NA 0.0000 BR 9999 430 0 0 0
2019/07/21 00:06:00 BASE 6.46 190 7.36 175 -4.7 100 -4.7 0 0 981.5 NA 0.0000 BR 9000 430 0 0 0
2019/07/21 00:07:00 BASE 6.27 206 7.36 175 -4.7 100 -4.7 0 0 981.4 NA 0.0000 BR 8000 430 0 0 0
2019/07/21 00:08:00 BASE 6.23 216 7.36 175 -4.6 100 -4.6 0 0 981.4 NA 0.0000 BR 8000 430 0 0 0
2019/07/21 00:09:00 BASE 6.67 218 8.23 218 -4.6 100 -4.6 0 0 981.4 NA 0.0000 BR 9999 590 0 0 0
2019/07/21 00:10:00 BASE 6.34 211 8.23 218 -4.6 100 -4.6 0 0 981.4 NA 0.0000 BR 9999 460 0 0 0
2019/07/21 00:11:00 BASE 5.41 213 8.23 218 -4.7 100 -4.7 0 0 981.4 NA 0.0000 BR 9999 390 0 0 0
2019/07/21 00:12:00 BASE 5.67 216 8.23 218 -4.7 100 -4.7 0 0 981.4 NA 0.0000 9999 430 0 0 0
2019/07/21 00:13:00 BASE 6.00 219 8.23 218 -4.8 100 -4.8 0 0 981.4 NA 0.0000 9999 390 0 0 0
2019/07/21 00:14:00 BASE 6.12 213 8.23 218 -4.8 100 -4.8 0 0 981.4 NA 0.0000 9999 460 0 0 0
2019/07/21 00:15:00 BASE 6.31 206 8.23 218 -4.8 100 -4.8 0 0 981.4 NA 0.0000 9999 490 0 0 0
2019/07/21 00:16:00 BASE 6.40 211 8.23 218 -4.8 100 -4.8 0 0 981.4 NA 0.0000 9999 560 0 0 0
2019/07/21 00:17:00 BASE 6.60 217 8.23 218 -4.8 100 -4.8 0 0 981.4 NA 0.0000 9999 620 0 0 0
2019/07/21 00:18:00 BASE 6.58 217 8.23 218 -4.8 100 -4.8 0 0 981.4 NA 0.0000 9999 560 0 0 0
2019/07/21 00:19:00 BASE 7.14 207 8.28 209 -4.8 100 -4.8 0 0 981.4 NA 0.0000 9999 660 0 0 0
2019/07/21 00:20:00 BASE 7.28 206 8.28 209 -4.8 100 -4.8 0 0 981.4 NA 0.0000 9999 560 0 0 0
2019/07/21 00:21:00 BASE 6.36 208 8.28 209 -4.8 100 -4.8 0 0 981.4 NA 0.0000 9999 490 0 0 0
2019/07/21 00:22:00 BASE 6.28 205 8.28 209 -4.8 100 -4.8 0 0 981.4 NA 0.0000 9999 690 0 0 0
2019/07/21 00:23:00 BASE 6.67 206 8.28 209 -4.8 100 -4.8 0 0 981.4 NA 0.0000 9999 560 0 0 0
2019/07/21 00:24:00 BASE 7.33 211 8.75 217 -4.9 100 -4.9 0 0 981.4 NA 0.0000 9999 750 0 0 0
2019/07/21 00:25:00 BASE 7.62 211 8.75 217 -4.9 100 -4.9 0 0 981.4 NA 0.0000 9999 950 0 0 0
2019/07/21 00:26:00 BASE 6.51 202 8.75 217 -4.9 100 -4.9 0 0 981.4 NA 0.0000 9999 980 0 0 0
2019/07/21 00:27:00 BASE 5.02 189 8.75 217 -4.9 100 -4.9 0 0 981.4 NA 0.0000 9999 1020 0 0 0
2019/07/21 00:28:00 BASE 3.58 180 8.75 217 -4.9 100 -4.9 0 0 981.4 NA 0.0000 9999 590 0 0 0
2019/07/21 00:29:00 BASE 2.86 178 8.75 217 -4.9 100 -4.9 0 0 981.4 NA 0.0000 9999 750 0 0 0
2019/07/21 00:30:00 BASE 2.97 174 8.75 217 -4.9 100 -4.9 0 0 981.4 NA 0.0000 9999 750 0 0 0
2019/07/21 00:31:00 BASE 3.32 172 8.75 217 -4.9 100 -4.9 0 0 981.3 NA 0.0000 9999 690 0 0 0
2019/07/21 00:32:00 BASE 3.74 167 8.75 217 -4.9 100 -4.9 0 0 981.2 NA 0.0000 9999 720 0 0 0
2019/07/21 00:33:00 BASE 5.30 166 8.75 217 -4.9 100 -4.9 0 0 981.2 NA 0.0000 9999 850 0 0 0
2019/07/21 00:34:00 BASE 5.64 169 7.97 179 -4.9 100 -4.9 0 0 981.2 NA 0.0000 9999 790 0 0 0
2019/07/21 00:35:00 BASE 4.00 165 7.97 179 -4.9 100 -4.9 0 0 981.2 NA 0.0000 9999 430 0 0 0
2019/07/21 00:36:00 BASE 3.04 163 7.97 179 -4.9 100 -4.9 0 0 981.2 NA 0.0000 9999 820 0 0 0
2019/07/21 00:37:00 BASE 3.04 169 7.97 179 -4.9 100 -4.9 0 0 981.2 NA 0.0000 9999 850 0 0 0
2019/07/21 00:38:00 BASE 3.57 170 7.97 179 -4.9 100 -4.9 0 0 981.2 NA 0.0000 9999 820 0 0 0
2019/07/21 00:39:00 BASE 4.14 162 7.97 179 -4.9 100 -4.9 0 0 981.2 NA 0.0000 9999 850 0 0 0
2019/07/21 00:40:00 BASE 4.95 156 7.97 179 -4.9 100 -4.9 0 0 981.2 NA 0.0000 9999 750 0 0 0
2019/07/21 00:41:00 BASE 5.35 154 7.97 179 -4.9 100 -4.9 0 0 981.2 NA 0.0000 9999 620 0 0 0
2019/07/21 00:42:00 BASE 5.25 149 7.97 179 -4.9 100 -4.9 0 0 981.2 NA 0.0000 9999 560 0 0 0
2019/07/21 00:43:00 BASE 5.64 147 7.25 149 -4.9 100 -4.9 0 0 981.2 NA 0.0000 9999 590 0 0 0
2019/07/21 00:44:00 BASE 5.30 146 7.25 149 -4.9 100 -4.9 0 0 981.2 NA 0.0000 9999 620 0 0 0
2019/07/21 00:45:00 BASE 4.73 137 7.25 149 -4.9 100 -4.9 0 0 981.2 NA 0.0000 9999 490 0 0 0
2019/07/21 00:46:00 BASE 5.44 137 7.25 149 -4.9 100 -4.9 0 0 981.2 NA 0.0000 9999 490 0 0 0
2019/07/21 00:47:00 BASE 5.28 148 7.25 149 -4.9 100 -4.9 0 0 981.2 NA 0.0000 9999 460 0 0 0
2019/07/21 00:48:00 BASE 4.12 154 7.25 149 -4.9 100 -4.9 0 0 981.2 NA 0.0000 9000 430 0 0 0
2019/07/21 00:49:00 BASE 3.47 159 7.25 149 -4.8 100 -4.8 0 0 981.2 NA 0.0000 9999 460 0 0 0
2019/07/21 00:50:00 BASE 3.54 155 7.25 149 -4.8 100 -4.8 0 0 981.2 NA 0.0000 8000 430 0 0 0
2019/07/21 00:51:00 BASE 3.77 150 7.25 149 -4.8 100 -4.8 0 0 981.2 NA 0.0000 6000 390 0 0 0
2019/07/21 00:52:00 BASE 3.59 153 7.25 149 -4.8 100 -4.8 0 0 981.2 NA 0.0000 BR 4900 360 0 0 0
2019/07/21 00:53:00 BASE 3.36 156 6.89 153 -4.8 100 -4.8 0 0 981.2 NA 0.0000 BR 4900 430 0 0 0
2019/07/21 00:54:00 BASE 3.61 159 6.89 153 -4.8 100 -4.8 0 0 981.2 NA 0.0000 BR 4800 390 0 0 0
2019/07/21 00:55:00 BASE 3.73 159 6.89 153 -4.8 100 -4.8 0 0 981.2 NA 0.0000 BR 4800 390 0 0 0
2019/07/21 00:56:00 BASE 3.66 163 4.99 154 -4.8 100 -4.8 0 0 981.2 NA 0.0000 BR 6000 460 0 0 0
2019/07/21 00:57:00 BASE 3.88 171 4.58 145 -4.8 100 -4.8 0 0 981.2 NA 0.0000 BR 7000 460 0 0 0
2019/07/21 00:58:00 BASE 4.34 175 4.99 176 -4.8 100 -4.8 0 0 981.2 NA 0.0000 BR 8000 460 0 0 0
2019/07/21 00:59:00 BASE 4.29 169 4.99 176 -4.8 100 -4.8 0 0 981.2 NA 0.0000 BR 8000 520 0 0 0
2019/07/21 01:00:00 BASE 3.37 154 4.99 176 -4.8 100 -4.8 0 0 981.2 NA 0.0000 BR 9000 620 0 0 0
2019/07/21 01:01:00 BASE 2.97 150 4.99 176 -4.8 100 -4.8 0 0 981.2 NA 0.0000 BR 9999 590 0 0 0
2019/07/21 01:02:00 BASE 4.09 167 5.76 191 -4.8 100 -4.8 0 0 981.2 NA 0.0000 BR 9999 620 0 0 0
2019/07/21 01:03:00 BASE 5.14 179 5.76 192 -4.8 100 -4.8 0 0 981.2 NA 0.0000 BR 9999 460 0 0 0
2019/07/21 01:04:00 BASE 5.38 188 6.48 195 -4.8 100 -4.8 0 0 981.3 NA 0.0000 BR 9999 590 0 0 0
2019/07/21 01:05:00 BASE 5.08 200 6.48 195 -4.7 100 -4.7 0 0 981.4 NA 0.0000 BR 9999 460 0 0 0
2019/07/21 01:06:00 BASE 4.79 191 6.48 195 -4.7 100 -4.7 0 0 981.4 NA 0.0000 9999 460 0 0 0
2019/07/21 01:07:00 BASE 5.14 177 6.48 195 -4.7 100 -4.7 0 0 981.4 NA 0.0000 9999 430 0 0 0
2019/07/21 01:08:00 BASE 5.53 173 6.48 195 -4.7 100 -4.7 0 0 981.3 NA 0.0000 9999 430 0 0 0
2019/07/21 01:09:00 BASE 5.45 172 6.48 195 -4.7 100 -4.7 0 0 981.3 NA 0.0000 9000 490 0 0 0
2019/07/21 01:10:00 BASE 5.04 169 6.48 195 -4.7 100 -4.7 0 0 981.4 NA 0.0000 9000 560 0 0 0
2019/07/21 01:11:00 BASE 4.63 158 6.48 195 -4.8 100 -4.8 0 0 981.4 NA 0.0000 9999 490 0 0 0
2019/07/21 01:12:00 BASE 4.04 152 6.48 195 -4.8 100 -4.8 0 0 981.4 NA 0.0000 9999 460 0 0 0
2019/07/21 01:13:00 BASE 3.42 148 6.48 195 -4.8 100 -4.8 0 0 981.4 NA 0.0000 9999 430 0 0 0
2019/07/21 01:14:00 BASE 3.18 151 6.28 163 -4.8 100 -4.8 0 0 981.4 NA 0.0000 9999 620 0 0 0
2019/07/21 01:15:00 BASE 4.02 164 6.28 163 -4.8 100 -4.8 0 0 981.4 NA 0.0000 9999 520 0 0 0
2019/07/21 01:16:00 BASE 5.44 171 7.82 180 -4.8 100 -4.8 0 0 981.4 NA 0.0000 9999 430 0 0 0
2019/07/21 01:17:01 BASE 6.13 174 7.82 180 -4.7 100 -4.7 0 0 981.4 NA 0.0000 9000 430 0 0 0
2019/07/21 01:18:00 BASE 5.35 177 7.82 180 -4.7 100 -4.7 0 0 981.4 NA 0.0000 7000 430 0 0 0
2019/07/21 01:19:00 BASE 4.38 176 7.82 180 -4.7 100 -4.7 0 0 981.4 NA 0.0000 BR 6000 460 0 0 0
2019/07/21 01:20:00 BASE 4.40 172 7.82 180 -4.6 100 -4.6 0 0 981.4 NA 0.0000 BR 8000 460 0 0 0
2019/07/21 01:21:00 BASE 4.67 169 7.82 180 -4.6 100 -4.6 0 0 981.4 NA 0.0000 BR 8000 430 0 0 0
2019/07/21 01:22:00 BASE 4.55 172 7.82 180 -4.6 100 -4.6 0 0 981.4 NA 0.0000 BR 8000 390 0 0 0
2019/07/21 01:23:00 BASE 4.50 165 7.82 180 -4.6 100 -4.6 0 0 981.4 NA 0.0000 BR 7000 390 0 0 0
2019/07/21 01:24:00 BASE 4.87 153 7.82 180 -4.6 100 -4.6 0 0 981.4 NA 0.0000 BR 6000 390 0 0 0
2019/07/21 01:25:00 BASE 4.98 150 7.82 180 -4.6 100 -4.6 0 0 981.4 NA 0.0000 BR 6000 390 0 0 0
2019/07/21 01:26:00 BASE 5.17 150 7.41 167 -4.6 100 -4.6 0 0 981.4 NA 0.0000 BR 5000 390 0 0 0
2019/07/21 01:27:00 BASE 5.49 154 5.97 151 -4.7 100 -4.7 0 0 981.4 NA 0.0000 BR 3700 360 0 0 0
2019/07/21 01:28:00 BASE 5.01 158 5.97 151 -4.7 100 -4.7 0 0 981.4 NA 0.0000 BR 2800 360 0 0 0
2019/07/21 01:29:00 BASE 4.27 158 5.97 151 -4.7 100 -4.7 0 0 981.4 NA 0.0000 -SN BR 2700 390 0 0 0
2019/07/21 01:30:00 BASE 4.13 159 5.97 151 -4.7 100 -4.7 0 0 981.4 NA 0.0000 -SN BR 2800 330 0 0 0
2019/07/21 01:31:00 BASE 3.83 160 5.97 151 -4.7 100 -4.7 0 0 981.4 NA 0.0000 -SN BR 2500 360 0 0 0
2019/07/21 01:32:00 BASE 3.68 157 5.97 151 -4.7 100 -4.7 0 0 981.4 NA 0.0000 -SN BR 2500 360 0 0 0
2019/07/21 01:33:00 BASE 4.00 158 5.97 151 -4.7 100 -4.7 0 0 981.4 NA 0.0000 -SN BR 2700 390 0 0 0
2019/07/21 01:34:00 BASE 4.23 160 5.97 151 -4.7 100 -4.7 0 0 981.4 NA 0.0000 -SN BR 3100 390 0 0 0
2019/07/21 01:35:00 BASE 4.33 166 5.97 151 -4.7 100 -4.7 0 0 981.4 NA 0.0000 -SN BR 3300 390 0 0 0
2019/07/21 01:36:00 BASE 4.07 174 5.97 151 -4.7 100 -4.7 0 0 981.4 NA 0.0000 -SN BR 3300 390 0 0 0
2019/07/21 01:37:00 BASE 3.90 182 5.35 167 -4.7 100 -4.7 0 0 981.4 NA 0.0000 -SN BR 3500 390 0 0 0
2019/07/21 01:38:00 BASE 3.98 188 5.20 164 -4.7 100 -4.7 0 0 981.4 NA 0.0000 -SN BR 3000 330 0 0 0
2019/07/21 01:39:00 BASE 3.75 189 5.20 164 -4.7 100 -4.7 0 0 981.4 NA 0.0000 -SN BR 2600 360 0 0 0
2019/07/21 01:40:00 BASE 4.22 188 5.20 188 -4.6 100 -4.6 0 0 981.4 NA 0.0000 -SN BR 2500 360 0 0 0
2019/07/21 01:41:00 BASE 4.68 180 5.25 174 -4.6 100 -4.6 0 0 981.4 NA 0.0000 -SN BR 2400 330 0 0 0
2019/07/21 01:42:00 BASE 4.18 174 5.25 174 -4.6 100 -4.6 0 0 981.4 NA 0.0000 -SN BR 2400 390 0 0 0
2019/07/21 01:43:00 BASE 3.54 183 5.25 174 -4.6 100 -4.6 0 0 981.4 NA 0.0000 -SN BR 2500 460 0 0 0
2019/07/21 01:44:00 BASE 3.56 201 5.25 174 -4.6 100 -4.6 0 0 981.4 NA 0.0000 -SN BR 2500 750 0 0 0
2019/07/21 01:45:00 BASE 4.42 219 5.25 174 -4.6 100 -4.6 0 0 981.4 NA 0.0000 -SN BR 2900 490 0 0 0
2019/07/21 01:46:00 BASE 5.30 220 6.53 203 -4.7 100 -4.7 0 0 981.4 NA 0.0000 -SN BR 4200 620 0 0 0
2019/07/21 01:47:00 BASE 5.75 209 7.51 195 -4.7 100 -4.7 0 0 981.3 NA 0.0000 -SN BR 4900 820 0 0 0
2019/07/21 01:48:00 BASE 6.12 198 7.51 195 -4.7 100 -4.7 0 0 981.3 NA 0.0000 -SN BR 5000 590 0 0 0
2019/07/21 01:49:00 BASE 6.13 192 7.51 195 -4.8 100 -4.8 0 0 981.3 NA 0.0000 -SN BR 6000 490 0 0 0
2019/07/21 01:50:00 BASE 5.63 195 7.51 195 -4.8 100 -4.8 0 0 981.3 NA 0.0000 -SN BR 7000 720 0 0 0
2019/07/21 01:51:00 BASE 5.86 212 7.51 195 -4.8 100 -4.8 0 0 981.3 NA 0.0000 BR 8000 890 0 0 0
2019/07/21 01:52:00 BASE 6.29 225 7.51 195 -4.8 100 -4.8 0 0 981.3 NA 0.0000 BR 9000 790 0 0 0
2019/07/21 01:53:00 BASE 6.47 225 7.51 195 -4.7 100 -4.7 0 0 981.3 NA 0.0000 BR 9999 850 0 0 0
2019/07/21 01:54:00 BASE 6.19 223 7.51 195 -4.7 100 -4.7 0 0 981.4 NA 0.0000 BR 9999 720 0 0 0
2019/07/21 01:55:00 BASE 5.55 222 7.51 195 -4.7 100 -4.7 0 0 981.3 NA 0.0000 BR 9999 520 0 0 0
2019/07/21 01:56:00 BASE 5.09 220 7.51 195 -4.7 100 -4.7 0 0 981.3 NA 0.0000 BR 9999 820 0 0 0
2019/07/21 01:57:00 BASE 4.53 218 7.25 229 -4.7 100 -4.7 0 0 981.3 NA 0.0000 BR 9999 790 0 0 0
2019/07/21 01:58:00 BASE 4.61 210 7.25 229 -4.7 100 -4.7 0 0 981.3 NA 0.0000 BR 9999 720 0 0 0
2019/07/21 01:59:00 BASE 4.54 195 7.25 229 -4.7 100 -4.7 0 0 981.4 NA 0.0000 9999 660 0 0 0
2019/07/21 02:00:00 BASE 4.09 183 7.25 229 -4.7 100 -4.7 0 0 981.3 NA 0.0000 9999 460 0 0 0
2019/07/21 02:01:00 BASE 4.41 180 7.25 229 -4.8 100 -4.8 0 0 981.3 NA 0.0000 9999 620 0 0 0
2019/07/21 02:02:00 BASE 4.68 185 7.10 226 -4.8 100 -4.8 0 0 981.4 NA 0.0000 9999 620 0 0 0
2019/07/21 02:03:00 BASE 4.74 194 7.00 205 -4.8 100 -4.8 0 0 981.4 NA 0.0000 9999 720 0 0 0
2019/07/21 02:04:00 BASE 5.04 202 7.87 201 -4.8 100 -4.8 0 0 981.4 NA 0.0000 9999 690 0 0 0
2019/07/21 02:05:00 BASE 6.40 211 8.18 225 -4.7 100 -4.7 0 0 981.4 NA 0.0000 9999 660 0 0 0
2019/07/21 02:06:00 BASE 7.00 216 8.18 225 -4.7 100 -4.7 0 0 981.4 NA 0.0000 9999 660 0 0 0
2019/07/21 02:07:00 BASE 6.02 215 8.18 225 -4.7 100 -4.7 0 0 981.4 NA 0.0000 9999 790 0 0 0
2019/07/21 02:08:00 BASE 6.27 213 8.18 225 -4.7 100 -4.7 0 0 981.4 NA 0.0000 9999 790 0 0 0
2019/07/21 02:09:00 BASE 6.39 206 8.18 225 -4.7 100 -4.7 0 0 981.4 NA 0.0000 9999 390 0 0 0
2019/07/21 02:10:00 BASE 6.07 206 8.18 225 -4.7 100 -4.7 0 0 981.4 NA 0.0000 9999 390 0 0 0
2019/07/21 02:11:00 BASE 6.10 212 8.18 225 -4.7 100 -4.7 0 0 981.4 NA 0.0000 9999 360 0 0 0
2019/07/21 02:12:00 BASE 6.07 215 8.18 225 -4.7 100 -4.7 0 0 981.4 NA 0.0000 9999 460 0 0 0
2019/07/21 02:13:00 BASE 5.80 219 8.18 225 -4.7 100 -4.7 0 0 981.4 NA 0.0000 9999 520 0 0 0
2019/07/21 02:14:00 BASE 5.54 222 8.18 225 -4.7 100 -4.7 0 0 981.5 NA 0.0000 9999 590 0 0 0
2019/07/21 02:15:00 BASE 5.84 219 7.61 206 -4.7 100 -4.7 0 0 981.4 NA 0.0000 9999 490 0 0 0
2019/07/21 02:16:00 BASE 6.13 214 7.61 206 -4.7 100 -4.7 0 0 981.4 NA 0.0000 9999 390 0 0 0
2019/07/21 02:17:00 BASE 7.13 217 8.85 226 -4.7 100 -4.7 0 0 981.4 NA 0.0000 9999 520 0 0 0
2019/07/21 02:18:00 BASE 7.72 220 8.85 226 -4.7 100 -4.7 0 0 981.4 NA 0.0000 9999 620 0 0 0
2019/07/21 02:19:00 BASE 7.53 217 8.85 226 -4.7 100 -4.7 0 0 981.5 NA 0.0000 9999 490 0 0 0
2019/07/21 02:20:00 BASE 7.68 216 8.85 226 -4.7 100 -4.7 0 0 981.5 NA 0.0000 9999 460 0 0 0
2019/07/21 02:21:00 BASE 7.48 220 8.85 226 -4.7 100 -4.7 0 0 981.5 NA 0.0000 9999 560 0 0 0
2019/07/21 02:22:00 BASE 7.31 219 8.85 226 -4.7 100 -4.7 0 0 981.5 NA 0.0000 9999 520 0 0 0
2019/07/21 02:23:00 BASE 7.78 214 8.85 226 -4.7 100 -4.7 0 0 981.5 NA 0.0000 9999 590 0 0 0
2019/07/21 02:24:00 BASE 7.96 217 8.85 226 -4.7 100 -4.7 0 0 981.5 NA 0.0000 9999 620 0 0 0
2019/07/21 02:25:00 BASE 8.46 220 9.62 217 -4.7 100 -4.7 0 0 981.5 NA 0.0000 9999 430 0 0 0
2019/07/21 02:26:00 BASE 8.80 223 9.62 217 -4.8 100 -4.8 0 0 981.5 NA 0.0000 9999 360 0 0 0
2019/07/21 02:27:00 BASE 8.08 223 9.62 217 -4.8 100 -4.8 0 0 981.5 NA 0.0000 9999 390 0 0 0
2019/07/21 02:28:00 BASE 7.77 221 9.62 217 -4.8 100 -4.8 0 0 981.5 NA 0.0000 9999 430 0 0 0
2019/07/21 02:29:00 BASE 8.27 220 9.62 223 -4.8 100 -4.8 0 0 981.5 NA 0.0000 9999 390 0 0 0
2019/07/21 02:30:00 BASE 8.34 217 9.62 223 -4.8 100 -4.8 0 0 981.5 NA 0.0000 9999 430 0 0 0
2019/07/21 02:31:00 BASE 8.06 216 9.62 223 -4.8 100 -4.8 0 0 981.5 NA 0.0000 9999 430 0 0 0
2019/07/21 02:32:00 BASE 8.08 219 9.62 223 -4.8 100 -4.8 0 0 981.5 NA 0.0000 9999 590 0 0 0
2019/07/21 02:33:00 BASE 8.05 220 9.62 223 -4.8 100 -4.8 0 0 981.5 NA 0.0000 9999 520 0 0 0
2019/07/21 02:34:00 BASE 8.15 218 9.62 223 -4.8 100 -4.8 0 0 981.5 NA 0.0000 9999 490 0 0 0
2019/07/21 02:35:00 BASE 8.59 216 9.83 218 -4.8 100 -4.8 0 0 981.5 NA 0.0000 9999 560 0 0 0
2019/07/21 02:36:00 BASE 8.17 219 9.83 218 -4.8 100 -4.8 0 0 981.5 NA 0.0000 9999 560 0 0 0
2019/07/21 02:37:00 BASE 6.58 216 9.83 218 -4.8 100 -4.8 0 0 981.5 NA 0.0000 9999 560 0 0 0
2019/07/21 02:38:00 BASE 6.03 212 9.83 218 -4.8 100 -4.8 0 0 981.5 NA 0.0000 9999 690 0 0 0
2019/07/21 02:39:00 BASE 6.03 223 9.83 218 -4.9 100 -4.9 0 0 981.5 NA 0.0000 9999 750 0 0 0
2019/07/21 02:40:00 BASE 5.41 235 9.83 218 -4.9 100 -4.9 0 0 981.5 NA 0.0000 9999 690 0 0 0
2019/07/21 02:41:00 BASE 4.84 232 9.83 218 -4.9 100 -4.9 0 0 981.5 NA 0.0000 9999 430 0 0 0
2019/07/21 02:42:00 BASE 4.51 221 9.83 218 -4.9 100 -4.9 0 0 981.5 NA 0.0000 9999 430 0 0 0
2019/07/21 02:43:00 BASE 4.25 213 9.83 218 -4.9 100 -4.9 0 0 981.5 NA 0.0000 9999 520 0 0 0
2019/07/21 02:44:00 BASE 3.80 210 9.83 218 -4.9 100 -4.9 0 0 981.6 NA 0.0000 9999 430 0 0 0
2019/07/21 02:45:00 BASE 3.49 218 7.97 226 -4.9 100 -4.9 0 0 981.6 NA 0.0000 9999 750 0 0 0
2019/07/21 02:46:00 BASE 3.43 219 7.25 221 -4.9 100 -4.9 0 0 981.6 NA 0.0000 9999 590 0 0 0
2019/07/21 02:47:00 BASE 2.68 210 7.25 221 -4.9 100 -4.9 0 0 981.6 NA 0.0000 9999 560 0 0 0
2019/07/21 02:48:00 BASE 2.34 199 7.10 227 -4.9 100 -4.9 0 0 981.6 NA 0.0000 9999 460 0 0 0
2019/07/21 02:49:00 BASE 2.44 189 5.45 233 -4.9 100 -4.9 0 0 981.6 NA 0.0000 9999 560 0 0 0
2019/07/21 02:50:00 BASE 1.93 190 5.04 226 -4.9 100 -4.9 0 0 981.6 NA 0.0000 9999 560 0 0 0
2019/07/21 02:51:00 BASE 2.04 189 4.94 216 -4.9 100 -4.9 0 0 981.6 NA 0.0000 9999 490 0 0 0
2019/07/21 02:52:00 BASE 2.73 196 4.42 212 -4.9 100 -4.9 0 0 981.6 NA 0.0000 9999 590 0 0 0
2019/07/21 02:53:00 BASE 3.08 207 4.27 205 -4.9 100 -4.9 0 0 981.6 NA 0.0000 9999 460 0 0 0
2019/07/21 02:54:00 BASE 4.23 212 7.05 203 -4.9 100 -4.9 0 0 981.5 NA 0.0000 9999 490 0 0 0
2019/07/21 02:55:00 BASE 6.27 223 8.49 232 -4.9 100 -4.9 0 0 981.5 NA 0.0000 9999 560 0 0 0
2019/07/21 02:56:00 BASE 6.94 232 8.49 232 -4.8 100 -4.8 0 0 981.5 NA 0.0000 9999 430 0 0 0
2019/07/21 02:57:00 BASE 6.36 232 8.49 232 -4.8 100 -4.8 0 0 981.5 NA 0.0000 9999 330 0 0 0
2019/07/21 02:58:00 BASE 5.46 236 8.49 232 -4.8 100 -4.8 0 0 981.5 NA 0.0000 8000 330 0 0 0
2019/07/21 02:59:00 BASE 5.01 243 8.49 232 -4.8 100 -4.8 0 0 981.5 NA 0.0000 9000 430 0 0 0
2019/07/21 03:00:00 BASE 5.09 243 8.49 232 -4.8 100 -4.8 0 0 981.5 NA 0.0000 9999 430 0 0 0
2019/07/21 03:01:00 BASE 4.65 240 8.49 232 -4.8 100 -4.8 0 0 981.5 NA 0.0000 9999 430 0 0 0
2019/07/21 03:02:04 BASE 3.90 245 8.49 232 -4.8 100 -4.8 0 0 981.5 NA 0.0000 9999 560 0 0 0
2019/07/21 03:03:00 BASE 3.68 255 8.49 232 -4.8 100 -4.8 0 0 981.5 NA 0.0000 9999 620 0 0 0
2019/07/21 03:04:00 BASE 3.60 242 8.49 232 -4.8 100 -4.8 0 0 981.5 NA 0.0000 9999 620 0 0 0
2019/07/21 03:05:00 BASE 3.47 210 7.51 228 -4.8 100 -4.8 0 0 981.5 NA 0.0000 9999 590 0 0 0
2019/07/21 03:06:00 BASE 4.11 198 6.64 229 -4.8 100 -4.8 0 0 981.5 NA 0.0000 9999 460 0 0 0
2019/07/21 03:07:00 BASE 4.85 201 6.07 202 -4.8 100 -4.8 0 0 981.5 NA 0.0000 9999 660 0 0 0
2019/07/21 03:08:00 BASE 4.82 196 6.07 202 -4.8 100 -4.8 0 0 981.5 NA 0.0000 9999 460 0 0 0
2019/07/21 03:09:00 BASE 4.81 196 6.07 202 -4.8 100 -4.8 0 0 981.4 NA 0.0000 9999 490 0 0 0
2019/07/21 03:10:00 BASE 4.57 225 6.07 202 -4.7 100 -4.7 0 0 981.5 NA 0.0000 9999 560 0 0 0
2019/07/21 03:11:00 BASE 3.86 244 6.07 202 -4.7 100 -4.7 0 0 981.5 NA 0.0000 9999 560 0 0 0
2019/07/21 03:12:00 BASE 3.32 248 6.07 202 -4.7 100 -4.7 0 0 981.5 NA 0.0000 9999 560 0 0 0
2019/07/21 03:13:00 BASE 3.17 250 6.07 202 -4.8 100 -4.8 0 0 981.5 NA 0.0000 9999 490 0 0 0
2019/07/21 03:14:00 BASE 2.89 246 6.07 202 -4.8 100 -4.8 0 0 981.5 NA 0.0000 9999 390 0 0 0
2019/07/21 03:15:00 BASE 2.28 249 6.07 202 -4.8 100 -4.8 0 0 981.5 NA 0.0000 9999 360 0 0 0
2019/07/21 03:16:00 BASE 1.81 244 6.07 202 -4.8 100 -4.8 0 0 981.5 NA 0.0000 9000 360 0 0 0
2019/07/21 03:17:00 BASE 1.47 234 5.86 193 -4.8 100 -4.8 0 0 981.5 NA 0.0000 7000 330 0 0 0
2019/07/21 03:18:00 BASE 1.86 234 5.56 256 -4.8 100 -4.8 0 0 981.5 NA 0.0000 BR 6000 330 0 0 0
2019/07/21 03:19:00 BASE 2.21 239 5.56 256 -4.8 100 -4.8 0 0 981.4 NA 0.0000 BR 6000 300 0 0 0
2019/07/21 03:20:00 BASE 2.29 241 4.17 244 -4.8 100 -4.8 0 0 981.4 NA 0.0000 BR 6000 300 0 0 0
2019/07/21 03:21:00 BASE 2.70 237 3.76 249 -4.8 100 -4.8 0 0 981.4 NA 0.0000 BR 6000 330 0 0 0
2019/07/21 03:22:00 BASE 2.61 235 3.76 249 -4.8 100 -4.8 0 0 981.4 NA 0.0000 BR 8000 390 0 0 0
2019/07/21 03:23:00 BASE 2.47 236 3.65 246 -4.8 100 -4.8 0 0 981.4 NA 0.0000 BR 8000 390 0 0 0
2019/07/21 03:24:00 BASE 3.22 232 4.48 229 -4.8 100 -4.8 0 0 981.4 NA 0.0000 BR 9000 390 0 0 0
2019/07/21 03:25:00 BASE 3.84 227 4.48 229 -4.8 100 -4.8 0 0 981.4 NA 0.0000 BR 8000 360 0 0 0
2019/07/21 03:26:00 BASE 4.80 230 8.08 240 -4.7 100 -4.7 0 0 981.3 NA 0.0000 BR 9999 390 0 0 0
2019/07/21 03:27:00 BASE 6.14 236 8.08 240 -4.7 100 -4.7 0 0 981.3 NA 0.0000 BR 9999 430 0 0 0
2019/07/21 03:28:00 BASE 6.79 240 8.08 240 -4.7 100 -4.7 0 0 981.2 NA 0.0000 BR 9999 430 0 0 0
2019/07/21 03:29:00 BASE 7.20 240 8.49 242 -4.7 100 -4.7 0 0 981.2 NA 0.0000 BR 9999 360 0 0 0
2019/07/21 03:30:00 BASE 6.99 243 8.49 242 -4.7 100 -4.7 0 0 981.2 NA 0.0000 BR 9000 330 0 0 0
2019/07/21 03:31:00 BASE 6.56 248 8.49 242 -4.7 100 -4.7 0 0 981.2 NA 0.0000 BR 8000 300 0 0 0
2019/07/21 03:32:00 BASE 6.33 250 8.49 242 -4.7 100 -4.7 0 0 981.3 NA 0.0000 9999 330 0 0 0
2019/07/21 03:33:00 BASE 6.32 254 8.49 242 -4.7 100 -4.7 0 0 981.3 NA 0.0000 9999 390 0 0 0
2019/07/21 03:34:00 BASE 6.99 255 8.49 242 -4.8 100 -4.8 0 0 981.3 NA 0.0000 9999 300 0 0 0
2019/07/21 03:35:00 BASE 6.76 251 8.49 242 -4.8 100 -4.8 0 0 981.3 NA 0.0000 9999 360 0 0 0
2019/07/21 03:36:00 BASE 5.50 252 8.49 242 -4.7 100 -4.7 0 0 981.2 NA 0.0000 9999 390 0 0 0
2019/07/21 03:37:00 BASE 5.97 232 8.49 242 -4.7 100 -4.7 0 0 981.2 NA 0.0000 9999 390 0 0 0
2019/07/21 03:38:00 BASE 7.50 209 8.90 205 -4.7 100 -4.7 0 0 981.2 NA 0.0000 9999 430 0 0 0
2019/07/21 03:39:00 BASE 8.10 205 9.21 205 -4.7 100 -4.7 0 0 981.2 NA 0.0000 9999 390 0 0 0
2019/07/21 03:40:00 BASE 8.45 206 10.19 207 -4.7 100 -4.7 0 0 981.2 NA 0.0000 9999 430 1180 0 0
2019/07/21 03:41:00 BASE 8.35 212 10.19 207 -4.7 100 -4.7 0 0 981.2 NA 0.0000 9999 360 0 0 0
2019/07/21 03:42:00 BASE 8.30 214 10.19 207 -4.7 100 -4.7 0 0 981.3 NA 0.0000 9999 460 0 0 0
2019/07/21 03:43:00 BASE 8.61 215 10.19 207 -4.7 100 -4.7 0 0 981.3 NA 0.0000 9999 460 0 0 0
2019/07/21 03:44:00 BASE 8.68 218 10.19 207 -4.8 100 -4.8 0 0 981.3 NA 0.0000 9999 460 0 0 0
2019/07/21 03:45:00 BASE 9.24 220 10.19 207 -4.8 100 -4.8 0 0 981.3 NA 0.0000 9999 430 0 0 0
2019/07/21 03:46:00 BASE 9.15 221 10.19 207 -4.8 100 -4.8 0 0 981.3 NA 0.0000 9999 430 0 0 0
2019/07/21 03:47:00 BASE 8.06 226 10.19 207 -4.9 100 -4.9 0 0 981.3 NA 0.0000 9999 590 0 0 0
2019/07/21 03:48:00 BASE 7.28 227 10.19 207 -4.9 100 -4.9 0 0 981.3 NA 0.0000 9999 390 0 0 0
2019/07/21 03:49:00 BASE 7.06 224 10.19 207 -4.8 100 -4.8 0 0 981.4 NA 0.0000 9999 390 0 0 0
2019/07/21 03:50:00 BASE 7.08 227 10.08 220 -4.8 100 -4.8 0 0 981.4 NA 0.0000 9999 390 0 0 0
2019/07/21 03:51:00 BASE 7.31 225 10.08 220 -4.8 100 -4.8 0 0 981.4 NA 0.0000 9999 390 0 0 0
2019/07/21 03:52:00 BASE 7.21 220 10.08 220 -4.8 100 -4.8 0 0 981.4 NA 0.0000 9000 360 0 0 0
2019/07/21 03:53:00 BASE 6.27 212 10.08 220 -4.8 100 -4.8 0 0 981.4 NA 0.0000 9999 390 0 0 0
2019/07/21 03:54:00 BASE 5.97 207 10.08 220 -4.8 100 -4.8 0 0 981.4 NA 0.0000 9999 430 0 0 0
2019/07/21 03:55:00 BASE 6.43 210 9.21 215 -4.8 100 -4.8 0 0 981.4 NA 0.0000 9999 430 0 0 0
2019/07/21 03:56:00 BASE 6.44 206 8.39 235 -4.8 100 -4.8 0 0 981.4 NA 0.0000 9999 520 0 0 0
2019/07/21 03:57:00 BASE 6.74 202 8.28 208 -4.8 100 -4.8 0 0 981.4 NA 0.0000 9999 460 0 0 0
2019/07/21 03:58:00 BASE 7.42 205 8.33 207 -4.8 100 -4.8 0 0 981.4 NA 0.0000 9999 390 0 0 0
2019/07/21 03:59:00 BASE 7.24 202 8.33 207 -4.8 100 -4.8 0 0 981.4 NA 0.0000 9999 390 0 0 0
2019/07/21 04:00:00 BASE 6.33 203 8.33 207 -4.8 100 -4.8 0 0 981.4 NA 0.0000 8000 390 0 0 0
2019/07/21 04:01:00 BASE 5.69 209 8.33 207 -4.8 100 -4.8 0 0 981.4 NA 0.0000 9999 590 0 0 0
2019/07/21 04:02:00 BASE 6.28 206 8.33 207 -4.8 100 -4.8 0 0 981.4 NA 0.0000 9999 690 0 0 0
2019/07/21 04:03:00 BASE 7.21 202 8.33 207 -4.8 100 -4.8 0 0 981.4 NA 0.0000 9999 490 0 0 0
2019/07/21 04:04:00 BASE 7.59 204 8.39 211 -4.8 100 -4.8 0 0 981.4 NA 0.0000 9999 490 0 0 0
2019/07/21 04:05:00 BASE 7.51 211 8.39 211 -4.8 100 -4.8 0 0 981.4 NA 0.0000 9999 460 0 0 0
2019/07/21 04:06:00 BASE 7.10 217 8.39 211 -4.9 100 -4.9 0 0 981.4 NA 0.0000 9999 620 0 0 0
2019/07/21 04:07:00 BASE 6.79 223 8.39 211 -4.9 100 -4.9 0 0 981.4 NA 0.0000 9999 590 0 0 0
2019/07/21 04:08:00 BASE 6.68 227 8.39 211 -4.9 100 -4.9 0 0 981.4 NA 0.0000 9999 590 0 0 0
2019/07/21 04:09:00 BASE 6.94 221 8.39 211 -4.9 100 -5.0 0 0 981.4 NA 0.0000 9999 720 0 0 0
2019/07/21 04:10:00 BASE 6.44 213 8.39 211 -5.0 100 -5.0 0 0 981.4 NA 0.0000 9999 620 0 0 0
2019/07/21 04:11:00 BASE 5.09 215 8.39 211 -5.0 100 -5.0 0 0 981.4 NA 0.0000 9999 590 0 0 0
2019/07/21 04:12:00 BASE 4.38 224 8.39 211 -5.0 100 -5.0 0 0 981.4 NA 0.0000 9999 750 0 0 0
2019/07/21 04:13:00 BASE 5.24 230 8.39 211 -5.0 100 -5.0 0 0 981.4 NA 0.0000 9999 490 0 0 0
2019/07/21 04:14:00 BASE 6.42 229 7.82 214 -5.0 100 -5.0 0 0 981.4 NA 0.0000 9999 430 0 0 0
2019/07/21 04:15:00 BASE 6.21 231 7.72 214 -4.9 100 -4.9 0 0 981.4 NA 0.0000 9999 430 0 0 0
2019/07/21 04:16:00 BASE 5.23 233 7.41 202 -4.9 100 -4.9 0 0 981.4 NA 0.0000 9999 390 0 0 0
2019/07/21 04:17:00 BASE 4.48 231 7.41 202 -4.9 100 -4.9 0 0 981.4 NA 0.0000 9000 360 0 0 0
2019/07/21 04:18:00 BASE 4.04 230 7.41 202 -4.9 100 -4.9 0 0 981.4 NA 0.0000 9999 430 0 0 0
2019/07/21 04:19:00 BASE 3.92 235 7.41 202 -4.9 100 -4.9 0 0 981.4 NA 0.0000 9999 620 0 0 0
2019/07/21 04:20:00 BASE 3.90 237 7.15 226 -4.9 100 -4.9 0 0 981.4 NA 0.0000 9999 560 0 0 0
2019/07/21 04:21:00 BASE 3.68 235 7.15 226 -4.9 100 -4.9 0 0 981.4 NA 0.0000 9999 390 0 0 0
2019/07/21 04:22:00 BASE 3.49 238 7.15 226 -4.9 100 -4.9 0 0 981.4 NA 0.0000 9999 430 0 0 0
2019/07/21 04:23:00 BASE 3.60 241 7.00 229 -4.9 100 -4.9 0 0 981.4 NA 0.0000 9999 330 0 0 0
2019/07/21 04:24:00 BASE 3.58 244 6.38 230 -4.9 100 -4.9 0 0 981.4 NA 0.0000 7000 360 0 0 0
2019/07/21 04:25:00 BASE 3.73 250 5.04 232 -4.9 100 -4.9 0 0 981.4 NA 0.0000 9999 360 0 0 0
2019/07/21 04:26:00 BASE 3.91 250 4.68 242 -5.0 100 -5.0 0 0 981.4 NA 0.0000 9999 360 0 0 0
2019/07/21 04:27:01 BASE 3.31 249 4.58 241 -5.0 100 -5.0 0 0 981.4 NA 0.0000 9999 360 0 0 0
2019/07/21 04:28:00 BASE 3.02 249 4.58 241 -5.0 100 -5.0 0 0 981.4 NA 0.0000 9999 430 0 0 0
2019/07/21 04:29:00 BASE 3.42 247 4.63 235 -5.0 100 -5.0 0 0 981.4 NA 0.0000 9999 430 0 0 0
2019/07/21 04:30:00 BASE 3.80 241 4.78 236 -5.0 100 -5.0 0 0 981.4 NA 0.0000 9999 430 0 0 0
2019/07/21 04:31:00 BASE 4.09 238 5.14 230 -5.0 100 -5.0 0 0 981.4 NA 0.0000 9999 360 0 0 0
2019/07/21 04:32:00 BASE 4.43 241 5.14 230 -4.9 100 -4.9 0 0 981.4 NA 0.0000 9999 360 0 0 0
2019/07/21 04:33:00 BASE 4.38 244 5.14 230 -4.9 100 -4.9 0 0 981.4 NA 0.0000 9999 390 0 0 0
2019/07/21 04:34:00 BASE 4.11 243 5.14 230 -4.9 100 -4.9 0 0 981.4 NA 0.0000 9999 660 0 0 0
2019/07/21 04:35:00 BASE 4.84 232 6.43 207 -4.9 100 -4.9 0 0 981.4 NA 0.0000 9999 790 0 0 0
2019/07/21 04:36:00 BASE 6.40 223 7.67 219 -4.9 100 -4.9 0 0 981.4 NA 0.0000 9999 750 0 0 0
2019/07/21 04:37:00 BASE 7.09 221 7.67 219 -4.9 100 -4.9 0 0 981.4 NA 0.0000 9999 720 1410 0 0
2019/07/21 04:38:00 BASE 7.02 217 7.82 217 -4.9 100 -4.9 0 0 981.4 NA 0.0000 9999 460 0 0 0
2019/07/21 04:39:00 BASE 7.21 219 8.13 221 -4.9 100 -4.9 0 0 981.3 NA 0.0000 9999 360 1050 0 0
2019/07/21 04:40:00 BASE 6.91 216 8.13 221 -4.9 100 -4.9 0 0 981.4 NA 0.0000 9999 360 0 0 0
2019/07/21 04:41:00 BASE 6.44 208 8.13 221 -4.9 100 -4.9 0 0 981.3 NA 0.0000 9999 390 0 0 0
2019/07/21 04:42:01 BASE 6.43 212 8.13 221 -4.9 100 -4.9 0 0 981.4 NA 0.0000 9999 430 0 0 0
2019/07/21 04:43:00 BASE 6.31 221 8.13 221 -4.9 100 -4.9 0 0 981.3 NA 0.0000 9999 560 0 0 0
2019/07/21 04:44:00 BASE 6.18 217 8.13 221 -4.9 100 -4.9 0 0 981.3 NA 0.0000 9999 750 0 0 0
2019/07/21 04:45:00 BASE 6.21 214 8.13 221 -4.9 100 -4.9 0 0 981.3 NA 0.0000 9999 660 0 0 0
2019/07/21 04:46:00 BASE 6.58 213 8.13 221 -4.9 100 -4.9 0 0 981.3 NA 0.0000 9999 360 0 0 0
2019/07/21 04:47:00 BASE 6.83 211 8.13 221 -4.9 100 -4.9 0 0 981.3 NA 0.0000 9999 460 1210 0 0
2019/07/21 04:48:00 BASE 6.31 206 8.13 221 -4.9 100 -4.9 0 0 981.2 NA 0.0000 9999 560 0 0 0
2019/07/21 04:49:00 BASE 5.78 206 7.77 214 -4.9 100 -4.9 0 0 981.2 NA 0.0000 9999 790 0 0 0
2019/07/21 04:50:00 BASE 5.37 211 7.77 214 -4.9 100 -4.9 0 0 981.2 NA 0.0000 9999 890 0 0 0
2019/07/21 04:51:00 BASE 5.21 213 7.77 214 -4.9 100 -4.9 0 0 981.2 NA 0.0000 9999 1080 0 0 0
2019/07/21 04:52:00 BASE 5.79 218 7.77 214 -4.9 100 -4.9 0 0 981.2 NA 0.0000 9999 1210 0 0 0
2019/07/21 04:53:00 BASE 5.33 221 7.77 214 -4.9 100 -4.9 0 0 981.2 NA 0.0000 9999 1180 0 0 0
2019/07/21 04:54:00 BASE 4.38 222 7.77 214 -5.0 100 -5.0 0 0 981.2 NA 0.0000 9999 1020 0 0 0
2019/07/21 04:55:00 BASE 3.95 223 7.51 209 -5.0 100 -5.0 0 0 981.2 NA 0.0000 9999 1050 0 0 0
2019/07/21 04:56:00 BASE 3.33 223 7.31 209 -5.0 100 -5.0 0 0 981.2 NA 0.0000 9999 1080 0 0 0
2019/07/21 04:57:00 BASE 3.31 221 7.00 223 -5.0 100 -5.0 0 0 981.2 NA 0.0000 9999 820 0 0 0
2019/07/21 04:58:00 BASE 3.44 221 7.00 223 -5.0 100 -5.0 0 0 981.2 NA 0.0000 9999 750 0 0 0
2019/07/21 04:59:00 BASE 3.46 217 7.00 223 -5.0 100 -5.0 0 0 981.2 NA 0.0000 9999 660 0 0 0
2019/07/21 05:00:00 BASE 3.73 211 7.00 223 -5.0 100 -5.0 0 0 981.2 NA 0.0000 9999 520 0 0 0
2019/07/21 05:01:00 BASE 3.91 214 7.00 223 -5.0 100 -5.0 0 0 981.2 NA 0.0000 9999 360 0 0 0
2019/07/21 05:02:00 BASE 3.87 213 5.25 223 -4.9 100 -4.9 0 0 981.2 NA 0.0000 9000 360 0 0 0
2019/07/21 05:03:00 BASE 3.60 207 4.73 225 -4.9 100 -4.9 0 0 981.2 NA 0.0000 8000 360 0 0 0
2019/07/21 05:04:00 BASE 3.17 201 4.42 213 -4.9 100 -4.9 0 0 981.2 NA 0.0000 8000 390 0 0 0
2019/07/21 05:05:00 BASE 2.86 199 4.42 213 -4.9 100 -4.9 0 0 981.2 NA 0.0000 7000 390 0 0 0
2019/07/21 05:06:00 BASE 2.81 197 4.42 213 -4.9 100 -4.9 0 0 981.2 NA 0.0000 6000 360 0 0 0
2019/07/21 05:07:00 BASE 2.64 196 4.42 213 -4.9 100 -4.9 0 0 981.2 NA 0.0000 BR 5000 360 0 0 0
2019/07/21 05:08:00 BASE 2.49 196 4.42 213 -4.9 100 -4.9 0 0 981.2 NA 0.0000 BR 5000 390 0 0 0
2019/07/21 05:09:00 BASE 2.47 199 4.42 213 -4.9 100 -4.9 0 0 981.2 NA 0.0000 BR 5000 390 0 0 0
2019/07/21 05:10:00 BASE 2.26 200 4.42 213 -4.9 100 -4.9 0 0 981.2 NA 0.0000 BR 4700 300 0 0 0
2019/07/21 05:11:00 BASE 2.37 196 3.96 212 -4.9 100 -4.9 0 0 981.2 NA 0.0000 BR 3500 230 0 0 0
2019/07/21 05:12:00 BASE 3.02 192 4.37 177 -4.9 100 -4.9 0 0 981.2 NA 0.0000 -SN BR 2800 360 0 0 0
2019/07/21 05:13:00 BASE 3.57 192 4.37 177 -4.9 100 -4.9 0 0 981.2 NA 0.0000 -SN BR 2900 360 0 0 0
2019/07/21 05:14:00 BASE 4.40 187 5.76 177 -4.8 100 -4.8 0 0 981.2 NA 0.0000 -SN BR 3200 460 0 0 0
2019/07/21 05:15:00 BASE 5.46 176 6.48 173 -4.8 100 -4.8 0 0 981.2 NA 0.0000 -SN BR 4100 460 0 0 0
2019/07/21 05:16:00 BASE 6.21 171 7.20 172 -4.8 100 -4.8 0 0 981.1 NA 0.0000 -SN BR 5000 430 0 0 0
2019/07/21 05:17:00 BASE 6.35 171 7.20 172 -4.8 100 -4.8 0 0 981.1 NA 0.0000 -SN BR 7000 430 0 0 0
2019/07/21 05:18:00 BASE 5.48 171 7.20 172 -4.9 100 -4.9 0 0 981.1 NA 0.0000 -SN BR 8000 390 0 0 0
2019/07/21 05:19:00 BASE 4.52 175 7.20 172 -4.9 100 -4.9 0 0 981.1 NA 0.0000 -SN BR 6000 430 0 0 0
2019/07/21 05:20:00 BASE 4.43 186 7.20 172 -4.9 100 -4.9 0 0 981.0 NA 0.0000 -SN BR 5000 390 0 0 0
2019/07/21 05:21:00 BASE 4.30 191 7.20 172 -4.9 100 -4.9 0 0 981.1 NA 0.0000 -SN BR 3100 330 0 0 0
2019/07/21 05:22:00 BASE 3.78 185 7.20 172 -4.9 100 -4.9 0 0 981.0 NA 0.0000 -SN BR 2400 330 0 0 0
2019/07/21 05:23:00 BASE 4.13 187 7.20 172 -4.9 100 -4.9 0 0 981.1 NA 0.0000 -SN BR 2400 360 0 0 0
2019/07/21 05:24:00 BASE 4.18 198 7.20 172 -4.9 100 -4.9 0 0 981.1 NA 0.0000 -SN BR 2500 390 0 0 0
2019/07/21 05:25:00 BASE 3.54 205 7.20 172 -5.0 100 -5.0 0 0 981.1 NA 0.0000 -SN BR 3200 1080 0 0 0
2019/07/21 05:26:00 BASE 3.45 207 7.05 173 -5.0 100 -5.0 0 0 981.1 NA 0.0000 -SN BR 4200 690 1540 0 0
2019/07/21 05:27:00 BASE 3.64 201 5.66 168 -5.0 100 -5.0 0 0 981.1 NA 0.0000 -SN BR 5000 850 2030 0 0
2019/07/21 05:28:00 BASE 3.78 187 5.25 201 -5.1 100 -5.1 0 0 981.1 NA 0.0000 -SN BR 7000 890 1940 0 0
2019/07/21 05:29:00 BASE 3.61 178 5.25 201 -5.1 100 -5.1 0 0 981.0 NA 0.0000 -SN BR 9000 980 0 0 0
2019/07/21 05:30:00 BASE 3.40 181 4.99 207 -5.1 100 -5.1 0 0 981.0 NA 0.0000 -SN BR 9999 1050 0 0 0
2019/07/21 05:31:00 BASE 3.47 189 4.99 207 -5.2 100 -5.2 0 0 981.1 NA 0.0000 BR 9999 1180 0 0 0
2019/07/21 05:32:00 BASE 3.50 187 4.99 207 -5.2 100 -5.2 0 0 981.1 NA 0.0000 BR 9999 1120 0 0 0
2019/07/21 05:33:00 BASE 3.37 189 4.68 195 -5.3 100 -5.3 0 0 981.1 NA 0.0000 BR 9999 0 0 0 0
2019/07/21 05:34:00 BASE 3.33 193 4.68 195 -5.3 100 -5.3 0 0 981.1 NA 0.0000 BR 9999 1150 0 0 0
2019/07/21 05:35:00 BASE 3.48 192 4.68 195 -5.3 100 -5.3 0 0 981.1 NA 0.0000 BR 9999 1080 0 0 0
2019/07/21 05:36:00 BASE 4.12 198 5.14 218 -5.3 100 -5.3 0 0 981.1 NA 0.0000 9999 850 0 0 0
2019/07/21 05:37:00 BASE 4.52 204 5.14 218 -5.2 100 -5.2 0 0 981.0 NA 0.0000 9999 1020 1800 0 0
2019/07/21 05:38:00 BASE 4.19 205 5.14 218 -5.2 100 -5.2 0 0 981.0 NA 0.0000 9999 750 0 0 0
2019/07/21 05:39:00 BASE 3.71 202 5.14 218 -5.2 100 -5.2 0 0 981.1 NA 0.0000 9999 690 1480 0 0
2019/07/21 05:40:00 BASE 3.43 201 5.14 218 -5.2 100 -5.2 0 0 981.2 NA 0.0000 9999 660 0 0 0
2019/07/21 05:41:00 BASE 3.33 198 5.14 218 -5.1 100 -5.1 0 0 981.2 NA 0.0000 9999 1180 0 0 0
2019/07/21 05:42:00 BASE 3.13 195 5.14 218 -5.1 100 -5.1 0 0 981.2 NA 0.0000 9999 1020 0 0 0
2019/07/21 05:43:00 BASE 2.74 199 5.14 218 -5.1 100 -5.1 0 0 981.2 NA 0.0000 9999 1020 0 0 0
2019/07/21 05:44:00 BASE 2.41 200 5.14 218 -5.1 100 -5.1 0 0 981.2 NA 0.0000 9999 690 1480 0 0
2019/07/21 05:45:00 BASE 2.18 192 5.14 218 -5.1 100 -5.1 0 0 981.2 NA 0.0000 9999 620 0 0 0
2019/07/21 05:46:00 BASE 2.02 186 4.63 210 -5.1 100 -5.1 0 0 981.2 NA 0.0000 9999 660 0 0 0
2019/07/21 05:47:00 BASE 2.16 178 4.37 201 -5.2 100 -5.2 0 0 981.2 NA 0.0000 9999 660 0 0 0
2019/07/21 05:48:00 BASE 2.24 172 3.91 209 -5.2 100 -5.2 0 0 981.2 NA 0.0000 9999 430 1150 0 0
2019/07/21 05:49:00 BASE 2.21 167 3.81 197 -5.2 100 -5.2 0 0 981.2 NA 0.0000 9999 430 0 0 0
2019/07/21 05:50:00 BASE 2.23 164 3.60 198 -5.2 100 -5.2 0 0 981.2 NA 0.0000 9999 390 0 0 0
2019/07/21 05:51:00 BASE 2.09 165 3.19 197 -5.2 100 -5.2 0 0 981.2 NA 0.0000 6000 300 0 0 0
2019/07/21 05:52:00 BASE 1.79 170 2.98 203 -5.2 100 -5.2 0 0 981.2 NA 0.0000 5000 300 0 0 0
2019/07/21 05:53:00 BASE 1.70 174 2.57 164 -5.2 100 -5.2 0 0 981.2 NA 0.0000 6000 330 0 0 0
2019/07/21 05:54:00 BASE 1.59 173 2.57 164 -5.2 100 -5.2 0 0 981.2 NA 0.0000 BR 7000 360 0 0 0
2019/07/21 05:55:00 BASE 1.44 172 2.57 164 -5.2 100 -5.2 0 0 981.2 NA 0.0000 BR 9000 390 1310 0 0
2019/07/21 05:56:00 BASE 1.35 169 2.57 164 -5.2 100 -5.2 0 0 981.2 NA 0.0000 BR 9999 720 1380 0 0
2019/07/21 05:57:00 BASE 1.18 164 2.57 164 -5.2 100 -5.2 0 0 981.2 NA 0.0000 BR 9999 790 0 0 0
2019/07/21 05:58:00 BASE 1.19 161 2.57 164 -5.2 100 -5.2 0 0 981.2 NA 0.0000 BR 9999 520 0 0 0
2019/07/21 05:59:00 BASE 1.30 164 2.57 164 -5.2 100 -5.2 0 0 981.2 NA 0.0000 BR 9999 430 0 0 0
2019/07/21 06:00:00 BASE 1.07 170 2.21 164 -5.2 100 -5.2 0 0 981.2 NA 0.0000 BR 9999 360 0 0 0
2019/07/21 06:01:00 BASE 0.39 167 2.16 179 -5.2 100 -5.2 0 0 981.2 NA 0.0000 BR 8000 300 0 0 0
2019/07/21 06:02:00 BASE 0.13 158 2.16 179 -5.2 100 -5.2 0 0 981.2 NA 0.0000 BR 5000 330 0 0 0
2019/07/21 06:03:00 BASE 0.40 150 1.65 173 -5.2 100 -5.2 0 0 981.2 NA 0.0000 BR 6000 330 0 0 0
2019/07/21 06:04:00 BASE 0.54 142 1.65 173 -5.2 100 -5.2 0 0 981.2 NA 0.0000 BR 6000 430 0 0 0
2019/07/21 06:05:00 BASE 1.00 142 1.65 143 -5.2 100 -5.2 0 0 981.2 NA 0.0000 BR 6000 460 0 0 0
2019/07/21 06:06:00 BASE 1.37 144 1.65 143 -5.2 100 -5.2 0 0 981.2 NA 0.0000 BR 8000 390 0 0 0
2019/07/21 06:07:00 BASE 1.15 143 1.65 143 -5.2 100 -5.2 0 0 981.2 NA 0.0000 BR 9999 360 0 0 0
2019/07/21 06:08:00 BASE 1.25 148 1.80 158 -5.2 100 -5.2 0 0 981.2 NA 0.0000 BR 9000 330 0 0 0
2019/07/21 06:09:00 BASE 1.43 149 1.80 158 -5.2 100 -5.2 0 0 981.2 NA 0.0000 BR 7000 330 0 0 0
2019/07/21 06:10:00 BASE 1.36 140 1.80 158 -5.2 100 -5.2 0 0 981.2 NA 0.0000 BR 6000 330 0 0 0
2019/07/21 06:11:00 BASE 1.48 143 1.95 160 -5.2 100 -5.2 0 0 981.2 NA 0.0000 BR 5000 360 0 0 0
2019/07/21 06:12:00 BASE 1.29 151 1.95 160 -5.2 100 -5.2 0 0 981.1 NA 0.0000 BR 6000 390 0 0 0
2019/07/21 06:13:00 BASE 1.12 146 1.95 160 -5.2 100 -5.2 0 0 981.0 NA 0.0000 BR 7000 360 0 0 0
2019/07/21 06:14:00 BASE 0.97 147 1.95 160 -5.2 100 -5.2 0 0 981.0 NA 0.0000 BR 6000 330 0 0 0
2019/07/21 06:15:00 BASE 0.33 161 1.95 160 -5.2 100 -5.2 0 0 981.0 NA 0.0000 BR 5000 300 0 0 0
2019/07/21 06:16:00 BASE 0.17 157 1.95 160 -5.2 100 -5.2 0 0 981.0 NA 0.0000 BR 5000 330 0 0 0
2019/07/21 06:17:00 BASE 0.17 147 1.95 160 -5.2 100 -5.2 0 0 981.0 NA 0.0000 BR 6000 300 0 0 0
2019/07/21 06:18:00 BASE 0.00 157 1.95 160 -5.2 100 -5.2 0 0 981.0 NA 0.0000 BR 5000 260 0 0 0
2019/07/21 06:19:00 BASE 0.00 159 1.95 160 -5.2 100 -5.2 0 0 981.0 NA 0.0000 BR 4100 230 0 0 0
2019/07/21 06:20:00 BASE 0.00 158 1.95 160 -5.2 100 -5.2 0 0 981.0 NA 0.0000 BR 3900 230 0 0 0
2019/07/21 06:21:00 BASE 0.05 162 1.44 144 -5.2 100 -5.2 0 0 981.0 NA 0.0000 BR 4000 230 0 0 0
2019/07/21 06:22:00 BASE 0.42 164 1.44 144 -5.2 100 -5.2 0 0 981.0 NA 0.0000 BR 3600 0 0 0 1050
2019/07/21 06:23:00 BASE 1.15 178 2.31 189 -5.2 100 -5.2 0 0 981.0 NA 0.0000 BR 3000 0 0 0 1310
2019/07/21 06:24:00 BASE 1.81 198 2.52 193 -5.1 100 -5.1 0 0 981.0 NA 0.0000 -SN BR 3200 260 0 0 0
2019/07/21 06:25:00 BASE 1.76 210 2.52 193 -5.1 100 -5.1 0 0 981.0 NA 0.0000 -SN BR 3300 260 0 0 0
2019/07/21 06:26:00 BASE 1.22 215 2.52 193 -5.2 100 -5.2 0 0 981.0 NA 0.0000 -SN BR 4000 300 0 0 0
2019/07/21 06:27:00 BASE 0.50 219 2.52 193 -5.2 100 -5.2 0 0 981.0 NA 0.0000 -SN BR 4800 330 0 0 0
2019/07/21 06:28:00 BASE 0.37 191 2.52 193 -5.2 100 -5.2 0 0 981.0 NA 0.0000 -SN BR 6000 390 0 0 0
2019/07/21 06:29:00 BASE 1.02 176 2.52 193 -5.2 100 -5.2 0 0 981.0 NA 0.0000 -SN BR 7000 490 0 0 0
2019/07/21 06:30:00 BASE 0.91 166 2.52 193 -5.2 100 -5.2 0 0 981.0 NA 0.0000 -SN BR 9999 620 0 0 0
2019/07/21 06:31:00 BASE 1.04 149 2.52 193 -5.2 100 -5.2 0 0 981.0 NA 0.0000 -SN BR 9999 460 0 0 0
2019/07/21 06:32:00 BASE 1.34 158 2.52 193 -5.2 100 -5.2 0 0 981.0 NA 0.0000 -SN BR 9999 490 0 0 0
2019/07/21 06:33:00 BASE 0.75 147 2.52 193 -5.2 100 -5.2 0 0 981.0 NA 0.0000 BR 9999 460 0 0 0
2019/07/21 06:34:00 BASE 0.88 111 2.16 137 -5.2 100 -5.2 0 0 981.0 NA 0.0000 BR 9999 390 0 0 0
2019/07/21 06:35:00 BASE 1.02 105 2.16 137 -5.2 100 -5.2 0 0 981.0 NA 0.0000 BR 9999 620 0 0 0
2019/07/21 06:36:00 BASE 0.33 113 2.16 137 -5.2 100 -5.2 0 0 981.0 NA 0.0000 9999 690 0 0 0
2019/07/21 06:37:00 BASE 0.40 105 2.16 137 -5.3 100 -5.3 0 0 981.0 NA 0.0000 9999 590 0 0 0
2019/07/21 06:38:00 BASE 0.40 102 2.16 137 -5.3 100 -5.3 0 0 980.9 NA 0.0000 9999 620 0 0 0
2019/07/21 06:39:00 BASE 0.00 113 2.16 137 -5.3 100 -5.3 0 0 980.9 NA 0.0000 9999 690 0 0 0
2019/07/21 06:40:00 BASE 0.00 107 2.16 137 -5.3 100 -5.3 0 0 980.9 NA 0.0000 9999 820 0 0 0
2019/07/21 06:41:00 BASE 0.00 48 1.65 103 -5.3 100 -5.3 0 0 980.9 NA 0.0000 9999 720 0 0 0
2019/07/21 06:42:00 BASE 0.00 293 1.65 103 -5.3 100 -5.3 0 0 980.9 NA 0.0000 9999 660 0 0 0
2019/07/21 06:43:00 BASE 0.21 272 1.65 103 -5.3 100 -5.3 0 0 980.9 NA 0.0000 9999 720 0 0 0
2019/07/21 06:44:00 BASE 1.33 244 2.62 210 -5.3 100 -5.3 0 0 980.9 NA 0.0000 9999 390 0 0 0
2019/07/21 06:45:00 BASE 2.18 204 2.68 202 -5.3 100 -5.3 0 0 980.9 NA 0.0000 9999 360 0 0 0
2019/07/21 06:46:00 BASE 1.40 189 2.68 202 -5.3 100 -5.3 0 0 980.9 NA 0.0000 9999 390 0 0 0
2019/07/21 06:47:00 BASE 0.34 196 2.68 202 -5.3 100 -5.3 0 0 980.9 NA 0.0000 9999 360 0 0 0
2019/07/21 06:48:00 BASE 0.00 169 2.68 202 -5.3 100 -5.3 0 0 980.9 NA 0.0000 9999 330 0 0 0
2019/07/21 06:49:00 BASE 0.00 109 2.68 202 -5.3 100 -5.3 0 0 980.9 NA 0.0000 8000 330 0 0 0
2019/07/21 06:50:00 BASE 0.00 99 2.68 202 -5.3 100 -5.3 0 0 980.8 NA 0.0000 8000 360 0 0 0
2019/07/21 06:51:00 BASE 0.12 141 2.68 202 -5.3 100 -5.3 0 0 980.9 NA 0.0000 9999 360 0 0 0
2019/07/21 06:52:00 BASE 0.99 208 2.68 202 -5.3 100 -5.3 0 0 980.9 NA 0.0000 9000 300 0 0 0
2019/07/21 06:53:00 BASE 2.17 227 3.19 222 -5.3 100 -5.3 0 0 980.9 NA 0.0000 9999 390 0 0 0
2019/07/21 06:54:00 BASE 2.97 229 3.76 226 -5.3 100 -5.3 0 0 980.9 NA 0.0000 9999 390 0 0 0
2019/07/21 06:55:00 BASE 3.49 224 4.12 223 -5.3 100 -5.3 0 0 980.9 NA 0.0000 9999 360 0 0 0
2019/07/21 06:56:00 BASE 3.25 229 4.12 223 -5.3 100 -5.3 0 0 980.9 NA 0.0000 9999 260 0 0 0
2019/07/21 06:57:00 BASE 2.92 235 4.12 223 -5.3 100 -5.3 0 0 980.9 NA 0.0000 9999 230 0 0 0
2019/07/21 06:58:00 BASE 2.92 241 4.12 223 -5.3 100 -5.3 0 0 980.9 NA 0.0000 9000 260 0 0 0
2019/07/21 06:59:00 BASE 3.17 244 4.12 223 -5.3 100 -5.3 0 0 980.9 NA 0.0000 9999 260 0 0 0
2019/07/21 07:00:00 BASE 3.53 245 4.12 223 -5.3 100 -5.3 0 0 980.9 NA 0.0000 9999 260 0 0 0
2019/07/21 07:01:00 BASE 3.47 251 4.12 223 -5.2 100 -5.2 0 0 980.9 NA 0.0000 9999 330 0 0 0
2019/07/21 07:02:00 BASE 3.48 251 4.12 245 -5.2 100 -5.2 0 0 980.9 NA 0.0000 9999 330 0 0 0
2019/07/21 07:03:00 BASE 3.48 242 4.12 245 -5.2 100 -5.2 0 0 980.9 NA 0.0000 9999 560 0 0 0
2019/07/21 07:04:00 BASE 3.13 235 4.12 245 -5.2 100 -5.2 0 0 980.9 NA 0.0000 9999 520 0 0 0
2019/07/21 07:05:00 BASE 3.17 216 4.12 245 -5.2 100 -5.2 0 0 980.9 NA 0.0000 9999 390 0 0 0
2019/07/21 07:06:00 BASE 3.42 197 4.12 245 -5.2 100 -5.2 0 0 980.9 NA 0.0000 8000 360 0 0 0
2019/07/21 07:07:00 BASE 3.47 199 4.12 245 -5.2 100 -5.2 0 0 980.9 NA 0.0000 6000 300 0 0 0
2019/07/21 07:08:00 BASE 3.22 202 4.12 245 -5.3 100 -5.3 0 0 980.9 NA 0.0000 8000 330 0 0 0
2019/07/21 07:09:00 BASE 2.66 199 4.12 245 -5.3 100 -5.3 0 0 980.9 NA 0.0000 9999 490 0 0 0
2019/07/21 07:10:00 BASE 2.76 193 4.12 245 -5.3 100 -5.3 0 0 980.9 NA 0.0000 9999 330 0 0 0
2019/07/21 07:11:00 BASE 2.73 191 4.12 245 -5.3 100 -5.3 0 0 980.9 NA 0.0000 9999 330 0 0 0
2019/07/21 07:12:00 BASE 2.31 204 3.96 197 -5.4 100 -5.4 0 0 980.9 NA 0.0000 9999 520 0 0 0
2019/07/21 07:13:00 BASE 2.41 213 3.96 197 -5.3 100 -5.3 0 0 980.9 NA 0.0000 9999 590 0 0 0
2019/07/21 07:14:00 BASE 3.18 216 4.12 211 -5.3 100 -5.3 0 0 980.9 NA 0.0000 9999 620 0 0 0
2019/07/21 07:15:00 BASE 3.34 224 4.12 211 -5.3 100 -5.3 0 0 980.9 NA 0.0000 9999 620 1210 0 0
2019/07/21 07:16:00 BASE 3.61 221 4.63 200 -5.3 100 -5.3 0 0 980.9 NA 0.0000 9999 560 1480 0 0
2019/07/21 07:17:00 BASE 4.50 214 5.40 211 -5.3 100 -5.3 0 0 980.9 NA 0.0000 9999 620 0 0 0
2019/07/21 07:18:00 BASE 4.85 211 5.40 210 -5.3 100 -5.3 0 0 980.9 NA 0.0000 9999 620 0 0 0
2019/07/21 07:19:00 BASE 4.98 204 5.45 203 -5.3 100 -5.3 0 0 980.9 NA 0.0000 9999 660 0 0 0
2019/07/21 07:20:00 BASE 4.90 198 5.45 203 -5.3 100 -5.3 0 0 980.9 NA 0.0000 9999 590 1900 0 0
2019/07/21 07:21:00 BASE 4.72 195 5.45 203 -5.4 100 -5.4 0 0 980.9 NA 0.0000 9999 590 2070 0 0
2019/07/21 07:22:00 BASE 4.47 201 5.45 203 -5.4 100 -5.4 0 0 980.9 NA 0.0000 9999 0 0 0 0
2019/07/21 07:23:00 BASE 4.53 206 5.45 203 -5.4 100 -5.4 0 0 980.9 NA 0.0000 9999 0 0 0 0
2019/07/21 07:24:00 BASE 4.53 204 5.45 203 -5.5 100 -5.5 0 0 980.9 NA 0.0000 9999 1250 0 0 0
2019/07/21 07:25:00 BASE 4.21 207 5.45 203 -5.5 100 -5.5 0 0 980.9 NA 0.0000 9999 360 0 0 0
2019/07/21 07:26:00 BASE 4.06 210 5.45 203 -5.5 100 -5.5 0 0 980.9 NA 0.0000 9999 360 0 0 0
2019/07/21 07:27:00 BASE 3.79 212 5.45 203 -5.5 100 -5.5 0 0 980.9 NA 0.0000 9000 300 0 0 0
2019/07/21 07:28:00 BASE 3.61 211 5.45 203 -5.5 100 -5.5 0 0 981.0 NA 0.0000 6000 0 0 0 1120
2019/07/21 07:29:00 BASE 3.93 205 5.14 198 -5.5 100 -5.5 0 0 981.0 NA 0.0000 5000 0 0 0 1310
2019/07/21 07:30:00 BASE 3.99 203 4.99 203 -5.5 100 -5.5 0 0 981.0 NA 0.0000 BR 4700 0 0 0 1440
2019/07/21 07:31:00 BASE 3.71 210 4.99 203 -5.5 100 -5.5 0 0 981.0 NA 0.0000 BR 4500 200 0 0 0
2019/07/21 07:32:00 BASE 3.37 221 4.99 203 -5.5 100 -5.5 0 0 981.0 NA 0.0000 BR 4500 230 0 0 0
2019/07/21 07:33:00 BASE 4.16 223 5.61 220 -5.5 100 -5.5 0 0 981.0 NA 0.0000 BR 5000 230 0 0 0
2019/07/21 07:34:00 BASE 5.38 220 6.02 220 -5.5 100 -5.5 0 0 980.9 NA 0.0000 BR 5000 230 0 0 0
2019/07/21 07:35:00 BASE 5.38 221 6.02 220 -5.5 100 -5.5 0 0 980.9 NA 0.0000 BR 4300 0 0 0 1080
2019/07/21 07:36:00 BASE 5.02 226 6.02 220 -5.5 100 -5.5 0 0 980.9 NA 0.0000 BR 3400 0 0 0 1180
2019/07/21 07:37:00 BASE 4.93 229 6.02 220 -5.5 100 -5.5 0 0 980.9 NA 0.0000 BR 3400 0 0 0 1150
2019/07/21 07:38:00 BASE 5.12 227 6.02 220 -5.5 100 -5.5 0 0 980.9 NA 0.0000 BR 4000 0 0 0 1280
2019/07/21 07:39:00 BASE 5.01 227 6.02 220 -5.5 100 -5.5 0 0 980.9 NA 0.0000 BR 4700 0 0 0 1350
2019/07/21 07:40:00 BASE 4.44 231 6.02 220 -5.5 100 -5.5 0 0 980.9 NA 0.0000 BR 4900 0 0 0 1350
2019/07/21 07:41:00 BASE 4.09 231 6.02 220 -5.5 100 -5.5 0 0 980.9 NA 0.0000 BR 5000 0 0 0 1380
2019/07/21 07:42:00 BASE 3.95 231 6.02 220 -5.5 100 -5.5 0 0 980.9 NA 0.0000 BR 6000 0 0 0 1380
2019/07/21 07:43:00 BASE 3.55 231 6.02 220 -5.5 100 -5.5 0 0 980.9 NA 0.0000 BR 7000 0 0 0 1380
2019/07/21 07:44:00 BASE 3.34 224 5.81 227 -5.5 100 -5.5 0 0 980.9 NA 0.0000 BR 7000 200 0 0 0
2019/07/21 07:45:00 BASE 3.39 226 5.81 227 -5.5 100 -5.5 0 0 980.9 NA 0.0000 BR 7000 230 0 0 0
2019/07/21 07:46:00 BASE 3.62 230 5.81 227 -5.6 100 -5.6 0 0 980.9 NA 0.0000 BR 8000 260 0 0 0
2019/07/21 07:47:00 BASE 3.71 224 5.81 227 -5.6 100 -5.6 0 0 980.9 NA 0.0000 BR 9999 260 0 0 0
2019/07/21 07:48:00 BASE 3.34 227 5.09 235 -5.6 100 -5.6 0 0 980.9 NA 0.0000 BR 9999 260 0 0 0
2019/07/21 07:49:00 BASE 3.24 237 4.68 226 -5.6 100 -5.6 0 0 980.9 NA 0.0000 BR 9999 260 0 0 0
2019/07/21 07:50:00 BASE 2.86 236 4.48 228 -5.6 100 -5.6 0 0 980.9 NA 0.0000 BR 9999 260 0 0 0
2019/07/21 07:51:00 BASE 2.61 236 4.27 227 -5.6 100 -5.6 0 0 980.9 NA 0.0000 BR 9999 300 0 0 0
2019/07/21 07:52:00 BASE 2.64 238 4.27 227 -5.7 100 -5.7 0 0 980.9 NA 0.0000 BR 9999 300 0 0 0
2019/07/21 07:53:00 BASE 2.41 235 4.27 227 -5.7 100 -5.7 0 0 981.0 NA 0.0000 9999 300 0 0 0
2019/07/21 07:54:00 BASE 2.53 232 4.27 227 -5.7 100 -5.7 0 0 981.0 NA 0.0000 9999 300 0 0 0
2019/07/21 07:55:00 BASE 2.85 232 4.27 227 -5.7 100 -5.7 0 0 981.0 NA 0.0000 7000 300 0 0 0
2019/07/21 07:56:00 BASE 2.70 234 3.91 250 -5.7 100 -5.7 0 0 981.0 NA 0.0000 9999 360 0 0 0
2019/07/21 07:57:00 BASE 2.77 220 3.91 250 -5.7 100 -5.7 0 0 981.0 NA 0.0000 9000 360 0 0 0
2019/07/21 07:58:00 BASE 3.13 205 3.91 250 -5.7 100 -5.7 0 0 981.0 NA 0.0000 5000 260 0 0 0
2019/07/21 07:59:00 BASE 3.51 194 4.63 178 -5.7 100 -5.7 0 0 981.0 NA 0.0000 BR 5000 260 0 0 0
2019/07/21 08:00:00 BASE 3.68 185 4.63 178 -5.7 100 -5.7 0 0 981.0 NA 0.0000 BR 4600 230 0 0 0
2019/07/21 08:01:00 BASE 3.50 182 4.63 178 -5.7 100 -5.7 0 0 981.0 NA 0.0000 BR 4800 260 0 0 0
2019/07/21 08:02:00 BASE 3.66 178 4.63 178 -5.7 100 -5.7 0 0 981.0 NA 0.0000 BR 7000 360 0 0 0
2019/07/21 08:03:00 BASE 3.97 176 4.63 178 -5.8 100 -5.8 0 0 981.0 NA 0.0000 BR 9999 490 0 0 0
2019/07/21 08:04:00 BASE 4.11 179 4.68 187 -5.8 100 -5.8 0 0 981.0 NA 0.0000 BR 9999 390 0 0 0
2019/07/21 08:05:00 BASE 3.90 182 4.68 187 -5.8 100 -5.8 0 0 981.0 NA 0.0000 BR 9999 520 0 0 0
2019/07/21 08:06:00 BASE 3.59 187 4.68 187 -5.8 100 -5.8 0 0 981.0 NA 0.0000 BR 9999 620 0 0 0
2019/07/21 08:07:00 BASE 3.01 199 4.68 187 -5.8 100 -5.8 0 0 981.0 NA 0.0000 BR 9999 660 0 0 0
2019/07/21 08:08:00 BASE 2.93 207 4.68 187 -5.8 100 -5.8 0 0 981.0 NA 0.0000 BR 9999 590 0 0 0
2019/07/21 08:09:00 BASE 3.30 211 4.68 187 -5.8 100 -5.8 0 0 981.0 NA 0.0000 BR 9999 620 0 0 0
2019/07/21 08:10:00 BASE 2.96 214 4.68 187 -5.8 100 -5.8 0 0 981.0 NA 0.0000 9999 490 0 0 0
2019/07/21 08:11:00 BASE 2.52 218 4.68 187 -5.8 100 -5.8 0 0 981.0 NA 0.0000 9999 590 0 0 0
2019/07/21 08:12:00 BASE 2.12 224 4.68 187 -5.8 100 -5.8 0 0 981.0 NA 0.0000 9999 590 0 0 0
2019/07/21 08:13:00 BASE 1.58 235 4.68 187 -5.8 100 -5.8 0 0 981.0 NA 0.0000 9999 750 0 0 0
2019/07/21 08:14:00 BASE 1.45 240 4.12 184 -5.8 100 -5.8 0 0 981.0 NA 0.0000 9999 590 0 0 0
2019/07/21 08:15:00 BASE 1.17 233 4.12 184 -5.8 100 -5.8 0 0 981.0 NA 0.0000 9999 890 1840 0 0
2019/07/21 08:16:00 BASE 0.47 230 3.70 222 -5.8 100 -5.8 0 0 981.0 NA 0.0000 9999 920 0 0 0
2019/07/21 08:17:00 BASE 0.09 233 3.70 222 -5.8 100 -5.8 0 0 981.0 NA 0.0000 9999 750 0 0 0
2019/07/21 08:18:00 BASE 0.05 241 3.70 222 -5.8 100 -5.8 0 0 981.0 NA 0.0000 9999 820 0 0 0
2019/07/21 08:19:00 BASE 0.00 248 3.24 221 -5.8 100 -5.8 0 0 981.0 NA 0.0000 9999 850 0 0 0
2019/07/21 08:20:00 BASE 0.00 248 2.73 214 -5.8 100 -5.8 0 0 981.0 NA 0.0000 9999 820 0 0 0
2019/07/21 08:21:00 BASE 0.00 224 2.21 223 -5.8 100 -5.8 0 0 981.0 NA 0.0000 9999 820 0 0 0
2019/07/21 08:22:00 BASE 0.00 200 1.65 241 -5.8 100 -5.8 0 0 981.0 NA 0.0000 9999 790 0 0 0
2019/07/21 08:23:00 BASE 0.00 196 1.65 241 -5.8 100 -5.8 0 0 981.0 NA 0.0000 9999 850 0 0 0
2019/07/21 08:24:00 BASE 0.00 195 1.18 230 -5.8 100 -5.8 0 0 981.0 NA 0.0000 9999 820 0 0 0
2019/07/21 08:25:00 BASE 0.00 206 1.08 231 -5.8 100 -5.8 0 0 981.0 NA 0.0000 9999 790 0 0 0
2019/07/21 08:26:00 BASE 0.05 212 1.29 216 -5.8 100 -5.8 0 0 981.0 NA 0.0000 9999 660 0 0 0
2019/07/21 08:27:00 BASE 0.91 210 2.31 208 -5.8 100 -5.8 0 0 981.0 NA 0.0000 9999 690 0 0 0
2019/07/21 08:28:00 BASE 1.76 215 2.57 230 -5.8 100 -5.8 0 0 981.0 NA 0.0000 9999 460 0 0 0
2019/07/21 08:29:00 BASE 2.24 221 2.93 215 -5.8 100 -5.8 0 0 981.0 NA 0.0000 9999 460 0 0 0
2019/07/21 08:30:00 BASE 2.95 216 3.55 220 -5.8 100 -5.8 0 0 981.0 NA 0.0000 9999 460 0 0 0
2019/07/21 08:31:00 BASE 3.32 204 4.37 202 -5.7 100 -5.7 0 0 981.0 NA 0.0000 9999 390 0 0 0
2019/07/21 08:32:00 BASE 3.77 202 4.58 205 -5.7 100 -5.7 0 0 981.0 NA 0.0000 9999 390 0 0 0
2019/07/21 08:33:00 BASE 3.86 209 4.58 205 -5.7 100 -5.7 0 0 981.0 NA 0.0000 9999 360 0 0 0
2019/07/21 08:34:00 BASE 3.81 216 4.78 217 -5.7 100 -5.7 0 0 981.0 NA 0.0000 9999 330 0 0 0
2019/07/21 08:35:00 BASE 3.78 218 4.78 217 -5.8 100 -5.8 0 0 981.0 NA 0.0000 9999 330 0 0 0
2019/07/21 08:36:00 BASE 3.73 218 4.78 217 -5.8 100 -5.8 0 0 981.0 NA 0.0000 9999 300 0 0 0
2019/07/21 08:37:00 BASE 4.74 224 5.86 230 -5.8 100 -5.8 0 0 981.0 NA 0.0000 9999 230 0 0 0
2019/07/21 08:38:00 BASE 5.24 228 5.86 230 -5.8 100 -5.8 0 0 981.0 NA 0.0000 9999 230 0 0 0
2019/07/21 08:39:00 BASE 5.08 228 5.86 230 -5.7 100 -5.7 0 0 981.0 NA 0.0000 9999 200 0 0 0
2019/07/21 08:40:00 BASE 5.22 226 5.92 220 -5.8 100 -5.8 0 0 981.0 NA 0.0000 9999 230 0 0 0
2019/07/21 08:41:00 BASE 5.03 226 5.92 220 -5.8 100 -5.8 0 0 981.0 NA 0.0000 9999 260 0 0 0
2019/07/21 08:42:00 BASE 4.57 224 5.92 220 -5.8 100 -5.8 0 0 981.0 NA 0.0000 9999 300 0 0 0
2019/07/21 08:43:00 BASE 4.18 221 5.92 220 -5.8 100 -5.8 0 0 981.0 NA 0.0000 9999 390 0 0 0
2019/07/21 08:44:00 BASE 4.15 219 5.92 220 -5.8 100 -5.8 0 0 981.0 NA 0.0000 9999 300 0 0 0
2019/07/21 08:45:00 BASE 4.08 221 5.92 220 -5.8 100 -5.8 0 0 981.0 NA 0.0000 9999 230 0 0 0
2019/07/21 08:46:00 BASE 3.67 226 5.92 220 -5.8 100 -5.8 0 0 981.0 NA 0.0000 9999 230 0 0 0
2019/07/21 08:47:00 BASE 3.59 225 5.92 220 -5.8 100 -5.8 0 0 981.0 NA 0.0000 9999 260 0 0 0
2019/07/21 08:48:00 BASE 3.66 232 5.92 220 -5.9 100 -5.9 0 0 981.0 NA 0.0000 9999 260 0 0 0
2019/07/21 08:49:00 BASE 3.36 235 5.92 220 -5.9 100 -5.9 0 0 981.0 NA 0.0000 9999 520 0 0 0
2019/07/21 08:50:00 BASE 3.54 228 5.25 223 -5.9 100 -5.9 0 0 981.0 NA 0.0000 9999 490 0 0 0
2019/07/21 08:51:00 BASE 4.26 224 5.04 220 -5.9 100 -5.9 0 0 981.0 NA 0.0000 9999 390 0 0 0
2019/07/21 08:52:00 BASE 4.17 219 5.04 220 -5.9 100 -5.9 0 0 981.0 NA 0.0000 9999 360 0 0 0
2019/07/21 08:53:00 BASE 3.73 219 5.04 220 -5.8 100 -5.8 0 0 981.0 NA 0.0000 9999 330 0 0 0
2019/07/21 08:54:00 BASE 3.46 220 5.04 220 -5.8 100 -5.8 0 0 981.0 NA 0.0000 9999 430 0 0 0
2019/07/21 08:55:00 BASE 3.00 216 5.04 220 -5.8 100 -5.8 0 0 981.0 NA 0.0000 9999 490 0 0 0
2019/07/21 08:56:00 BASE 2.91 212 5.04 220 -5.8 100 -5.8 0 0 981.0 NA 0.0000 9999 360 0 0 0
2019/07/21 08:57:00 BASE 2.67 209 5.04 220 -5.8 100 -5.8 0 0 981.0 NA 0.0000 9999 560 0 0 0
2019/07/21 08:58:00 BASE 2.29 213 5.04 220 -5.8 100 -5.8 0 0 981.0 NA 0.0000 9999 660 0 0 0
2019/07/21 08:59:00 BASE 2.20 226 5.04 220 -5.8 100 -5.8 0 0 981.0 NA 0.0000 9999 620 0 0 0
2019/07/21 09:00:00 BASE 2.31 235 5.04 220 -5.8 100 -5.8 0 0 981.0 NA 0.0000 9999 660 0 0 0
2019/07/21 09:01:00 BASE 2.76 238 4.48 224 -5.8 100 -5.8 0 0 981.0 NA 0.0000 9999 560 0 0 0
2019/07/21 09:02:00 BASE 2.99 246 4.06 209 -5.8 100 -5.8 0 0 981.0 NA 0.0000 9999 490 0 0 0
2019/07/21 09:03:00 BASE 3.20 250 4.06 209 -5.8 100 -5.8 0 0 981.0 NA 0.0000 9999 430 0 0 0
2019/07/21 09:04:00 BASE 3.59 248 4.06 209 -5.8 100 -5.8 0 0 981.0 NA 0.0000 9999 490 0 0 0
2019/07/21 09:05:00 BASE 3.47 244 4.01 249 -5.8 100 -5.8 0 0 981.0 NA 0.0000 9999 490 0 0 0
2019/07/21 09:06:00 BASE 2.96 230 4.01 249 -5.8 100 -5.8 0 0 981.0 NA 0.0000 9999 390 0 0 0
2019/07/21 09:07:00 BASE 2.72 208 4.01 249 -5.8 100 -5.8 0 0 981.0 NA 0.0000 9999 390 0 0 0
2019/07/21 09:08:00 BASE 2.64 196 4.01 249 -5.9 100 -5.9 0 0 981.0 NA 0.0000 9999 430 0 0 0
2019/07/21 09:09:00 BASE 2.23 188 4.01 249 -5.9 100 -5.9 0 0 981.0 NA 0.0000 9000 300 0 0 0
2019/07/21 09:10:00 BASE 1.18 181 4.01 249 -5.9 100 -5.9 0 0 981.0 NA 0.0000 3900 0 0 0 1280
2019/07/21 09:11:00 BASE 0.46 173 4.01 249 -5.9 100 -5.9 0 0 981.0 NA 0.0000 BR 3600 230 0 0 0
2019/07/21 09:12:00 BASE 0.73 159 4.01 249 -5.9 100 -5.9 0 0 981.0 NA 0.0000 BR 5000 300 0 0 0
2019/07/21 09:13:00 BASE 0.86 147 4.01 249 -5.9 100 -5.9 0 0 981.0 NA 0.0000 BR 6000 330 0 0 0
2019/07/21 09:14:00 BASE 0.36 147 3.76 247 -5.9 100 -5.9 0 0 981.0 NA 0.0000 BR 9000 330 0 0 0
2019/07/21 09:15:00 BASE 0.09 174 3.50 242 -5.9 100 -5.9 0 0 981.0 NA 0.0000 BR 9999 330 0 0 0
2019/07/21 09:16:00 BASE 0.14 178 2.88 195 -5.9 100 -5.9 0 0 981.0 NA 0.0000 BR 9999 300 0 0 0
2019/07/21 09:17:00 BASE 0.81 141 2.78 192 -5.9 100 -5.9 0 0 981.0 NA 0.0000 BR 9000 360 0 0 0
2019/07/21 09:18:00 BASE 1.40 134 2.21 180 -5.9 100 -5.9 0 0 980.9 NA 0.0000 BR 9999 490 0 0 0
2019/07/21 09:19:00 BASE 1.26 143 1.90 133 -5.9 100 -5.9 0 0 980.9 NA 0.0000 BR 9999 490 0 0 0
2019/07/21 09:20:00 BASE 1.65 144 2.78 152 -5.9 100 -5.9 0 0 980.9 NA 0.0000 BR 9999 590 0 0 0
2019/07/21 09:21:00 BASE 1.93 140 2.78 152 -5.9 100 -5.9 0 0 980.9 NA 0.0000 BR 9999 590 0 0 0
2019/07/21 09:22:00 BASE 1.59 144 2.78 152 -5.9 100 -5.9 0 0 980.9 NA 0.0000 9999 720 0 0 0
2019/07/21 09:23:00 BASE 0.93 145 2.78 152 -5.9 100 -5.9 0 0 980.9 NA 0.0000 9999 490 0 0 0
2019/07/21 09:24:00 BASE 0.74 132 2.78 152 -5.9 100 -5.9 0 0 980.9 NA 0.0000 9999 390 0 0 0
2019/07/21 09:25:00 BASE 0.51 139 2.78 152 -5.9 100 -5.9 0 0 980.9 NA 0.0000 9999 390 0 0 0
2019/07/21 09:26:00 BASE 0.00 126 2.78 152 -5.9 100 -5.9 0 0 980.9 NA 0.0000 9999 490 0 0 0
2019/07/21 09:27:00 BASE 0.00 103 2.78 152 -5.9 100 -5.9 0 0 980.9 NA 0.0000 9999 590 0 0 0
2019/07/21 09:28:00 BASE 0.23 126 2.78 152 -5.9 100 -5.9 0 0 980.9 NA 0.0000 9999 590 0 0 0
2019/07/21 09:29:00 BASE 0.23 136 2.78 152 -5.9 100 -5.9 0 0 980.9 NA 0.0000 9999 590 0 0 0
2019/07/21 09:30:00 BASE 0.00 106 2.01 130 -5.9 100 -5.9 0 0 980.9 NA 0.0000 9999 620 0 0 0
2019/07/21 09:31:00 BASE 0.05 86 1.65 149 -5.9 100 -5.9 0 0 980.9 NA 0.0000 9999 660 0 0 0
2019/07/21 09:32:00 BASE 0.05 101 1.44 103 -5.9 100 -5.9 0 0 980.9 NA 0.0000 9999 720 0 0 0
2019/07/21 09:33:00 BASE 0.00 115 1.44 103 -5.9 100 -5.9 0 0 980.9 NA 0.0000 9999 690 0 0 0
2019/07/21 09:34:00 BASE 0.00 117 1.18 118 -5.9 100 -5.9 0 0 980.9 NA 0.0000 9999 720 0 0 0
2019/07/21 09:35:00 BASE 0.00 106 1.18 118 -6.0 100 -6.0 0 0 980.9 NA 0.0000 9999 750 0 0 0
2019/07/21 09:36:00 BASE 0.00 78 1.18 118 -6.0 100 -6.0 0 0 981.0 NA 0.0000 9999 690 0 0 0
2019/07/21 09:37:00 BASE 0.00 48 1.18 118 -5.9 100 -5.9 0 0 981.0 NA 0.0000 9999 490 0 0 0
2019/07/21 09:38:00 BASE 0.00 31 1.08 105 -5.9 100 -5.9 0 0 981.0 NA 0.0000 9999 390 0 0 0
2019/07/21 09:39:00 BASE 0.00 26 1.08 105 -5.9 100 -5.9 0 0 981.0 NA 0.0000 9999 360 0 0 0
2019/07/21 09:40:00 BASE 0.25 32 1.34 45 -5.9 100 -5.9 0 0 981.0 NA 0.0000 9999 390 0 0 0
2019/07/21 09:41:00 BASE 0.40 40 1.34 45 -5.9 100 -5.9 0 0 981.0 NA 0.0000 9999 360 0 0 0
2019/07/21 09:42:00 BASE 0.14 44 1.34 45 -5.9 100 -5.9 0 0 981.0 NA 0.0000 9999 430 0 0 0
2019/07/21 09:43:00 BASE 0.00 57 1.34 45 -5.9 100 -5.9 0 0 981.0 NA 0.0000 9999 430 0 0 0
2019/07/21 09:44:00 BASE 0.00 64 1.34 45 -5.9 100 -5.9 0 0 981.0 NA 0.0000 9999 490 0 0 0
2019/07/21 09:45:00 BASE 0.91 54 2.78 44 -5.9 100 -5.9 0 0 981.0 NA 0.0000 9999 560 0 0 0
2019/07/21 09:46:00 BASE 2.25 55 2.93 61 -5.9 100 -5.9 0 0 981.0 NA 0.0000 9999 430 0 0 0
2019/07/21 09:47:00 BASE 3.01 51 3.81 35 -5.9 100 -5.9 0 0 980.9 NA 0.0000 9999 520 0 0 0
2019/07/21 09:48:00 BASE 3.20 38 3.81 35 -6.0 100 -6.0 0 0 980.9 NA 0.0000 9999 460 1280 0 0
2019/07/21 09:49:00 BASE 2.76 39 3.81 35 -6.0 100 -6.0 0 0 981.0 NA 0.0000 9999 430 0 0 0
2019/07/21 09:50:00 BASE 2.20 44 3.81 35 -6.1 100 -6.1 0 0 981.0 NA 0.0000 9999 430 1310 0 0
2019/07/21 09:51:00 BASE 1.65 47 3.81 35 -6.1 100 -6.1 0 0 981.0 NA 0.0000 9999 390 0 0 0
2019/07/21 09:52:00 BASE 1.03 40 3.81 35 -6.1 100 -6.1 0 0 981.0 NA 0.0000 9999 430 0 0 0
2019/07/21 09:53:00 BASE 0.62 39 3.81 35 -6.1 100 -6.1 0 0 981.0 NA 0.0000 9999 390 0 0 0
2019/07/21 09:54:00 BASE 1.00 52 3.81 35 -6.1 100 -6.1 0 0 981.0 NA 0.0000 9999 430 0 0 0
2019/07/21 09:55:00 BASE 1.06 56 3.81 35 -6.1 100 -6.1 0 0 981.0 NA 0.0000 9999 430 0 0 0
2019/07/21 09:56:00 BASE 0.58 50 3.81 35 -6.1 100 -6.1 0 0 981.0 NA 0.0000 9999 430 1670 0 0
2019/07/21 09:57:00 BASE 0.61 51 3.45 36 -6.1 100 -6.1 0 0 981.0 NA 0.0000 9999 460 1640 0 0
2019/07/21 09:58:00 BASE 0.47 59 3.19 34 -6.1 100 -6.1 0 0 981.0 NA 0.0000 9999 460 0 0 0
2019/07/21 09:59:00 BASE 0.13 86 2.11 43 -6.2 100 -6.2 0 0 981.0 NA 0.0000 9999 460 0 0 0
2019/07/21 10:00:00 BASE 0.00 120 1.85 59 -6.2 100 -6.2 0 0 981.0 NA 0.0000 9999 460 0 0 0
2019/07/21 10:01:00 BASE 0.00 132 1.85 59 -6.2 100 -6.2 0 0 981.0 NA 0.0000 9999 460 0 0 0
2019/07/21 10:02:00 BASE 0.00 141 1.85 59 -6.3 100 -6.3 0 0 981.0 NA 0.0000 9999 430 0 0 0
2019/07/21 10:03:00 BASE 0.00 132 1.85 59 -6.3 100 -6.3 0 0 981.0 NA 0.0000 9999 430 0 0 0
2019/07/21 10:04:00 BASE 0.10 60 1.59 52 -6.4 100 -6.4 0 0 981.0 NA 0.0000 9999 460 0 0 0
2019/07/21 10:05:00 BASE 0.55 11 1.65 3 -6.4 100 -6.4 0 0 981.0 NA 0.0000 9999 460 0 0 0
2019/07/21 10:06:00 BASE 0.50 25 1.65 3 -6.4 100 -6.4 0 0 981.0 NA 0.0000 9999 460 0 0 0
2019/07/21 10:07:00 BASE 0.05 29 1.65 3 -6.4 100 -6.4 0 0 981.0 NA 0.0000 9999 460 0 0 0
2019/07/21 10:08:00 BASE 0.00 24 1.65 3 -6.4 100 -6.4 0 0 981.0 NA 0.0000 9999 390 0 0 0
2019/07/21 10:09:00 BASE 0.00 18 1.65 3 -6.3 100 -6.3 0 0 981.0 NA 0.0000 9999 330 0 0 0
2019/07/21 10:10:00 BASE 0.00 26 1.65 3 -6.4 100 -6.4 0 0 981.0 NA 0.0000 9999 330 0 0 0
2019/07/21 10:11:00 BASE 0.00 80 1.65 3 -6.4 100 -6.4 0 0 981.0 NA 0.0000 9999 360 0 0 0
2019/07/21 10:12:00 BASE 0.00 138 1.65 3 -6.3 100 -6.3 0 0 981.0 NA 0.0000 9999 330 0 0 0
2019/07/21 10:13:00 BASE 0.14 129 1.65 3 -6.4 100 -6.4 0 0 981.0 NA 0.0000 9999 330 0 0 0
2019/07/21 10:14:00 BASE 0.85 92 1.65 3 -6.4 100 -6.4 0 0 981.0 NA 0.0000 9999 330 0 0 0
2019/07/21 10:15:00 BASE 1.62 69 2.52 65 -6.4 100 -6.4 0 0 981.0 NA 0.0000 9999 330 0 0 0
2019/07/21 10:16:00 BASE 2.01 62 2.52 64 -6.4 100 -6.4 0 0 981.0 NA 0.0000 9999 330 0 0 0
2019/07/21 10:17:00 BASE 2.10 59 2.52 64 -6.4 100 -6.4 0 0 981.0 NA 0.0000 9999 360 0 0 0
2019/07/21 10:18:00 BASE 2.04 52 2.52 64 -6.3 100 -6.3 0 0 981.0 NA 0.0000 9999 360 0 0 0
2019/07/21 10:19:00 BASE 2.18 50 2.52 64 -6.3 100 -6.3 0 0 981.0 NA 0.0000 9999 460 0 0 0
2019/07/21 10:20:00 BASE 2.27 50 2.52 49 -6.3 100 -6.3 0 0 981.0 NA 0.0000 9999 460 0 0 0
2019/07/21 10:21:00 BASE 2.05 52 2.52 49 -6.3 100 -6.3 0 0 981.0 NA 0.0000 9999 460 0 0 0
2019/07/21 10:22:00 BASE 2.09 58 2.68 60 -6.3 100 -6.3 0 0 981.0 NA 0.0000 9999 390 0 0 0
2019/07/21 10:23:00 BASE 2.22 57 2.68 60 -6.3 100 -6.3 0 0 981.0 NA 0.0000 9999 390 0 0 0
2019/07/21 10:24:00 BASE 2.15 57 2.68 60 -6.4 100 -6.4 0 0 981.0 NA 0.0000 9999 390 0 0 0
2019/07/21 10:25:00 BASE 2.27 60 2.68 60 -6.4 100 -6.4 0 0 981.0 NA 0.0000 9999 430 0 0 0
2019/07/21 10:26:00 BASE 2.11 64 2.68 60 -6.4 100 -6.4 0 0 981.0 NA 0.0000 9999 430 0 0 0
2019/07/21 10:27:00 BASE 1.94 73 2.68 60 -6.4 100 -6.4 0 0 981.0 NA 0.0000 9999 430 0 0 0
2019/07/21 10:28:00 BASE 1.94 80 2.68 60 -6.4 100 -6.4 0 0 981.0 NA 0.0000 9999 430 0 0 0
2019/07/21 10:29:00 BASE 1.89 78 2.68 60 -6.4 100 -6.4 0 0 981.0 NA 0.0000 9999 390 0 0 0
2019/07/21 10:30:00 BASE 2.01 68 2.68 60 -6.4 100 -6.4 0 0 981.0 NA 0.0000 9999 390 0 0 0
2019/07/21 10:31:00 BASE 2.17 56 2.68 60 -6.4 100 -6.4 0 0 981.0 NA 0.0000 9999 430 0 0 0
2019/07/21 10:32:00 BASE 2.07 58 2.62 57 -6.3 100 -6.3 0 0 981.0 NA 0.0000 9999 390 0 0 0
2019/07/21 10:33:00 BASE 1.92 63 2.62 57 -6.3 100 -6.3 0 0 981.0 NA 0.0000 9999 390 0 0 0
2019/07/21 10:34:00 BASE 1.71 64 2.57 59 -6.3 100 -6.3 0 0 981.0 NA 0.0000 9999 360 0 0 0
2019/07/21 10:35:00 BASE 1.75 67 2.52 46 -6.3 100 -6.3 0 0 981.0 NA 0.0000 9999 330 0 0 0
2019/07/21 10:36:00 BASE 1.86 65 2.52 46 -6.3 100 -6.3 0 0 981.0 NA 0.0000 9999 330 0 0 0
2019/07/21 10:37:00 BASE 1.76 54 2.52 46 -6.2 100 -6.2 0 0 981.0 NA 0.0000 9999 360 0 0 0
2019/07/21 10:38:00 BASE 1.48 45 2.52 46 -6.2 100 -6.2 0 0 981.0 NA 0.0000 9999 330 0 0 0
2019/07/21 10:39:00 BASE 1.37 23 2.52 46 -6.2 100 -6.2 0 0 981.0 NA 0.0000 9999 330 0 0 0
2019/07/21 10:40:00 BASE 1.49 14 2.52 46 -6.2 100 -6.2 0 0 981.0 NA 0.0000 9999 260 0 0 0
2019/07/21 10:41:00 BASE 1.58 21 2.21 75 -6.2 100 -6.2 0 0 981.0 NA 0.0000 9999 260 0 0 0
2019/07/21 10:42:00 BASE 1.87 15 2.42 6 -6.3 100 -6.3 0 0 981.0 NA 0.0000 9999 230 0 0 0
2019/07/21 10:43:00 BASE 1.83 8 2.42 8 -6.3 100 -6.3 0 0 981.0 NA 0.0000 9999 200 0 0 0
2019/07/21 10:44:00 BASE 1.61 14 2.42 8 -6.2 100 -6.2 0 0 981.0 NA 0.0000 9999 230 0 0 0
2019/07/21 10:45:00 BASE 1.71 21 2.42 8 -6.2 100 -6.2 0 0 980.9 NA 0.0000 9999 230 0 0 0
2019/07/21 10:46:00 BASE 2.27 26 3.04 36 -6.2 100 -6.2 0 0 980.9 NA 0.0000 9999 300 0 0 0
2019/07/21 10:47:00 BASE 2.79 33 3.55 39 -6.2 100 -6.2 0 0 980.9 NA 0.0000 9999 330 0 0 0
2019/07/21 10:48:00 BASE 3.01 33 3.55 39 -6.3 100 -6.3 0 0 980.9 NA 0.0000 9999 300 0 0 0
2019/07/21 10:49:00 BASE 3.11 31 3.70 25 -6.3 100 -6.3 0 0 980.9 NA 0.0000 9999 260 0 0 0
2019/07/21 10:50:00 BASE 3.15 30 3.70 25 -6.3 100 -6.3 0 0 980.9 NA 0.0000 9999 230 0 0 0
2019/07/21 10:51:00 BASE 3.25 35 3.76 34 -6.4 100 -6.4 0 0 980.9 NA 0.0000 9999 260 0 0 0
2019/07/21 10:52:00 BASE 3.09 37 3.76 34 -6.4 100 -6.4 0 0 980.9 NA 0.0000 9999 260 0 0 0
2019/07/21 10:53:00 BASE 3.02 33 3.76 34 -6.4 100 -6.4 0 0 980.9 NA 0.0000 9999 300 0 0 0
2019/07/21 10:54:00 BASE 3.09 31 3.76 34 -6.4 100 -6.4 0 0 980.9 NA 0.0000 9999 300 0 0 0
2019/07/21 10:55:00 BASE 3.05 30 3.76 34 -6.4 100 -6.4 0 0 980.9 NA 0.0000 9999 300 0 0 0
2019/07/21 10:56:00 BASE 3.19 30 3.76 34 -6.5 100 -6.5 0 0 980.9 NA 0.0000 9999 260 0 0 0
2019/07/21 10:57:00 BASE 3.13 19 3.76 34 -6.5 100 -6.5 0 0 980.9 NA 0.0000 9999 300 0 0 0
2019/07/21 10:58:00 BASE 2.95 10 3.76 34 -6.5 100 -6.5 0 0 980.9 NA 0.0000 9999 300 0 0 0
2019/07/21 10:59:00 BASE 2.92 16 3.76 34 -6.5 100 -6.5 0 0 980.9 NA 0.0000 9999 300 0 0 0
2019/07/21 11:00:00 BASE 2.92 18 3.76 34 -6.5 100 -6.5 0 0 980.9 NA 0.0000 9999 260 0 0 0
2019/07/21 11:01:00 BASE 2.84 16 3.65 30 -6.5 100 -6.5 0 0 980.9 NA 0.0000 9999 260 0 0 0
2019/07/21 11:02:00 BASE 2.83 24 3.76 23 -6.4 100 -6.4 0 0 980.9 NA 0.0000 9999 260 0 0 0
2019/07/21 11:03:00 BASE 2.88 28 3.76 23 -6.4 100 -6.4 0 0 980.9 NA 0.0000 9999 200 0 0 0
2019/07/21 11:04:00 BASE 3.04 26 3.76 23 -6.4 100 -6.4 0 0 980.9 NA 0.0000 9999 230 0 0 0
2019/07/21 11:05:00 BASE 3.33 28 3.81 37 -6.5 100 -6.5 0 0 980.9 NA 0.0000 9999 200 0 0 0
2019/07/21 11:06:00 BASE 3.36 27 3.81 37 -6.5 100 -6.5 0 0 980.8 NA 0.0000 9999 230 0 0 0
2019/07/21 11:07:00 BASE 3.52 26 4.22 25 -6.6 100 -6.6 0 0 980.8 NA 0.0000 9999 230 0 0 0
2019/07/21 11:08:00 BASE 3.89 28 4.48 31 -6.6 100 -6.6 0 0 980.8 NA 0.0000 9999 260 0 0 0
2019/07/21 11:09:00 BASE 3.87 27 4.48 31 -6.6 100 -6.6 0 0 980.8 NA 0.0000 9999 300 0 0 0
2019/07/21 11:10:00 BASE 3.89 26 4.58 32 -6.6 100 -6.6 0 0 980.8 NA 0.0000 9999 300 0 0 0
2019/07/21 11:11:00 BASE 3.99 30 4.68 25 -6.7 100 -6.7 0 0 980.8 NA 0.0000 9999 200 0 0 0
2019/07/21 11:12:00 BASE 3.62 33 4.68 25 -6.7 100 -6.7 0 0 980.8 NA 0.0000 9999 200 0 0 0
2019/07/21 11:13:00 BASE 3.29 35 4.68 25 -6.7 100 -6.7 0 0 980.8 NA 0.0000 9999 200 0 0 0
2019/07/21 11:14:00 BASE 3.39 31 4.68 25 -6.7 100 -6.7 0 0 980.8 NA 0.0000 9999 200 0 0 0
2019/07/21 11:15:00 BASE 3.14 30 4.68 25 -6.7 100 -6.7 0 0 980.8 NA 0.0000 9999 200 0 0 0
2019/07/21 11:16:00 BASE 2.70 30 4.68 25 -6.7 100 -6.7 0 0 980.8 NA 0.0000 9999 200 0 0 0
2019/07/21 11:17:00 BASE 2.68 33 4.68 25 -6.7 100 -6.7 0 0 980.8 NA 0.0000 9999 200 0 0 0
2019/07/21 11:18:00 BASE 2.91 37 4.68 25 -6.6 100 -6.6 0 0 980.8 NA 0.0000 9999 0 0 0 790
2019/07/21 11:19:00 BASE 3.05 43 4.68 25 -6.6 100 -6.6 0 0 980.8 NA 0.0000 9999 0 0 0 750
2019/07/21 11:20:00 BASE 2.86 47 4.68 25 -6.6 100 -6.6 0 0 980.8 NA 0.0000 9999 0 0 0 720
2019/07/21 11:21:00 BASE 2.79 44 4.06 20 -6.6 100 -6.6 0 0 980.8 NA 0.0000 9999 0 0 0 790
2019/07/21 11:22:00 BASE 2.80 42 3.91 34 -6.6 100 -6.6 0 0 980.8 NA 0.0000 9999 0 0 0 820
2019/07/21 11:23:00 BASE 2.53 45 3.91 34 -6.6 100 -6.6 0 0 980.8 NA 0.0000 8000 0 0 0 720
2019/07/21 11:24:00 BASE 2.51 46 3.76 36 -6.6 100 -6.6 0 0 980.8 NA 0.0000 6000 0 0 0 690
2019/07/21 11:25:00 BASE 2.80 44 3.45 37 -6.6 100 -6.6 0 0 980.8 NA 0.0000 7000 0 0 0 690
2019/07/21 11:26:00 BASE 2.81 45 3.45 37 -6.6 100 -6.6 0 0 980.9 NA 0.0000 BR 6000 0 0 0 690
2019/07/21 11:27:00 BASE 2.76 44 3.45 37 -6.6 100 -6.6 0 0 980.9 NA 0.0000 BR 4800 0 0 0 690
2019/07/21 11:28:00 BASE 2.81 44 3.34 37 -6.6 100 -6.6 0 0 980.9 NA 0.0000 BR 4900 0 0 0 690
2019/07/21 11:29:00 BASE 2.98 43 3.55 40 -6.6 100 -6.6 0 0 980.9 NA 0.0000 BR 5000 0 0 0 690
2019/07/21 11:30:00 BASE 3.04 40 3.55 40 -6.6 100 -6.6 0 0 980.9 NA 0.0000 BR 4100 0 0 0 720
2019/07/21 11:31:00 BASE 2.90 43 3.55 40 -6.6 100 -6.6 0 0 980.9 NA 0.0000 BR 3600 0 0 0 790
2019/07/21 11:32:00 BASE 2.86 47 3.55 40 -6.6 100 -6.6 0 0 980.9 NA 0.0000 BR 3200 0 0 0 790
2019/07/21 11:33:00 BASE 2.57 49 3.55 40 -6.7 100 -6.7 0 0 980.9 NA 0.0000 BR 3000 0 0 0 890
2019/07/21 11:34:00 BASE 2.53 46 3.55 40 -6.7 100 -6.7 0 0 980.9 NA 0.0000 BR 3200 0 0 0 750
2019/07/21 11:35:00 BASE 2.79 43 3.55 40 -6.7 100 -6.7 0 0 980.8 NA 0.0000 BR 4300 0 0 0 690
2019/07/21 11:36:00 BASE 2.90 46 3.76 44 -6.7 100 -6.7 0 0 980.8 NA 0.0000 BR 3700 0 0 0 720
2019/07/21 11:37:00 BASE 2.92 45 3.76 44 -6.7 100 -6.7 0 0 980.8 NA 0.0000 BR 2900 0 0 0 690
2019/07/21 11:38:00 BASE 2.88 42 3.76 44 -6.7 100 -6.7 0 0 980.9 NA 0.0000 BR 3200 0 0 0 690
2019/07/21 11:39:00 BASE 2.76 42 3.76 44 -6.7 100 -6.7 0 0 980.9 NA 0.0000 BR 3800 0 0 0 690
2019/07/21 11:40:00 BASE 2.38 44 3.76 44 -6.7 100 -6.7 0 0 980.9 NA 0.0000 BR 3500 0 0 0 660
2019/07/21 11:41:00 BASE 2.13 43 3.76 44 -6.7 100 -6.7 0 0 980.9 NA 0.0000 BR 2400 0 0 0 660
2019/07/21 11:42:00 BASE 2.19 37 3.76 44 -6.7 100 -6.7 0 0 980.9 NA 0.0000 BR 2800 0 0 0 660
2019/07/21 11:43:00 BASE 2.21 35 3.76 44 -6.7 100 -6.7 0 0 980.8 NA 0.0000 BR 4100 0 0 0 620
2019/07/21 11:44:00 BASE 2.16 33 3.76 44 -6.7 100 -6.7 0 0 980.9 NA 0.0000 BR 4100 0 0 0 660
2019/07/21 11:45:00 BASE 2.11 34 3.76 44 -6.7 100 -6.7 0 0 980.9 NA 0.0000 BR 4200 0 0 0 660
2019/07/21 11:46:00 BASE 2.04 39 3.45 45 -6.7 100 -6.7 0 0 980.9 NA 0.0000 BR 3400 0 0 0 620
2019/07/21 11:47:00 BASE 2.03 38 3.19 37 -6.7 100 -6.7 0 0 980.9 NA 0.0000 BR 2700 0 0 0 620
2019/07/21 11:48:00 BASE 1.92 34 2.93 40 -6.7 100 -6.7 0 0 980.9 NA 0.0000 BR 2700 0 0 0 590
2019/07/21 11:49:00 BASE 1.81 34 2.47 31 -6.7 100 -6.7 0 0 980.9 NA 0.0000 BR 3100 0 0 0 590
2019/07/21 11:50:00 BASE 1.80 31 2.47 31 -6.7 100 -6.7 0 0 980.9 NA 0.0000 BR 3800 0 0 0 560
2019/07/21 11:51:00 BASE 1.69 33 2.47 31 -6.7 100 -6.7 0 0 980.9 NA 0.0000 BR 3800 0 0 0 560
2019/07/21 11:52:00 BASE 1.64 40 2.47 31 -6.7 100 -6.7 0 0 980.9 NA 0.0000 BR 3400 0 0 0 560
2019/07/21 11:53:00 BASE 1.67 44 2.37 33 -6.7 100 -6.7 0 0 980.9 NA 0.0000 BR 2600 0 0 0 560
2019/07/21 11:54:00 BASE 1.56 47 2.31 44 -6.7 100 -6.7 0 0 980.9 NA 0.0000 BR 2000 0 0 0 560
2019/07/21 11:55:00 BASE 0.95 48 2.31 44 -6.7 100 -6.7 0 0 980.9 NA 0.0000 BR 1800 0 0 0 520
2019/07/21 11:56:00 BASE 0.49 42 2.21 35 -6.7 100 -6.7 0 0 980.9 NA 0.0000 BR 1500 0 0 0 560
2019/07/21 11:57:00 BASE 0.30 31 2.16 54 -6.7 100 -6.7 0 0 980.9 NA 0.0000 BR 1600 0 0 0 660
2019/07/21 11:58:00 BASE 0.05 30 2.16 54 -6.7 100 -6.7 0 0 980.8 NA 0.0000 BR 1700 0 0 0 590
2019/07/21 11:59:00 BASE 0.57 38 2.16 54 -6.7 100 -6.7 0 0 980.8 NA 0.0000 BR 1600 0 0 0 590
2019/07/21 12:00:00 BASE 1.13 43 2.16 54 -6.7 100 -6.7 0 0 980.8 NA 0.0000 BR 1500 0 0 0 590
2019/07/21 12:01:00 BASE 1.06 42 2.16 54 -6.7 100 -6.7 0 0 980.8 NA 0.0000 BR 1400 0 0 0 560
2019/07/21 12:02:00 BASE 1.45 44 2.21 39 -6.7 100 -6.7 0 0 980.8 NA 0.0000 BR 1500 0 0 0 560
2019/07/21 12:03:00 BASE 2.23 43 2.88 31 -6.7 100 -6.7 0 0 980.8 NA 0.0000 BR 1700 0 0 0 560
2019/07/21 12:04:00 BASE 2.49 37 2.88 31 -6.7 100 -6.7 0 0 980.8 NA 0.0000 BR 2400 0 0 0 560
2019/07/21 12:05:00 BASE 2.37 30 2.88 31 -6.7 100 -6.7 0 0 980.8 NA 0.0000 BR 3600 0 0 0 590
2019/07/21 12:06:00 BASE 2.20 23 2.88 31 -6.8 100 -6.8 0 0 980.8 NA 0.0000 BR 3600 0 0 0 590
2019/07/21 12:07:00 BASE 1.95 24 2.88 31 -6.8 100 -6.8 0 0 980.8 NA 0.0000 BR 3600 0 0 0 620
2019/07/21 12:08:00 BASE 1.58 34 2.88 31 -6.8 100 -6.8 0 0 980.9 NA 0.0000 BR 2900 0 0 0 620
2019/07/21 12:09:00 BASE 1.59 35 2.88 31 -6.8 100 -6.8 0 0 980.9 NA 0.0000 BR 2700 0 0 0 620
2019/07/21 12:10:00 BASE 1.85 35 2.88 31 -6.8 100 -6.8 0 0 980.9 NA 0.0000 BR 2400 0 0 0 620
2019/07/21 12:11:00 BASE 1.84 41 2.88 31 -6.8 100 -6.8 0 0 980.9 NA 0.0000 BR 2500 0 0 0 660
2019/07/21 12:12:00 BASE 1.91 41 2.88 31 -6.8 100 -6.8 0 0 980.9 NA 0.0000 BR 2400 0 0 0 690
2019/07/21 12:13:00 BASE 1.94 44 2.78 36 -6.8 100 -6.8 0 0 980.9 NA 0.0000 BR 3500 0 0 0 720
2019/07/21 12:14:00 BASE 1.82 57 2.62 28 -6.8 100 -6.8 0 0 980.9 NA 0.0000 BR 2500 0 0 0 720
2019/07/21 12:15:00 BASE 2.00 52 2.73 39 -6.8 100 -6.8 0 0 980.9 NA 0.0000 BR 2600 0 0 0 750
2019/07/21 12:16:00 BASE 2.13 44 2.73 39 -6.8 100 -6.8 0 0 980.9 NA 0.0000 BR 3700 0 0 0 750
2019/07/21 12:17:00 BASE 2.09 47 2.73 39 -6.8 100 -6.8 0 0 980.9 NA 0.0000 BR 3400 0 0 0 720
2019/07/21 12:18:00 BASE 2.21 40 2.73 39 -6.8 100 -6.8 0 0 980.9 NA 0.0000 BR 5000 0 0 0 720
2019/07/21 12:19:00 BASE 2.18 39 2.73 39 -6.8 100 -6.8 0 0 980.9 NA 0.0000 BR 6000 0 0 0 690
2019/07/21 12:20:00 BASE 2.11 43 2.73 39 -6.8 100 -6.8 0 0 980.9 NA 0.0000 BR 3700 0 0 0 690
2019/07/21 12:21:00 BASE 2.16 49 2.73 39 -6.8 100 -6.8 0 0 980.9 NA 0.0000 BR 2500 0 0 0 690
2019/07/21 12:22:00 BASE 2.07 55 2.73 39 -6.8 100 -6.8 0 0 980.9 NA 0.0000 BR 1800 0 0 0 660
2019/07/21 12:23:00 BASE 2.00 59 2.73 39 -6.8 100 -6.8 0 0 981.0 NA 0.0000 BR 1600 0 0 0 660
2019/07/21 12:24:00 BASE 2.29 66 2.73 39 -6.8 100 -6.8 0 0 981.0 NA 0.0000 BR 1800 0 0 0 660
2019/07/21 12:25:00 BASE 2.68 65 3.09 62 -6.8 100 -6.8 0 0 981.0 NA 0.0000 BR 2300 0 0 0 660
2019/07/21 12:26:00 BASE 2.70 63 3.09 62 -6.9 100 -6.9 0 0 981.0 NA 0.0000 BR 2400 0 0 0 660
2019/07/21 12:27:00 BASE 2.65 63 3.09 62 -6.9 100 -6.9 0 0 981.0 NA 0.0000 BR 2300 0 0 0 620
2019/07/21 12:28:00 BASE 2.55 59 3.09 62 -6.9 100 -6.9 0 0 981.0 NA 0.0000 BR 2100 0 0 0 620
2019/07/21 12:29:00 BASE 2.34 58 3.09 62 -6.9 100 -6.9 0 0 981.0 NA 0.0000 BR 1800 0 0 0 620
2019/07/21 12:30:00 BASE 2.21 57 3.09 62 -7.0 100 -7.0 0 0 980.9 NA 0.0000 BR 1600 0 0 0 620
2019/07/21 12:31:00 BASE 2.08 52 3.09 62 -7.0 100 -7.0 0 0 980.9 NA 0.0000 BR 1800 0 0 0 620
2019/07/21 12:32:00 BASE 2.06 46 3.09 62 -7.0 100 -7.0 0 0 980.9 NA 0.0000 BR 2000 0 0 0 660
2019/07/21 12:33:00 BASE 2.18 43 3.09 62 -7.0 100 -7.0 0 0 980.9 NA 0.0000 BR 2000 0 0 0 660
2019/07/21 12:34:00 BASE 2.38 42 3.09 62 -7.0 100 -7.0 0 0 980.9 NA 0.0000 BR 2700 0 0 0 660
2019/07/21 12:35:00 BASE 2.54 37 3.04 16 -7.0 100 -7.0 0 0 980.9 NA 0.0000 BR 4400 0 0 0 720
2019/07/21 12:36:00 BASE 2.76 35 3.40 30 -7.0 100 -7.0 0 0 980.9 NA 0.0000 BR 6000 0 0 0 690
2019/07/21 12:37:00 BASE 2.99 31 3.40 30 -7.0 100 -7.0 0 0 980.9 NA 0.0000 BR 9000 200 0 0 0
2019/07/21 12:38:00 BASE 3.03 28 3.40 30 -7.0 100 -7.0 0 0 980.9 NA 0.0000 BR 9999 0 0 0 590
2019/07/21 12:39:00 BASE 2.91 28 3.40 30 -7.0 100 -7.0 0 0 981.0 NA 0.0000 BR 9999 0 0 0 560
2019/07/21 12:40:00 BASE 2.83 25 3.40 30 -7.0 100 -7.0 0 0 981.0 NA 0.0000 BR 9999 160 0 0 0
2019/07/21 12:41:00 BASE 2.92 22 3.40 30 -7.1 100 -7.1 0 0 981.0 NA 0.0000 BR 9999 0 0 0 430
2019/07/21 12:42:00 BASE 3.18 21 3.55 19 -7.1 100 -7.1 0 0 981.0 NA 0.0000 BR 9999 0 0 0 460
2019/07/21 12:43:00 BASE 3.17 22 3.55 19 -7.1 100 -7.1 0 0 981.0 NA 0.0000 BR 9999 0 0 0 490
2019/07/21 12:44:00 BASE 2.91 24 3.55 19 -7.1 100 -7.1 0 0 981.0 NA 0.0000 9999 0 0 0 430
2019/07/21 12:45:00 BASE 2.77 23 3.55 19 -7.2 100 -7.2 0 0 981.0 NA 0.0000 9999 0 0 0 430
2019/07/21 12:46:00 BASE 2.35 23 3.55 19 -7.2 100 -7.2 0 0 981.0 NA 0.0000 9999 0 0 0 390
2019/07/21 12:47:00 BASE 2.13 24 3.55 19 -7.2 100 -7.2 0 0 981.0 NA 0.0000 9999 0 0 0 330
2019/07/21 12:48:00 BASE 2.34 20 3.55 19 -7.2 100 -7.2 0 0 981.0 NA 0.0000 9999 0 0 0 330
2019/07/21 12:49:00 BASE 2.23 11 3.55 19 -7.2 100 -7.2 0 0 981.0 NA 0.0000 9999 0 0 0 330
2019/07/21 12:50:00 BASE 2.03 4 3.55 19 -7.2 100 -7.2 0 0 981.1 NA 0.0000 9999 0 0 0 980
2019/07/21 12:51:00 BASE 1.93 8 3.55 19 -7.2 100 -7.2 0 0 981.2 NA 0.0000 9999 0 0 0 980
2019/07/21 12:52:00 BASE 1.85 10 3.40 22 -7.2 100 -7.2 0 0 981.2 NA 0.0000 9000 690 0 0 0
2019/07/21 12:53:00 BASE 1.89 14 3.40 22 -7.2 100 -7.2 0 0 981.2 NA 0.0000 9000 560 0 0 0
2019/07/21 12:54:00 BASE 1.98 16 2.88 26 -7.2 100 -7.2 0 0 981.2 NA 0.0000 9999 590 0 0 0
2019/07/21 12:55:00 BASE 2.30 17 2.98 26 -7.3 100 -7.3 0 0 981.2 NA 0.0000 9999 560 0 0 0
2019/07/21 12:56:00 BASE 2.57 21 2.98 26 -7.3 100 -7.3 0 0 981.2 NA 0.0000 9999 490 0 0 0
2019/07/21 12:57:00 BASE 2.57 23 2.98 26 -7.3 100 -7.3 0 0 981.2 NA 0.0000 9999 460 0 0 0
2019/07/21 12:58:00 BASE 2.51 24 2.98 26 -7.4 100 -7.4 1 0 981.2 NA 0.0000 9999 520 0 0 0
2019/07/21 12:59:00 BASE 2.33 28 2.98 26 -7.4 100 -7.4 1 0 981.2 NA 0.0000 9999 460 0 0 0
2019/07/21 13:00:00 BASE 2.10 28 2.98 26 -7.4 100 -7.4 1 0 981.2 NA 0.0000 9999 390 0 0 0
2019/07/21 13:01:00 BASE 2.01 23 2.98 26 -7.5 100 -7.5 1 0 981.2 NA 0.0000 9999 460 0 0 0
2019/07/21 13:02:00 BASE 2.01 25 2.98 26 -7.5 100 -7.5 1 0 981.2 NA 0.0000 9999 460 0 0 0
2019/07/21 13:03:00 BASE 2.09 27 2.98 26 -7.5 100 -7.5 1 0 981.2 NA 0.0000 9999 430 1250 0 0
2019/07/21 13:04:00 BASE 1.93 26 2.98 26 -7.4 100 -7.4 1 0 981.2 NA 0.0000 9999 430 0 0 0
2019/07/21 13:05:00 BASE 1.97 28 2.88 28 -7.4 100 -7.4 1 0 981.2 NA 0.0000 9999 430 1120 0 0
2019/07/21 13:06:00 BASE 2.42 28 2.78 15 -7.4 100 -7.4 1 0 981.2 NA 0.0000 9999 460 0 0 0
2019/07/21 13:07:00 BASE 2.30 30 2.73 30 -7.4 100 -7.4 1 0 981.2 NA 0.0000 9999 460 1610 0 0
2019/07/21 13:08:00 BASE 2.22 33 2.73 30 -7.4 100 -7.4 1 0 981.2 NA 0.0000 9999 520 0 0 0
2019/07/21 13:09:00 BASE 2.25 34 2.73 30 -7.4 100 -7.4 2 0 981.2 NA 0.0000 9999 620 0 0 0
2019/07/21 13:10:00 BASE 2.03 33 2.73 30 -7.4 100 -7.4 2 0 981.2 NA 0.0000 9999 590 0 0 0
2019/07/21 13:11:00 BASE 2.05 31 2.73 30 -7.4 100 -7.4 2 0 981.2 NA 0.0000 9999 590 0 0 0
2019/07/21 13:12:00 BASE 2.25 29 2.78 26 -7.4 100 -7.4 2 0 981.2 NA 0.0000 9999 490 0 0 0
2019/07/21 13:13:00 BASE 2.50 27 2.88 20 -7.4 100 -7.4 2 0 981.2 NA 0.0000 9999 490 920 0 0
2019/07/21 13:14:00 BASE 2.43 26 2.88 20 -7.4 100 -7.4 2 0 981.2 NA 0.0000 9999 490 950 0 0
2019/07/21 13:15:00 BASE 2.28 25 2.88 20 -7.3 100 -7.3 2 0 981.2 NA 0.0000 9999 520 1540 0 0
2019/07/21 13:16:00 BASE 2.33 27 2.88 20 -7.4 100 -7.4 2 0 981.2 NA 0.0000 9999 490 1480 0 0
2019/07/21 13:17:00 BASE 2.42 28 2.88 20 -7.4 100 -7.4 2 0 981.2 NA 0.0000 9999 490 920 0 0
2019/07/21 13:18:00 BASE 2.53 28 2.88 20 -7.4 100 -7.4 3 0 981.2 NA 0.0000 9999 490 890 0 0
2019/07/21 13:19:00 BASE 2.59 31 2.88 20 -7.4 100 -7.4 3 0 981.2 NA 0.0000 9999 520 920 0 0
2019/07/21 13:20:00 BASE 2.56 29 2.88 20 -7.4 100 -7.4 3 0 981.2 NA 0.0000 9999 560 0 0 0
2019/07/21 13:21:00 BASE 2.36 30 2.88 20 -7.4 100 -7.4 3 0 981.2 NA 0.0000 9999 520 950 0 0
2019/07/21 13:22:00 BASE 2.44 27 3.29 14 -7.3 100 -7.3 4 0 981.2 NA 0.0000 9999 560 0 0 0
2019/07/21 13:23:00 BASE 2.64 22 3.29 14 -7.3 100 -7.3 4 0 981.2 NA 0.0000 9999 620 0 0 0
2019/07/21 13:24:00 BASE 2.54 25 3.29 14 -7.3 100 -7.3 4 0 981.2 NA 0.0000 9999 660 0 0 0
2019/07/21 13:25:00 BASE 2.50 17 3.29 14 -7.3 100 -7.3 4 0 981.2 NA 0.0000 9999 660 0 0 0
2019/07/21 13:26:00 BASE 2.41 2 3.29 14 -7.3 100 -7.3 4 0 981.2 NA 0.0000 9999 720 0 0 0
2019/07/21 13:27:00 BASE 2.22 8 3.29 14 -7.3 100 -7.3 4 0 981.2 NA 0.0000 9999 750 1210 0 0
2019/07/21 13:28:00 BASE 2.27 18 3.29 14 -7.2 100 -7.2 4 0 981.2 NA 0.0000 9999 690 1280 0 0
2019/07/21 13:29:00 BASE 2.39 25 3.29 14 -7.2 100 -7.2 5 0 981.2 NA 0.0000 9999 690 1250 0 0
2019/07/21 13:30:00 BASE 2.50 25 3.29 14 -7.2 100 -7.2 5 0 981.2 NA 0.0000 9999 850 0 0 0
2019/07/21 13:31:00 BASE 2.74 19 3.29 14 -7.2 100 -7.2 5 0 981.2 NA 0.0000 9999 1280 0 0 0
2019/07/21 13:32:00 BASE 2.83 13 3.24 21 -7.2 100 -7.2 5 0 981.2 NA 0.0000 9999 1250 0 0 0
2019/07/21 13:33:00 BASE 2.97 15 3.40 16 -7.2 100 -7.2 5 0 981.2 NA 0.0000 9999 1250 0 0 0
2019/07/21 13:34:00 BASE 3.07 18 3.55 18 -7.2 100 -7.2 5 0 981.1 NA 0.0000 9999 1250 0 0 0
2019/07/21 13:35:00 BASE 2.93 18 3.55 18 -7.2 100 -7.2 5 0 981.0 NA 0.0000 9999 1210 0 0 0
2019/07/21 13:36:00 BASE 2.95 21 3.55 18 -7.2 100 -7.2 5 0 981.0 NA 0.0000 9999 1250 0 0 0
2019/07/21 13:37:00 BASE 2.83 26 3.55 18 -7.2 100 -7.2 6 0 981.0 NA 0.0000 9999 1350 0 0 0
2019/07/21 13:38:00 BASE 2.71 33 3.55 18 -7.2 100 -7.2 6 0 981.0 NA 0.0000 9999 1440 0 0 0
2019/07/21 13:39:00 BASE 2.92 30 3.55 18 -7.3 100 -7.3 6 0 981.0 NA 0.0000 9999 1480 0 0 0
2019/07/21 13:40:01 BASE 3.10 29 3.55 26 -7.3 100 -7.3 6 0 981.0 NA 0.0000 9999 1570 0 0 0
2019/07/21 13:41:01 BASE 3.14 31 3.55 26 -7.3 100 -7.3 6 0 981.0 NA 0.0000 9999 750 1510 0 0
2019/07/21 13:42:01 BASE 3.09 31 3.55 26 -7.3 100 -7.3 7 0 981.0 NA 0.0000 9999 720 1480 0 0
2019/07/21 13:43:01 BASE 3.00 26 3.91 29 -7.3 100 -7.3 7 0 981.0 NA 0.0000 9999 620 1440 0 0
2019/07/21 13:44:01 BASE 2.73 25 3.91 29 -7.3 100 -7.3 7 0 981.0 NA 0.0000 9999 560 1410 0 0
2019/07/21 13:45:01 BASE 2.52 23 3.91 29 -7.3 100 -7.3 7 0 981.0 NA 0.0000 9999 560 1440 0 0
2019/07/21 13:46:01 BASE 3.09 19 4.17 21 -7.3 100 -7.3 8 0 981.0 NA 0.0000 9999 520 1380 0 0
2019/07/21 13:47:01 BASE 3.37 17 4.17 21 -7.3 100 -7.3 8 0 981.0 NA 0.0000 9999 490 1410 0 0
2019/07/21 13:48:01 BASE 3.05 12 4.17 21 -7.3 100 -7.3 8 0 981.0 NA 0.0000 9999 660 1380 0 0
2019/07/21 13:49:01 BASE 3.14 13 4.17 21 -7.2 100 -7.2 9 0 981.0 NA 0.0000 9999 430 0 0 0
2019/07/21 13:50:01 BASE 2.91 21 4.17 21 -7.2 100 -7.2 9 0 981.0 NA 0.0000 9999 330 0 0 0
2019/07/21 13:51:01 BASE 2.78 30 4.17 21 -7.2 100 -7.2 9 0 981.0 NA 0.0000 9999 560 0 0 0
2019/07/21 13:52:01 BASE 3.28 32 4.17 21 -7.2 100 -7.2 10 0 981.0 NA 0.0000 9999 520 0 0 0
2019/07/21 13:53:01 BASE 3.79 27 4.58 18 -7.3 100 -7.3 10 0 981.0 NA 0.0000 9999 520 1770 0 0
2019/07/21 13:54:01 BASE 3.67 22 4.58 18 -7.3 100 -7.3 11 0 981.0 NA 0.0000 9999 430 0 0 0
2019/07/21 13:55:01 BASE 2.72 19 4.58 18 -7.3 100 -7.3 11 0 981.0 NA 0.0000 9999 230 0 0 0
2019/07/21 13:56:01 BASE 2.73 14 4.58 18 -7.2 100 -7.2 12 0 981.0 NA 0.0000 9999 330 0 0 0
2019/07/21 13:57:01 BASE 3.68 2 4.68 3 -7.2 100 -7.2 12 0 981.0 NA 0.0000 9999 360 0 0 0
2019/07/21 13:58:01 BASE 3.90 358 4.68 3 -7.1 100 -7.1 12 0 981.0 NA 0.0000 9999 360 0 0 0
2019/07/21 13:59:01 BASE 3.88 10 4.68 3 -7.0 100 -7.0 13 0 981.0 NA 0.0000 9999 230 0 0 0
2019/07/21 14:00:01 BASE 3.87 15 4.68 3 -7.0 100 -7.0 14 0 981.0 NA 0.0000 9999 260 0 0 0
2019/07/21 14:01:01 BASE 3.84 15 4.68 17 -6.9 100 -6.9 14 0 981.0 NA 0.0000 9999 330 0 0 0
2019/07/21 14:02:01 BASE 4.18 14 4.99 14 -6.9 100 -6.9 14 0 981.0 NA 0.0000 9999 460 1840 0 0
2019/07/21 14:03:01 BASE 4.40 14 4.99 14 -7.0 100 -7.0 14 0 981.0 NA 0.0000 9999 260 0 0 0
2019/07/21 14:04:01 BASE 4.39 17 4.99 14 -7.0 100 -7.0 15 0 981.0 NA 0.0000 9999 260 0 0 0
2019/07/21 14:05:01 BASE 4.39 20 4.99 14 -7.1 100 -7.1 15 0 980.9 NA 0.0000 9999 230 0 0 0
2019/07/21 14:06:01 BASE 4.23 23 4.99 14 -7.2 100 -7.2 15 0 980.9 NA 0.0000 9999 260 0 0 0
2019/07/21 14:07:01 BASE 4.16 26 4.99 14 -7.2 100 -7.2 15 0 980.9 NA 0.0000 9999 260 1870 0 0
2019/07/21 14:08:01 BASE 4.25 28 4.99 14 -7.3 100 -7.3 15 0 980.9 NA 0.0000 9999 360 1900 0 0
2019/07/21 14:09:01 BASE 4.20 32 4.99 14 -7.4 100 -7.4 15 0 980.9 NA 0.0000 9999 330 1870 0 0
2019/07/21 14:10:01 BASE 4.11 33 4.99 14 -7.4 100 -7.4 16 0 980.9 NA 0.0000 9999 1900 0 0 0
2019/07/21 14:11:01 BASE 4.03 31 4.99 14 -7.5 100 -7.5 16 0 980.9 NA 0.0000 9999 720 1840 0 0
2019/07/21 14:12:01 BASE 3.82 31 4.78 30 -7.6 100 -7.6 16 0 980.9 NA 0.0000 9999 590 1900 0 0
2019/07/21 14:13:01 BASE 3.78 26 4.78 30 -7.6 100 -7.6 16 0 980.8 NA 0.0000 9999 660 0 0 0
2019/07/21 14:14:01 BASE 3.83 26 4.78 30 -7.5 100 -7.5 16 0 980.8 NA 0.0000 9999 560 0 0 0
2019/07/21 14:15:01 BASE 3.65 28 4.78 30 -7.5 100 -7.5 16 0 980.8 NA 0.0000 9999 430 0 0 0
2019/07/21 14:16:01 BASE 3.52 15 4.78 30 -7.4 100 -7.4 16 0 980.8 NA 0.0000 9999 390 0 0 0
2019/07/21 14:17:01 BASE 3.37 355 4.73 24 -7.3 100 -7.3 16 0 980.8 NA 0.0000 9999 330 0 0 0
2019/07/21 14:18:01 BASE 3.10 358 4.73 24 -7.2 100 -7.2 16 0 980.8 NA 0.0000 9999 300 0 0 0
2019/07/21 14:19:01 BASE 3.34 13 4.73 24 -7.2 100 -7.2 17 0 980.8 NA 0.0000 9999 1840 0 0 0
2019/07/21 14:20:01 BASE 3.61 20 4.73 24 -7.2 100 -7.2 17 0 980.7 NA 0.0000 9999 1800 0 0 0
2019/07/21 14:21:01 BASE 3.40 23 4.22 4 -7.2 100 -7.2 17 0 980.7 NA 0.0000 9999 560 0 0 0
2019/07/21 14:22:01 BASE 3.33 29 4.22 4 -7.2 100 -7.2 17 0 980.7 NA 0.0000 9999 620 0 0 0
2019/07/21 14:23:01 BASE 3.64 38 4.22 43 -7.3 100 -7.3 17 0 980.7 NA 0.0000 9999 660 0 0 0
2019/07/21 14:24:01 BASE 3.80 38 4.22 43 -7.3 100 -7.3 17 0 980.7 NA 0.0000 9999 0 0 0 660
2019/07/21 14:25:01 BASE 3.80 33 4.27 34 -7.4 100 -7.4 17 0 980.7 NA 0.0000 9999 0 0 0 720
2019/07/21 14:26:01 BASE 3.96 30 4.68 21 -7.5 100 -7.5 18 0 980.7 NA 0.0000 9999 720 0 0 0
2019/07/21 14:27:01 BASE 3.98 28 4.68 21 -7.5 100 -7.5 18 0 980.7 NA 0.0000 9999 0 0 0 720
2019/07/21 14:28:01 BASE 3.87 31 4.68 37 -7.5 100 -7.5 19 0 980.8 NA 0.0000 9999 0 0 0 690
2019/07/21 14:29:01 BASE 3.70 33 4.68 37 -7.5 100 -7.5 20 0 980.8 NA 0.0000 9999 0 0 0 620
2019/07/21 14:30:01 BASE 3.68 27 4.68 37 -7.5 100 -7.5 20 0 980.8 NA 0.0000 9999 0 0 0 0
2019/07/21 14:31:01 BASE 3.40 18 4.68 37 -7.5 100 -7.5 21 0 980.9 NA 0.0000 9999 0 0 0 0
2019/07/21 14:32:01 BASE 3.71 13 4.68 37 -7.5 100 -7.5 22 0 980.9 NA 0.0000 9999 0 0 0 0
2019/07/21 14:33:01 BASE 4.19 11 4.68 37 -7.5 100 -7.5 22 0 980.9 NA 0.0000 9999 0 0 0 0
2019/07/21 14:34:01 BASE 3.77 13 4.68 37 -7.5 100 -7.5 23 0 980.9 NA 0.0000 9999 2000 0 0 0
2019/07/21 14:35:01 BASE 3.10 15 4.68 37 -7.4 100 -7.4 23 0 980.9 NA 0.0000 9999 790 2000 0 0
2019/07/21 14:36:01 BASE 3.05 12 4.68 37 -7.4 100 -7.4 23 0 980.9 NA 0.0000 9999 750 2030 0 0
2019/07/21 14:37:01 BASE 3.35 11 4.68 37 -7.4 100 -7.4 23 0 980.9 NA 0.0000 9999 850 2070 0 0
2019/07/21 14:38:01 BASE 3.24 12 4.48 8 -7.4 100 -7.4 23 0 980.9 NA 0.0000 9999 0 0 0 0
2019/07/21 14:39:01 BASE 3.10 15 4.48 8 -7.4 100 -7.4 23 0 980.9 NA 0.0000 9999 0 0 0 0
2019/07/21 14:40:01 BASE 2.98 19 4.48 8 -7.4 100 -7.4 23 0 980.9 NA 0.0000 9999 950 0 0 0
2019/07/21 14:41:01 BASE 2.99 16 4.48 8 -7.5 100 -7.5 23 0 980.9 NA 0.0000 9999 720 0 0 0
2019/07/21 14:42:01 BASE 3.15 9 4.48 8 -7.5 100 -7.5 22 0 980.9 NA 0.0000 9999 660 0 0 0
2019/07/21 14:43:01 BASE 3.30 8 4.22 2 -7.4 100 -7.4 22 0 980.9 NA 0.0000 9999 720 0 0 0
2019/07/21 14:44:01 BASE 3.56 11 4.22 2 -7.4 100 -7.4 22 0 980.9 NA 0.0000 9999 720 0 0 0
2019/07/21 14:45:01 BASE 3.71 13 4.22 2 -7.4 100 -7.4 21 0 980.9 NA 0.0000 9999 850 0 0 0
2019/07/21 14:46:01 BASE 3.43 18 4.22 2 -7.3 100 -7.3 21 0 980.9 NA 0.0000 9999 790 0 0 0
2019/07/21 14:47:01 BASE 3.25 16 4.78 2 -7.3 100 -7.3 21 0 980.9 NA 0.0000 9999 0 0 0 660
2019/07/21 14:48:01 BASE 3.55 7 4.78 353 -7.3 100 -7.3 21 0 980.9 NA 0.0000 9999 0 0 0 790
2019/07/21 14:49:01 BASE 3.61 1 4.78 353 -7.2 100 -7.2 21 0 981.0 NA 0.0000 9999 790 0 0 0
2019/07/21 14:50:01 BASE 3.48 360 4.78 353 -7.2 100 -7.2 22 0 981.0 NA 0.0000 9999 660 0 0 0
2019/07/21 14:51:01 BASE 3.65 357 4.78 353 -7.1 100 -7.1 22 0 981.0 NA 0.0000 9999 560 0 0 0
2019/07/21 14:52:01 BASE 3.77 0 4.78 353 -7.1 100 -7.1 22 0 981.0 NA 0.0000 9999 390 0 0 0
2019/07/21 14:53:01 BASE 3.75 4 4.78 353 -7.0 100 -7.0 23 0 981.0 NA 0.0000 9999 430 0 0 0
2019/07/21 14:54:01 BASE 3.70 1 4.78 353 -7.0 100 -7.0 23 0 981.0 NA 0.0000 9999 490 0 0 0
2019/07/21 14:55:01 BASE 3.71 351 4.78 353 -7.0 100 -7.0 23 0 981.0 NA 0.0000 9999 520 0 0 0
2019/07/21 14:56:01 BASE 3.71 342 4.78 353 -7.0 100 -7.0 23 0 981.0 NA 0.0000 9999 460 0 0 0
2019/07/21 14:57:01 BASE 3.68 342 4.78 353 -6.9 100 -6.9 24 0 981.0 NA 0.0000 9999 430 0 0 0
2019/07/21 14:58:01 BASE 3.49 348 4.12 331 -6.9 100 -6.9 25 0 981.0 NA 0.0000 9999 260 0 0 0
2019/07/21 14:59:01 BASE 3.20 354 4.12 331 -6.8 100 -6.8 24 0 981.0 NA 0.0000 9999 200 0 0 0
2019/07/21 15:00:01 BASE 3.28 354 4.12 331 -6.8 100 -6.8 24 0 981.0 NA 0.0000 9999 430 0 0 0
2019/07/21 15:01:01 BASE 3.54 354 4.12 331 -6.9 100 -6.9 24 0 981.0 NA 0.0000 9999 520 0 0 0
2019/07/21 15:02:01 BASE 3.34 359 4.12 331 -6.9 100 -6.9 24 0 981.0 NA 0.0000 9999 520 0 0 0
2019/07/21 15:03:01 BASE 3.39 0 4.12 2 -6.9 100 -6.9 24 0 981.0 NA 0.0000 9999 620 0 0 0
2019/07/21 15:04:01 BASE 3.61 0 4.12 2 -6.9 100 -6.9 24 0 981.0 NA 0.0000 9999 720 0 0 0
2019/07/21 15:05:01 BASE 3.36 11 4.12 2 -7.0 100 -7.0 24 0 981.0 NA 0.0000 9999 750 0 0 0
2019/07/21 15:06:01 BASE 3.44 19 4.12 2 -7.0 100 -7.0 25 0 981.0 NA 0.0000 9999 750 0 0 0
2019/07/21 15:07:01 BASE 3.54 20 4.12 2 -7.1 100 -7.1 25 0 981.0 NA 0.0000 9999 620 0 0 0
2019/07/21 15:08:01 BASE 3.32 27 4.12 2 -7.1 100 -7.1 26 0 981.0 NA 0.0000 9999 690 0 0 0
2019/07/21 15:09:01 BASE 3.15 32 4.12 2 -7.2 100 -7.2 27 0 981.0 NA 0.0000 9999 790 0 0 0
2019/07/21 15:10:01 BASE 3.35 32 4.12 2 -7.2 100 -7.2 28 0 981.0 NA 0.0000 9999 850 0 0 0
2019/07/21 15:11:01 BASE 3.57 24 4.12 2 -7.2 100 -7.2 29 0 981.0 NA 0.0000 9999 820 0 0 0
2019/07/21 15:12:01 BASE 3.53 20 4.12 2 -7.2 100 -7.2 29 0 981.0 NA 0.0000 9999 790 0 0 0
2019/07/21 15:13:01 BASE 3.62 23 4.06 16 -7.2 100 -7.2 30 0 981.0 NA 0.0000 9999 660 0 0 0
2019/07/21 15:14:01 BASE 3.70 24 4.06 16 -7.2 100 -7.2 30 0 981.0 NA 0.0000 9999 590 0 0 0
2019/07/21 15:15:01 BASE 3.78 24 4.17 19 -7.2 100 -7.2 29 0 981.0 NA 0.0000 9999 620 0 0 0
2019/07/21 15:16:01 BASE 3.81 26 4.22 23 -7.2 100 -7.2 29 0 981.0 NA 0.0000 9999 620 0 0 0
2019/07/21 15:17:00 BASE 4.01 25 4.53 24 -7.2 100 -7.2 29 0 981.0 NA 0.0000 9999 520 0 0 0
2019/07/21 15:18:01 BASE 4.16 20 4.68 16 -7.2 100 -7.2 29 0 981.0 NA 0.0000 9999 560 0 0 0
2019/07/21 15:19:01 BASE 3.97 19 4.68 16 -7.2 100 -7.2 29 0 981.0 NA 0.0000 9999 590 0 0 0
2019/07/21 15:20:01 BASE 3.83 19 4.68 16 -7.2 100 -7.2 30 0 981.0 NA 0.0000 9999 620 0 0 0
2019/07/21 15:21:01 BASE 4.19 15 4.99 2 -7.2 100 -7.2 30 0 981.0 NA 0.0000 9999 690 1180 0 0
2019/07/21 15:22:00 BASE 4.62 7 4.99 2 -7.2 100 -7.2 31 0 981.0 NA 0.0000 9999 620 0 0 0
2019/07/21 15:23:00 BASE 4.33 2 4.99 2 -7.2 100 -7.2 32 0 981.0 NA 0.0000 9999 620 0 0 0
2019/07/21 15:24:01 BASE 4.18 357 4.99 2 -7.1 100 -7.1 33 0 981.0 NA 0.0000 9999 560 0 0 0
2019/07/21 15:25:01 BASE 4.37 353 4.99 2 -7.1 100 -7.1 35 0 981.0 NA 0.0000 9999 390 5120 0 0
2019/07/21 15:26:01 BASE 4.25 354 4.99 2 -7.0 100 -7.0 38 0 981.0 NA 0.0000 9999 260 5090 0 0
2019/07/21 15:27:00 BASE 3.92 358 4.99 2 -7.0 100 -7.0 39 0 981.0 NA 0.0000 9999 260 0 0 0
2019/07/21 15:28:00 BASE 3.98 1 4.99 2 -6.9 100 -6.9 39 0 981.0 NA 0.0000 9999 330 0 0 0
2019/07/21 15:29:00 BASE 3.97 356 4.99 2 -6.9 100 -6.9 39 0 981.0 NA 0.0000 9999 300 0 0 0
2019/07/21 15:30:01 BASE 3.48 350 4.99 2 -6.9 100 -6.9 39 0 981.0 NA 0.0000 9999 430 0 0 0
2019/07/21 15:31:00 BASE 3.45 353 4.89 8 -6.9 100 -6.9 40 0 981.0 NA 0.0000 9999 430 0 0 0
2019/07/21 15:32:00 BASE 3.46 356 4.73 6 -6.9 100 -6.9 44 0 981.0 NA 0.0000 9999 0 0 0 490
2019/07/21 15:33:00 BASE 3.34 351 4.73 6 -7.0 100 -7.0 49 0 981.0 NA 0.0000 9999 5280 0 0 0
2019/07/21 15:34:00 BASE 3.17 352 4.73 6 -7.0 100 -7.0 55 0 981.0 NA 0.0000 9999 5320 0 0 0
2019/07/21 15:35:00 BASE 3.35 358 4.73 6 -7.0 100 -7.0 53 0 981.0 NA 0.0000 9999 430 5380 0 0
2019/07/21 15:36:00 BASE 3.76 356 4.73 6 -7.0 100 -7.0 55 0 981.0 NA 0.0000 9999 490 5280 0 0
2019/07/21 15:37:00 BASE 3.72 355 4.73 6 -7.0 100 -7.0 59 0 981.0 NA 0.0000 9999 490 5250 0 0
2019/07/21 15:38:01 BASE 3.54 359 4.37 354 -7.0 100 -7.0 61 0 981.0 NA 0.0000 9999 300 5220 0 0
2019/07/21 15:39:01 BASE 3.27 2 4.37 354 -7.0 100 -7.0 58 0 981.0 NA 0.0000 9999 230 0 0 0
2019/07/21 15:40:01 BASE 3.09 2 4.37 354 -7.0 100 -7.0 58 0 981.0 NA 0.0000 9999 430 5350 0 0
2019/07/21 15:41:01 BASE 2.88 2 4.37 354 -6.9 100 -6.9 59 0 981.0 NA 0.0000 9999 690 5180 0 0
2019/07/21 15:42:01 BASE 3.02 9 4.37 354 -6.9 100 -6.9 55 0 981.0 NA 0.0000 9999 5180 0 0 0
2019/07/21 15:43:01 BASE 3.61 22 4.37 354 -7.0 100 -7.0 51 0 981.0 NA 0.0000 9999 620 5180 0 0
2019/07/21 15:44:00 BASE 4.00 32 4.48 41 -7.0 100 -7.0 44 0 981.0 NA 0.0000 9999 590 5350 0 0
2019/07/21 15:45:00 BASE 3.98 35 4.73 41 -7.2 100 -7.2 41 0 981.0 NA 0.0000 9999 5280 0 0 0
2019/07/21 15:46:00 BASE 3.94 35 4.73 31 -7.3 100 -7.3 41 0 981.0 NA 0.0000 9999 720 5350 0 0
2019/07/21 15:47:00 BASE 4.15 35 4.73 31 -7.4 100 -7.4 41 0 981.0 NA 0.0000 9999 720 5380 0 0
2019/07/21 15:48:00 BASE 4.19 31 4.73 31 -7.5 100 -7.5 44 0 981.0 NA 0.0000 9999 5280 0 0 0
2019/07/21 15:49:00 BASE 4.15 23 4.78 16 -7.5 100 -7.5 52 0 980.9 NA 0.0000 9999 5320 0 0 0
2019/07/21 15:50:00 BASE 4.27 24 4.84 32 -7.5 100 -7.5 51 0 980.9 NA 0.0000 9999 5280 0 0 0
2019/07/21 15:51:00 BASE 4.12 27 4.84 32 -7.5 100 -7.5 53 0 980.9 NA 0.0000 9999 5180 0 0 0
2019/07/21 15:52:00 BASE 4.04 21 4.84 32 -7.5 100 -7.5 53 0 980.9 NA 0.0000 9999 5220 0 0 0
2019/07/21 15:53:00 BASE 3.95 13 4.84 32 -7.4 100 -7.4 56 0 980.9 NA 0.0000 9999 5150 0 0 0
2019/07/21 15:54:00 BASE 3.66 13 4.84 32 -7.4 100 -7.4 59 0 980.9 NA 0.0000 9999 5180 0 0 0
2019/07/21 15:55:00 BASE 3.50 17 4.84 32 -7.3 100 -7.3 71 0 980.9 NA 0.0000 9999 5150 0 0 0
2019/07/21 15:56:00 BASE 3.35 21 4.84 32 -7.2 100 -7.2 76 0 980.8 NA 0.0000 9999 5090 0 0 0
2019/07/21 15:57:00 BASE 3.37 30 4.84 32 -7.2 100 -7.2 78 0 980.8 NA 0.0000 9999 5090 0 0 0
2019/07/21 15:58:00 BASE 3.80 37 4.84 32 -7.1 100 -7.1 80 0 980.8 NA 0.0000 9999 5050 0 0 0
2019/07/21 15:59:00 BASE 4.00 35 4.84 32 -7.2 100 -7.2 82 0 980.8 NA 0.0000 9999 4920 0 0 0
2019/07/21 16:00:00 BASE 3.77 37 4.48 32 -7.2 100 -7.2 85 0 980.8 NA 0.0000 9999 5020 0 0 0
2019/07/21 16:01:00 BASE 3.64 42 4.48 32 -7.3 100 -7.3 87 0 980.8 NA 0.0000 9999 4920 0 0 0
2019/07/21 16:02:00 BASE 3.57 43 4.48 32 -7.3 100 -7.3 89 0 980.8 NA 0.0000 9999 4950 0 0 0
2019/07/21 16:03:00 BASE 3.46 44 4.48 32 -7.3 100 -7.3 90 0 980.7 NA 0.0000 9999 4920 0 0 0
2019/07/21 16:04:00 BASE 3.46 45 4.48 32 -7.3 100 -7.3 91 0 980.7 NA 0.0000 9999 4890 0 0 0
2019/07/21 16:05:00 BASE 3.40 42 4.48 32 -7.3 100 -7.3 91 0 980.7 NA 0.0000 9999 4950 0 0 0
2019/07/21 16:06:00 BASE 3.31 40 4.48 32 -7.2 100 -7.2 92 0 980.7 NA 0.0000 9999 4820 0 0 0
2019/07/21 16:07:00 BASE 3.49 41 4.48 32 -7.2 100 -7.2 92 0 980.7 NA 0.0000 9999 4920 0 0 0
2019/07/21 16:08:00 BASE 3.79 43 4.32 40 -7.2 100 -7.2 93 0 980.7 NA 0.0000 9999 4790 0 0 0
2019/07/21 16:09:00 BASE 3.97 45 4.32 43 -7.2 100 -7.2 93 0 980.7 NA 0.0000 9999 4920 0 0 0
2019/07/21 16:10:00 BASE 3.79 45 4.32 42 -7.2 100 -7.2 93 0 980.7 NA 0.0000 9999 4890 0 0 0
2019/07/21 16:11:00 BASE 3.51 46 4.32 42 -7.2 100 -7.2 93 0 980.6 NA 0.0000 9999 4890 0 0 0
2019/07/21 16:12:00 BASE 3.31 43 4.32 42 -7.2 100 -7.2 93 0 980.6 NA 0.0000 9999 4820 0 0 0
2019/07/21 16:13:00 BASE 3.33 39 4.32 42 -7.3 100 -7.3 94 0 980.6 NA 0.0000 9999 4820 0 0 0
2019/07/21 16:14:00 BASE 3.49 39 4.32 42 -7.2 100 -7.2 94 0 980.6 NA 0.0000 9999 4760 0 0 0
2019/07/21 16:15:00 BASE 3.46 37 4.32 42 -7.2 100 -7.2 91 0 980.6 NA 0.0000 9999 4790 0 0 0
2019/07/21 16:16:00 BASE 3.48 34 4.32 42 -7.2 100 -7.2 83 0 980.6 NA 0.0000 9999 4790 0 0 0
2019/07/21 16:17:00 BASE 3.58 33 4.32 42 -7.1 100 -7.1 91 0 980.6 NA 0.0000 9999 4760 0 0 0
2019/07/21 16:18:00 BASE 3.53 33 4.32 42 -7.1 100 -7.1 95 0 980.6 NA 0.0000 9999 4790 0 0 0
2019/07/21 16:19:00 BASE 3.51 30 4.32 42 -7.0 100 -7.0 94 0 980.6 NA 0.0000 9999 4720 0 0 0
2019/07/21 16:20:00 BASE 3.59 28 3.96 38 -7.0 100 -7.0 93 0 980.6 NA 0.0000 9999 4690 0 0 0
2019/07/21 16:21:00 BASE 3.66 28 4.01 28 -6.9 100 -6.9 91 0 980.6 NA 0.0000 9999 4720 0 0 0
2019/07/21 16:22:00 BASE 3.51 26 4.01 28 -6.9 100 -6.9 90 0 980.6 NA 0.0000 9999 4720 0 0 0
2019/07/21 16:23:00 BASE 3.41 28 4.12 29 -6.9 100 -6.9 88 0 980.6 NA 0.0000 9999 4790 0 0 0
2019/07/21 16:24:00 BASE 3.59 29 4.32 25 -6.9 100 -6.9 87 0 980.6 NA 0.0000 9999 4660 0 0 0
2019/07/21 16:25:00 BASE 3.74 25 4.37 26 -6.8 100 -6.8 86 0 980.6 NA 0.0000 9999 4660 0 0 0
2019/07/21 16:26:00 BASE 3.72 21 4.37 26 -6.8 100 -6.8 84 0 980.5 NA 0.0000 9999 4690 0 0 0
2019/07/21 16:27:00 BASE 3.78 19 4.37 26 -6.8 100 -6.8 83 0 980.5 NA 0.0000 9999 4660 0 0 0
2019/07/21 16:28:00 BASE 3.80 21 4.37 26 -6.8 100 -6.8 82 0 980.4 NA 0.0000 9999 4690 0 0 0
2019/07/21 16:29:00 BASE 3.43 22 4.37 26 -6.8 100 -6.8 81 0 980.4 NA 0.0000 9999 4720 0 0 0
2019/07/21 16:30:00 BASE 3.35 20 4.37 26 -6.8 100 -6.8 80 0 980.4 NA 0.0000 9999 4690 0 0 0
2019/07/21 16:31:00 BASE 3.42 19 4.37 26 -6.8 100 -6.8 79 0 980.4 NA 0.0000 9999 4690 0 0 0
2019/07/21 16:32:00 BASE 3.32 21 4.37 26 -6.8 100 -6.8 78 0 980.4 NA 0.0000 9999 4690 0 0 0
2019/07/21 16:33:01 BASE 3.49 17 4.37 26 -6.8 100 -6.8 76 0 980.4 NA 0.0000 9999 4820 0 0 0
2019/07/21 16:34:01 BASE 3.48 14 4.37 26 -6.8 100 -6.8 76 0 980.4 NA 0.0000 9999 4720 0 0 0
2019/07/21 16:35:01 BASE 3.54 19 4.32 11 -6.8 100 -6.8 75 0 980.4 NA 0.0000 9999 0 0 0 0
2019/07/21 16:36:01 BASE 3.63 12 4.32 11 -6.8 100 -6.8 75 0 980.4 NA 0.0000 9999 0 0 0 0
2019/07/21 16:37:01 BASE 3.31 12 4.32 11 -6.8 100 -6.8 75 0 980.4 NA 0.0000 9999 0 0 0 0
2019/07/21 16:38:01 BASE 3.00 13 4.32 11 -6.8 100 -6.8 75 0 980.4 NA 0.0000 9999 0 0 0 0
2019/07/21 16:39:01 BASE 2.81 5 4.32 11 -6.8 100 -6.8 75 0 980.4 NA 0.0000 9999 0 0 0 0
2019/07/21 16:40:01 BASE 2.87 3 4.32 11 -6.8 100 -6.8 75 0 980.4 NA 0.0000 9999 0 0 0 0
2019/07/21 16:41:01 BASE 3.04 358 4.32 11 -6.8 100 -6.8 75 0 980.4 NA 0.0000 9999 0 0 0 0
2019/07/21 16:42:01 BASE 3.11 358 4.32 11 -6.7 100 -6.7 74 0 980.4 NA 0.0000 9999 0 0 0 0
2019/07/21 16:43:01 BASE 3.25 357 4.32 11 -6.7 100 -6.7 71 0 980.4 NA 0.0000 9999 0 0 0 0
2019/07/21 16:44:01 BASE 3.47 357 4.32 11 -6.7 100 -6.7 72 0 980.4 NA 0.0000 9999 0 0 0 0
2019/07/21 16:45:01 BASE 3.32 359 3.91 346 -6.7 100 -6.7 69 0 980.4 NA 0.0000 9999 5250 0 0 0
2019/07/21 16:46:01 BASE 3.22 350 3.91 346 -6.7 100 -6.7 50 0 980.4 NA 0.0000 9999 5220 0 0 0
2019/07/21 16:47:01 BASE 3.32 343 3.91 346 -6.7 100 -6.7 44 0 980.4 NA 0.0000 9999 5180 0 0 0
2019/07/21 16:48:01 BASE 3.11 345 3.91 346 -6.7 100 -6.7 42 0 980.4 NA 0.0000 9999 5150 0 0 0
2019/07/21 16:49:01 BASE 3.08 349 3.91 346 -6.7 100 -6.7 41 0 980.4 NA 0.0000 9999 5150 0 0 0
2019/07/21 16:50:01 BASE 3.45 356 4.01 147 -6.7 100 -6.7 41 0 980.4 NA 0.0000 9999 5090 0 0 0
2019/07/21 16:51:01 BASE 3.64 356 4.01 147 -6.7 100 -6.7 41 0 980.4 NA 0.0000 9999 5180 0 0 0
2019/07/21 16:52:01 BASE 3.65 356 4.06 360 -6.7 100 -6.7 41 0 980.4 NA 0.0000 9999 5180 0 0 0
2019/07/21 16:53:01 BASE 3.59 8 4.06 360 -6.7 100 -6.7 41 0 980.4 NA 0.0000 9999 5180 0 0 0
2019/07/21 16:54:01 BASE 3.49 13 4.06 360 -6.7 100 -6.7 42 0 980.4 NA 0.0000 9999 5150 0 0 0
2019/07/21 16:55:01 BASE 3.51 7 4.06 360 -6.8 100 -6.8 42 0 980.4 NA 0.0000 9999 5090 0 0 0
2019/07/21 16:56:01 BASE 3.45 5 4.06 360 -6.8 100 -6.8 42 0 980.4 NA 0.0000 9999 5020 0 0 0
2019/07/21 16:57:01 BASE 3.28 360 4.06 360 -6.8 100 -6.8 43 0 980.4 NA 0.0000 9999 4890 0 0 0
2019/07/21 16:58:01 BASE 2.91 353 4.06 360 -6.8 100 -6.8 44 0 980.4 NA 0.0000 9999 4890 0 0 0
2019/07/21 16:59:01 BASE 2.77 1 4.06 360 -6.8 100 -6.8 45 0 980.4 NA 0.0000 9999 5090 0 0 0
2019/07/21 17:00:01 BASE 2.71 9 4.06 360 -6.7 100 -6.7 46 0 980.4 NA 0.0000 9999 4950 0 0 0
2019/07/21 17:01:01 BASE 2.57 2 4.06 360 -6.8 100 -6.8 48 0 980.4 NA 0.0000 9999 4990 0 0 0
2019/07/21 17:02:01 BASE 2.68 3 3.91 16 -6.8 100 -6.8 47 0 980.4 NA 0.0000 9999 5090 0 0 0
2019/07/21 17:03:01 BASE 2.82 5 3.86 8 -6.8 100 -6.8 49 0 980.4 NA 0.0000 9999 4990 0 0 0
2019/07/21 17:04:01 BASE 2.79 4 3.86 8 -6.8 100 -6.8 53 0 980.4 NA 0.0000 9999 5090 0 0 0
2019/07/21 17:05:01 BASE 2.62 5 3.76 7 -6.8 100 -6.8 50 0 980.4 NA 0.0000 9999 0 0 0 0
2019/07/21 17:06:01 BASE 2.48 11 3.55 354 -6.8 100 -6.8 50 0 980.4 NA 0.0000 9999 0 0 0 0
2019/07/21 17:07:01 BASE 2.68 13 3.24 17 -6.8 100 -6.8 46 0 980.4 NA 0.0000 9999 4990 0 0 0
2019/07/21 17:08:01 BASE 2.73 10 3.24 17 -6.8 100 -6.8 47 0 980.4 NA 0.0000 9999 4890 0 0 0
2019/07/21 17:09:01 BASE 2.43 12 3.19 353 -6.8 100 -6.8 48 0 980.4 NA 0.0000 9999 4790 0 0 0
2019/07/21 17:10:01 BASE 2.72 6 3.55 360 -6.8 100 -6.8 55 0 980.4 NA 0.0000 9999 4990 0 0 0
2019/07/21 17:11:01 BASE 2.92 353 3.55 360 -6.9 100 -6.9 51 0 980.4 NA 0.0000 9999 4920 0 0 0
2019/07/21 17:12:01 BASE 2.81 355 3.55 360 -6.9 100 -6.9 49 0 980.4 NA 0.0000 9999 5120 0 0 0
2019/07/21 17:13:01 BASE 2.81 9 3.55 360 -6.9 100 -6.9 44 0 980.4 NA 0.0000 9999 0 0 0 0
2019/07/21 17:14:01 BASE 2.74 14 3.55 360 -6.9 100 -6.9 41 0 980.4 NA 0.0000 9999 0 0 0 0
2019/07/21 17:15:01 BASE 2.89 7 3.65 7 -6.8 100 -6.8 37 0 980.4 NA 0.0000 9999 0 0 0 0
2019/07/21 17:16:01 BASE 2.95 2 3.81 7 -6.9 100 -6.9 36 0 980.4 NA 0.0000 9999 5120 0 0 0
2019/07/21 17:17:01 BASE 2.99 358 3.81 7 -6.9 100 -6.9 35 0 980.4 NA 0.0000 9999 5150 0 0 0
2019/07/21 17:18:01 BASE 2.93 355 3.81 7 -6.9 100 -6.9 35 0 980.4 NA 0.0000 9999 4890 0 0 0
2019/07/21 17:19:01 BASE 2.43 360 3.81 7 -6.9 100 -6.9 36 0 980.4 NA 0.0000 9999 5150 0 0 0
2019/07/21 17:20:01 BASE 2.05 8 3.81 7 -6.9 100 -6.9 36 0 980.4 NA 0.0000 9999 5020 0 0 0
2019/07/21 17:21:01 BASE 2.04 13 3.81 7 -6.9 100 -6.9 36 0 980.4 NA 0.0000 9999 5120 0 0 0
2019/07/21 17:22:01 BASE 2.24 11 3.81 7 -6.9 100 -6.9 36 0 980.4 NA 0.0000 9999 4860 0 0 0
2019/07/21 17:23:01 BASE 2.50 12 3.81 7 -6.9 100 -6.9 37 0 980.4 NA 0.0000 9999 4860 0 0 0
2019/07/21 17:24:01 BASE 2.71 8 3.81 7 -6.9 100 -6.9 38 0 980.4 NA 0.0000 9999 4820 0 0 0
2019/07/21 17:25:01 BASE 2.59 4 3.81 7 -6.9 100 -6.9 38 0 980.4 NA 0.0000 9999 4820 0 0 0
2019/07/21 17:26:01 BASE 2.51 7 3.65 346 -6.9 100 -6.9 39 0 980.4 NA 0.0000 9999 4920 0 0 0
2019/07/21 17:27:01 BASE 2.44 17 3.34 2 -6.9 100 -6.9 39 0 980.4 NA 0.0000 9999 4890 0 0 0
2019/07/21 17:28:01 BASE 2.17 28 3.34 2 -6.8 100 -6.8 40 0 980.4 NA 0.0000 9999 4860 0 0 0
2019/07/21 17:29:01 BASE 2.06 24 3.34 2 -6.9 100 -6.9 40 0 980.4 NA 0.0000 9999 4790 0 0 0
2019/07/21 17:30:01 BASE 1.95 19 3.34 2 -6.8 100 -6.8 40 0 980.4 NA 0.0000 9999 4790 0 0 0
2019/07/21 17:31:01 BASE 2.09 24 3.34 2 -6.8 100 -6.8 40 0 980.4 NA 0.0000 9999 4760 0 0 0
2019/07/21 17:32:01 BASE 2.15 36 3.34 2 -6.8 100 -6.8 40 0 980.4 NA 0.0000 9999 4690 0 0 0
2019/07/21 17:33:01 BASE 2.01 39 3.34 2 -6.9 100 -6.9 40 0 980.4 NA 0.0000 9999 4590 0 0 0
2019/07/21 17:34:01 BASE 1.89 26 3.04 16 -6.9 100 -6.9 41 0 980.3 NA 0.0000 9999 4630 0 0 0
2019/07/21 17:35:01 BASE 1.61 19 3.04 16 -7.0 100 -7.0 41 0 980.3 NA 0.0000 9999 4530 0 0 0
2019/07/21 17:36:01 BASE 1.34 33 2.78 15 -7.0 100 -7.0 41 0 980.3 NA 0.0000 9999 4660 0 0 0
2019/07/21 17:37:01 BASE 1.45 50 2.62 24 -7.0 100 -7.0 40 0 980.3 NA 0.0000 9999 4660 0 0 0
2019/07/21 17:38:01 BASE 1.73 55 2.62 24 -7.0 100 -7.0 40 0 980.3 NA 0.0000 9999 4560 0 0 0
2019/07/21 17:39:01 BASE 1.67 65 2.62 24 -7.0 100 -7.0 40 0 980.3 NA 0.0000 9999 4590 0 0 0
2019/07/21 17:40:01 BASE 1.59 78 2.62 24 -7.0 100 -7.0 40 0 980.3 NA 0.0000 9999 4590 0 0 0
2019/07/21 17:41:01 BASE 1.52 74 2.37 42 -6.9 100 -6.9 39 0 980.3 NA 0.0000 9999 4660 0 0 0
2019/07/21 17:42:01 BASE 0.86 57 2.37 42 -6.9 100 -6.9 38 0 980.3 NA 0.0000 9999 4560 0 0 0
2019/07/21 17:43:01 BASE 0.13 48 2.11 45 -6.9 100 -6.9 37 0 980.3 NA 0.0000 9999 4530 0 0 0
2019/07/21 17:44:01 BASE 0.00 46 2.11 45 -6.9 100 -6.9 36 0 980.3 NA 0.0000 9999 4630 0 0 0
2019/07/21 17:45:01 BASE 0.00 31 2.11 45 -6.9 100 -6.9 34 0 980.3 NA 0.0000 9999 4460 0 0 0
2019/07/21 17:46:01 BASE 0.00 17 2.11 45 -6.8 100 -6.8 33 0 980.3 NA 0.0000 9999 4530 0 0 0
2019/07/21 17:47:01 BASE 0.00 1 2.11 45 -6.8 100 -6.8 32 0 980.3 NA 0.0000 9999 4590 0 0 0
2019/07/21 17:48:01 BASE 0.00 344 2.01 83 -6.8 100 -6.8 31 0 980.3 NA 0.0000 9999 4490 0 0 0
2019/07/21 17:49:01 BASE 0.00 344 2.01 83 -6.7 100 -6.7 30 0 980.3 NA 0.0000 9999 4530 0 0 0
2019/07/21 17:50:01 BASE 0.00 348 1.85 73 -6.7 100 -6.7 29 0 980.3 NA 0.0000 9999 4590 0 0 0
2019/07/21 17:51:01 BASE 0.00 342 1.13 50 -6.7 100 -6.7 28 0 980.3 NA 0.0000 9999 4590 0 0 0
2019/07/21 17:52:01 BASE 0.00 333 M M -6.7 100 -6.7 28 0 980.3 NA 0.0000 9999 0 0 0 0
2019/07/21 17:53:01 BASE 0.00 338 M M -6.7 100 -6.7 27 0 980.3 NA 0.0000 9999 0 0 0 0
2019/07/21 17:54:01 BASE 0.00 347 M M -6.7 100 -6.7 26 0 980.3 NA 0.0000 9999 4630 0 0 0
2019/07/21 17:55:01 BASE 0.00 343 M M -6.7 100 -6.7 26 0 980.3 NA 0.0000 9999 5320 0 0 0
2019/07/21 17:56:01 BASE 0.00 327 M M -6.7 100 -6.7 25 0 980.3 NA 0.0000 9999 0 0 0 0
2019/07/21 17:57:01 BASE 0.00 324 M M -6.7 100 -6.7 25 0 980.3 NA 0.0000 9999 4820 0 0 0
2019/07/21 17:58:01 BASE 0.13 333 1.08 341 -6.7 100 -6.7 25 0 980.2 NA 0.0000 9999 4560 0 0 0
2019/07/21 17:59:01 BASE 0.31 333 1.08 310 -6.7 100 -6.7 24 0 980.2 NA 0.0000 9999 4590 0 0 0
2019/07/21 18:00:01 BASE 0.65 343 1.39 8 -6.7 100 -6.7 24 0 980.2 NA 0.0000 9999 4560 0 0 0
2019/07/21 18:01:01 BASE 0.61 359 1.39 8 -6.7 100 -6.7 24 0 980.2 NA 0.0000 9999 4560 0 0 0
2019/07/21 18:02:01 BASE 0.76 355 1.70 344 -6.7 100 -6.7 24 0 980.3 NA 0.0000 9999 4560 5320 0 0
2019/07/21 18:03:01 BASE 1.35 347 1.70 343 -6.7 100 -6.7 23 0 980.3 NA 0.0000 9999 4630 5320 0 0
2019/07/21 18:04:00 BASE 1.32 342 1.70 343 -6.7 100 -6.7 23 0 980.3 NA 0.0000 9999 4660 5320 0 0
2019/07/21 18:05:00 BASE 1.51 327 2.11 318 -6.7 100 -6.7 23 0 980.2 NA 0.0000 9999 4660 5320 0 0
2019/07/21 18:06:01 BASE 1.84 323 2.21 324 -6.7 100 -6.7 23 0 980.2 NA 0.0000 9999 4690 5350 0 0
2019/07/21 18:07:00 BASE 2.11 339 2.88 4 -6.7 100 -6.7 23 0 980.3 NA 0.0000 9999 4660 5380 0 0
2019/07/21 18:08:01 BASE 2.57 350 2.98 351 -6.7 100 -6.7 23 0 980.3 NA 0.0000 9999 4590 0 0 0
2019/07/21 18:09:00 BASE 2.69 352 2.98 351 -6.8 100 -6.8 23 0 980.2 NA 0.0000 9999 4630 0 0 0
2019/07/21 18:10:01 BASE 2.49 358 2.98 351 -6.7 100 -6.7 24 0 980.2 NA 0.0000 9999 4690 5480 0 0
2019/07/21 18:11:01 BASE 2.33 359 2.98 351 -6.7 100 -6.7 24 0 980.3 NA 0.0000 9999 4530 5540 0 0
2019/07/21 18:12:00 BASE 2.20 352 2.98 351 -6.7 100 -6.7 24 0 980.3 NA 0.0000 9999 4590 0 0 0
2019/07/21 18:13:00 BASE 2.28 339 2.98 351 -6.7 100 -6.7 24 0 980.3 NA 0.0000 9999 4430 0 0 0
2019/07/21 18:14:01 BASE 2.29 333 2.98 351 -6.7 100 -6.7 23 0 980.3 NA 0.0000 9999 4360 0 0 0
2019/07/21 18:15:00 BASE 2.06 342 2.98 351 -6.6 100 -6.6 22 0 980.3 NA 0.0000 9999 4230 0 0 0
2019/07/21 18:16:00 BASE 2.34 353 2.98 351 -6.6 100 -6.6 22 0 980.2 NA 0.0000 9999 4360 0 0 0
2019/07/21 18:17:00 BASE 2.71 6 3.24 20 -6.6 100 -6.6 21 0 980.2 NA 0.0000 9999 4460 0 0 0
2019/07/21 18:18:00 BASE 2.47 17 3.24 20 -6.7 100 -6.7 20 0 980.2 NA 0.0000 9999 4360 0 0 0
2019/07/21 18:19:00 BASE 2.28 22 3.24 20 -6.7 100 -6.7 20 0 980.2 NA 0.0000 9999 4300 0 0 0
2019/07/21 18:20:00 BASE 2.28 34 3.24 20 -6.8 100 -6.8 19 0 980.2 NA 0.0000 9999 4460 0 0 0
2019/07/21 18:21:00 BASE 2.17 42 3.24 20 -6.8 100 -6.8 19 0 980.2 NA 0.0000 9999 4330 0 0 0
2019/07/21 18:22:00 BASE 2.10 41 3.24 20 -6.8 100 -6.8 18 0 980.3 NA 0.0000 9999 4430 0 0 0
2019/07/21 18:23:00 BASE 1.90 23 3.24 20 -6.8 100 -6.8 18 0 980.3 NA 0.0000 9999 4400 0 0 0
2019/07/21 18:24:00 BASE 1.81 8 3.24 20 -6.8 100 -6.8 17 0 980.3 NA 0.0000 9999 4200 0 0 0
2019/07/21 18:25:00 BASE 2.01 10 3.24 20 -6.7 100 -6.7 17 0 980.3 NA 0.0000 9999 4270 0 0 0
2019/07/21 18:26:00 BASE 2.22 13 3.24 20 -6.7 100 -6.7 16 0 980.3 NA 0.0000 9999 4360 0 0 0
2019/07/21 18:27:00 BASE 2.33 18 2.78 33 -6.7 100 -6.7 15 0 980.3 NA 0.0000 9999 4300 0 0 0
2019/07/21 18:28:00 BASE 2.47 18 2.98 14 -6.7 100 -6.7 15 0 980.3 NA 0.0000 9999 4330 0 0 0
2019/07/21 18:29:00 BASE 2.95 20 3.70 8 -6.7 100 -6.7 14 0 980.3 NA 0.0000 9999 4300 0 0 0
2019/07/21 18:30:00 BASE 2.91 20 3.70 8 -6.7 100 -6.7 13 0 980.3 NA 0.0000 9999 4270 0 0 0
2019/07/21 18:31:00 BASE 2.65 23 3.70 8 -6.7 100 -6.7 13 0 980.3 NA 0.0000 9999 4300 0 0 0
2019/07/21 18:32:00 BASE 2.73 26 3.70 8 -6.7 100 -6.7 12 0 980.3 NA 0.0000 9999 4270 0 0 0
2019/07/21 18:33:00 BASE 2.53 24 3.70 8 -6.7 100 -6.7 12 0 980.3 NA 0.0000 9999 4330 0 0 0
2019/07/21 18:34:00 BASE 2.49 24 3.70 8 -6.7 100 -6.7 12 0 980.3 NA 0.0000 9999 4300 0 0 0
2019/07/21 18:35:01 BASE 2.29 24 3.70 8 -6.6 100 -6.6 12 0 980.3 NA 0.0000 9999 4100 0 0 0
2019/07/21 18:36:00 BASE 2.20 25 3.70 8 -6.6 100 -6.6 12 0 980.3 NA 0.0000 9999 4170 0 0 0
2019/07/21 18:37:00 BASE 2.47 26 3.70 8 -6.6 100 -6.6 11 0 980.3 NA 0.0000 9999 4300 0 0 0
2019/07/21 18:38:00 BASE 2.46 25 3.70 8 -6.6 100 -6.6 11 0 980.3 NA 0.0000 9999 4230 0 0 0
2019/07/21 18:39:00 BASE 2.23 29 3.34 360 -6.6 100 -6.6 11 0 980.2 NA 0.0000 9999 4300 0 0 0
2019/07/21 18:40:00 BASE 2.37 39 3.19 24 -6.6 100 -6.6 10 0 980.2 NA 0.0000 9999 4230 0 0 0
2019/07/21 18:41:00 BASE 2.50 45 3.19 24 -6.6 100 -6.6 10 0 980.2 NA 0.0000 9999 4130 0 0 0
2019/07/21 18:42:00 BASE 2.31 39 2.98 25 -6.6 100 -6.6 10 0 980.2 NA 0.0000 9999 4200 0 0 0
2019/07/21 18:43:00 BASE 2.31 39 2.93 44 -6.6 100 -6.6 9 0 980.2 NA 0.0000 9999 4230 0 0 0
2019/07/21 18:44:01 BASE 2.43 42 2.93 44 -6.6 100 -6.6 9 0 980.2 NA 0.0000 9999 4300 0 0 0
2019/07/21 18:45:00 BASE 2.53 40 2.93 44 -6.7 100 -6.7 9 0 980.2 NA 0.0000 9999 4270 0 0 0
2019/07/21 18:46:00 BASE 2.74 40 3.09 36 -6.7 100 -6.7 8 0 980.2 NA 0.0000 9999 4270 0 0 0
2019/07/21 18:47:00 BASE 2.88 44 3.09 52 -6.7 100 -6.7 8 0 980.2 NA 0.0000 9999 4270 0 0 0
2019/07/21 18:48:00 BASE 3.04 46 3.40 45 -6.7 100 -6.7 8 0 980.2 NA 0.0000 9999 4330 0 0 0
2019/07/21 18:49:00 BASE 3.09 44 3.40 45 -6.7 100 -6.7 8 0 980.2 NA 0.0000 9999 4330 0 0 0
2019/07/21 18:50:00 BASE 3.08 44 3.40 45 -6.7 100 -6.7 7 0 980.2 NA 0.0000 9999 4330 0 0 0
2019/07/21 18:51:00 BASE 3.05 42 3.40 45 -6.7 100 -6.7 7 0 980.2 NA 0.0000 9999 4270 0 0 0
2019/07/21 18:52:00 BASE 2.91 45 3.40 45 -6.7 100 -6.7 7 0 980.2 NA 0.0000 9999 4360 0 0 0
2019/07/21 18:53:00 BASE 2.75 45 3.40 45 -6.6 100 -6.6 7 0 980.2 NA 0.0000 9999 4360 0 0 0
2019/07/21 18:54:00 BASE 2.48 45 3.40 45 -6.6 100 -6.6 7 0 980.2 NA 0.0000 9999 4330 0 0 0
2019/07/21 18:55:00 BASE 2.43 45 3.40 45 -6.5 100 -6.5 6 0 980.2 NA 0.0000 9999 4330 0 0 0
2019/07/21 18:56:00 BASE 2.34 36 3.40 45 -6.5 100 -6.5 6 0 980.2 NA 0.0000 9999 4300 0 0 0
2019/07/21 18:57:00 BASE 1.99 32 3.40 45 -6.5 100 -6.5 6 0 980.2 NA 0.0000 9999 2560 4230 0 0
2019/07/21 18:58:00 BASE 2.03 27 3.34 42 -6.4 100 -6.4 6 0 980.2 NA 0.0000 9999 2530 4270 0 0
2019/07/21 18:59:00 BASE 2.19 22 3.34 42 -6.4 100 -6.4 5 0 980.2 NA 0.0000 9999 2490 4300 0 0
2019/07/21 19:00:00 BASE 2.26 24 3.34 42 -6.4 100 -6.4 5 0 980.2 NA 0.0000 9999 2530 4360 0 0
2019/07/21 19:01:00 BASE 2.47 27 3.19 35 -6.4 100 -6.4 5 0 980.2 NA 0.0000 9999 2460 4360 0 0
2019/07/21 19:02:00 BASE 2.42 26 3.19 35 -6.4 100 -6.4 5 0 980.2 NA 0.0000 9999 2460 4400 0 0
2019/07/21 19:03:00 BASE 2.29 19 3.19 35 -6.4 100 -6.4 5 0 980.2 NA 0.0000 9999 2460 4400 0 0
2019/07/21 19:04:00 BASE 2.26 14 3.19 35 -6.3 100 -6.3 4 0 980.2 NA 0.0000 9999 2430 4400 0 0
2019/07/21 19:05:00 BASE 2.18 359 3.19 35 -6.3 100 -6.3 4 0 980.2 NA 0.0000 9999 2400 4400 0 0
2019/07/21 19:06:00 BASE 2.19 346 3.19 35 -6.2 100 -6.2 4 0 980.2 NA 0.0000 9999 2330 4400 0 0
2019/07/21 19:07:00 BASE 2.22 348 3.19 35 -6.2 100 -6.2 4 0 980.2 NA 0.0000 9999 2170 4400 0 0
2019/07/21 19:08:00 BASE 2.07 353 3.19 35 -6.2 100 -6.2 4 0 980.2 NA 0.0000 9999 2030 4400 0 0
2019/07/21 19:09:00 BASE 1.86 1 3.19 35 -6.2 100 -6.2 4 0 980.2 NA 0.0000 9999 2000 4430 0 0
2019/07/21 19:10:00 BASE 1.86 10 3.19 35 -6.1 100 -6.1 3 0 980.2 NA 0.0000 9999 2000 4430 0 0
2019/07/21 19:11:00 BASE 1.67 355 2.98 23 -6.1 100 -6.1 3 0 980.2 NA 0.0000 9999 1940 4430 0 0
2019/07/21 19:12:00 BASE 1.59 339 2.98 23 -6.1 100 -6.1 3 0 980.1 NA 0.0000 9999 2030 4400 0 0
2019/07/21 19:13:00 BASE 1.82 343 2.93 16 -6.2 100 -6.2 3 0 980.1 NA 0.0000 9999 2130 4430 0 0
2019/07/21 19:14:00 BASE 1.69 343 2.52 211 -6.1 100 -6.1 3 0 980.1 NA 0.0000 9999 4430 0 0 0
2019/07/21 19:15:00 BASE 1.54 343 2.52 211 -6.1 100 -6.1 3 0 980.1 NA 0.0000 9999 1840 4460 0 0
2019/07/21 19:16:00 BASE 1.62 343 2.52 211 -6.1 100 -6.1 3 0 980.1 NA 0.0000 9999 4460 0 0 0
2019/07/21 19:17:00 BASE 1.65 346 2.52 211 -6.1 100 -6.1 3 0 980.0 NA 0.0000 9999 4460 0 0 0
2019/07/21 19:18:00 BASE 1.59 357 2.42 19 -6.1 100 -6.1 2 0 980.0 NA 0.0000 9999 4490 0 0 0
2019/07/21 19:19:00 BASE 1.71 6 2.42 19 -6.1 100 -6.1 2 0 980.0 NA 0.0000 9999 4490 0 0 0
2019/07/21 19:20:00 BASE 1.84 13 2.62 25 -6.1 100 -6.1 2 0 980.0 NA 0.0000 9999 1800 4530 0 0
2019/07/21 19:21:00 BASE 2.13 23 2.73 26 -6.1 100 -6.1 2 0 979.9 NA 0.0000 9999 4490 0 0 0
2019/07/21 19:22:00 BASE 2.54 22 3.24 20 -6.0 100 -6.0 2 0 979.9 NA 0.0000 9999 4490 0 0 0
2019/07/21 19:23:00 BASE 2.45 12 3.24 20 -6.0 100 -6.0 2 0 979.9 NA 0.0000 9999 4430 0 0 0
2019/07/21 19:24:00 BASE 2.48 8 3.24 20 -6.0 100 -6.0 2 0 979.9 NA 0.0000 9999 4430 0 0 0
2019/07/21 19:25:00 BASE 2.40 18 3.24 20 -6.0 100 -6.0 2 0 979.9 NA 0.0000 9999 4430 0 0 0
2019/07/21 19:26:00 BASE 2.09 32 3.24 20 -5.9 100 -5.9 2 0 979.9 NA 0.0000 9999 4430 0 0 0
2019/07/21 19:27:00 BASE 2.00 38 3.24 20 -5.9 100 -5.9 1 0 979.9 NA 0.0000 9999 4430 0 0 0
2019/07/21 19:28:00 BASE 2.22 38 3.24 20 -5.9 100 -5.9 1 0 979.9 NA 0.0000 9999 4430 0 0 0
2019/07/21 19:29:00 BASE 2.28 29 3.24 20 -5.9 100 -5.9 1 0 979.9 NA 0.0000 9999 4400 0 0 0
2019/07/21 19:30:00 BASE 1.77 19 3.24 20 -5.8 100 -5.8 1 0 979.9 NA 0.0000 9999 4360 0 0 0
2019/07/21 19:31:00 BASE 1.50 19 3.24 20 -5.8 100 -5.8 1 0 979.9 NA 0.0000 9999 4360 0 0 0
2019/07/21 19:32:00 BASE 1.53 12 3.09 7 -5.8 100 -5.8 1 0 979.9 NA 0.0000 9999 2530 4360 0 0
2019/07/21 19:33:00 BASE 1.67 3 3.09 7 -5.8 100 -5.8 1 0 979.8 NA 0.0000 9999 4330 0 0 0
2019/07/21 19:34:00 BASE 1.69 10 2.98 31 -5.7 100 -5.7 1 0 979.9 NA 0.0000 9999 4270 0 0 0
2019/07/21 19:35:00 BASE 1.94 21 2.98 31 -5.7 100 -5.7 1 0 979.8 NA 0.0000 9999 4300 0 0 0
2019/07/21 19:36:00 BASE 2.38 29 2.98 31 -5.7 100 -5.8 1 0 979.8 NA 0.0000 9999 4330 0 0 0
2019/07/21 19:37:00 BASE 2.65 30 2.98 33 -5.7 99 -5.8 1 0 979.8 NA 0.0000 9999 4400 0 0 0
2019/07/21 19:38:00 BASE 2.61 30 2.98 33 -5.7 99 -5.8 1 0 979.8 NA 0.0000 9999 4400 0 0 0
2019/07/21 19:39:00 BASE 2.34 34 2.98 33 -5.7 99 -5.9 1 0 979.8 NA 0.0000 9999 4400 0 0 0
2019/07/21 19:40:00 BASE 2.13 35 2.98 33 -5.7 99 -5.9 1 0 979.8 NA 0.0000 9999 2490 4360 0 0
2019/07/21 19:41:00 BASE 1.89 27 2.98 33 -5.7 99 -5.9 1 0 979.8 NA 0.0000 9999 4360 0 0 0
2019/07/21 19:42:00 BASE 1.65 21 2.98 33 -5.7 99 -5.8 1 0 979.8 NA 0.0000 9999 4330 0 0 0
2019/07/21 19:43:00 BASE 1.98 32 2.98 33 -5.6 98 -5.8 1 0 979.8 NA 0.0000 9999 2530 4330 0 0
2019/07/21 19:44:00 BASE 2.33 44 3.09 53 -5.6 98 -5.9 1 0 979.8 NA 0.0000 9999 2490 4360 0 0
2019/07/21 19:45:00 BASE 2.02 46 3.09 53 -5.6 98 -5.9 1 0 979.8 NA 0.0000 9999 2460 4400 0 0
2019/07/21 19:46:00 BASE 1.70 39 3.09 53 -5.5 97 -5.9 1 0 979.9 NA 0.0000 9999 2490 4400 0 0
2019/07/21 19:47:00 BASE 1.08 34 3.09 53 -5.5 97 -6.0 1 0 979.9 NA 0.0000 9999 2490 4430 0 0
2019/07/21 19:48:00 BASE 1.00 44 3.09 53 -5.5 96 -6.0 1 0 979.9 NA 0.0000 9999 4430 0 0 0
2019/07/21 19:49:00 BASE 1.37 69 3.09 53 -5.5 96 -6.1 0 0 979.9 NA 0.0000 9999 2430 4400 0 0
2019/07/21 19:50:00 BASE 1.41 81 3.09 53 -5.5 96 -6.1 0 0 979.9 NA 0.0000 9999 4400 0 0 0
2019/07/21 19:51:00 BASE 1.39 81 3.09 53 -5.6 95 -6.2 0 0 979.9 NA 0.0000 9999 2460 4360 0 0
2019/07/21 19:52:00 BASE 1.33 84 3.09 53 -5.6 95 -6.2 0 0 979.9 NA 0.0000 9999 2460 4330 0 0
2019/07/21 19:53:00 BASE 1.44 83 3.09 53 -5.6 95 -6.2 0 0 979.9 NA 0.0000 9999 4400 0 0 0
2019/07/21 19:54:00 BASE 1.39 81 2.21 30 -5.6 96 -6.2 0 0 979.9 NA 0.0000 9999 4430 0 0 0
2019/07/21 19:55:00 BASE 1.18 85 1.85 31 -5.5 96 -6.1 0 0 979.9 NA 0.0000 9999 2330 4460 0 0
2019/07/21 19:56:00 BASE 0.67 76 1.75 84 -5.5 96 -6.1 0 0 979.9 NA 0.0000 9999 2400 4490 0 0
2019/07/21 19:57:00 BASE 0.13 72 1.75 84 -5.4 95 -6.1 0 0 979.9 NA 0.0000 9999 2400 4490 0 0
2019/07/21 19:58:00 BASE 0.04 79 1.75 84 -5.4 95 -6.1 0 0 979.9 NA 0.0000 9999 2330 4460 0 0
2019/07/21 19:59:00 BASE 0.04 70 1.75 84 -5.4 95 -6.2 0 0 979.9 NA 0.0000 9999 2330 3670 4430 0
2019/07/21 20:00:00 BASE 0.00 64 1.75 84 -5.4 94 -6.2 0 0 979.9 NA 0.0000 9999 3670 4400 5840 0
2019/07/21 20:01:00 BASE 0.00 61 1.75 84 -5.4 94 -6.2 0 0 979.9 NA 0.0000 9999 3710 4330 5770 0
2019/07/21 20:02:00 BASE 0.00 55 1.75 84 -5.4 94 -6.2 0 0 979.9 NA 0.0000 9999 3670 4300 0 0
2019/07/21 20:03:00 BASE 0.00 48 1.54 78 -5.4 94 -6.2 0 0 979.9 NA 0.0000 9999 3770 4300 0 0
2019/07/21 20:04:00 BASE 0.00 43 1.29 87 -5.3 94 -6.2 0 0 979.9 NA 0.0000 9999 4230 0 0 0
2019/07/21 20:05:00 BASE 0.00 38 1.08 54 -5.3 93 -6.2 0 0 979.9 NA 0.0000 9999 3740 4270 0 0
2019/07/21 20:06:00 BASE 0.00 37 1.03 66 -5.3 93 -6.2 0 0 979.9 NA 0.0000 9999 3670 4270 0 0
2019/07/21 20:07:00 BASE 0.00 39 1.03 66 -5.3 93 -6.2 0 0 979.9 NA 0.0000 9999 3670 4130 0 0
2019/07/21 20:08:00 BASE 0.15 50 1.34 68 -5.2 93 -6.2 0 0 979.9 NA 0.0000 9999 3670 4170 0 0
2019/07/21 20:09:00 BASE 0.15 54 1.34 68 -5.2 92 -6.2 0 0 979.9 NA 0.0000 9999 3670 4130 0 0
2019/07/21 20:10:00 BASE 0.00 47 1.34 68 -5.2 92 -6.3 0 0 979.9 NA 0.0000 9999 3640 4130 0 0
2019/07/21 20:11:00 BASE 0.00 43 1.34 68 -5.2 92 -6.3 0 0 979.9 NA 0.0000 9999 3580 4130 4950 0
2019/07/21 20:12:00 BASE 0.00 41 1.34 68 -5.2 92 -6.2 0 0 980.0 NA 0.0000 9999 4170 4920 0 0
2019/07/21 20:13:00 BASE 0.00 41 1.34 68 -5.1 92 -6.3 0 0 980.1 NA 0.0000 9999 3670 4170 4950 0
2019/07/21 20:14:00 BASE 0.00 41 1.34 68 -5.1 92 -6.3 0 0 980.1 NA 0.0000 9999 2200 3710 4170 0
2019/07/21 20:15:00 BASE 0.00 41 1.34 68 -5.1 91 -6.3 0 0 980.1 NA 0.0000 9999 2430 4100 4950 0
2019/07/21 20:16:01 BASE 0.00 41 1.34 68 -5.1 91 -6.3 0 0 980.1 NA 0.0000 9999 2330 4130 4950 0
2019/07/21 20:17:01 BASE 0.00 28 1.34 68 -5.1 91 -6.4 0 0 980.1 NA 0.0000 9999 2360 3740 4170 0
2019/07/21 20:18:01 BASE 0.00 329 M M -5.2 91 -6.4 0 0 980.1 NA 0.0000 9999 2360 4130 0 0
2019/07/21 20:19:01 BASE 0.51 287 1.44 279 -5.2 91 -6.4 0 0 980.1 NA 0.0000 9999 2300 4070 0 0
2019/07/21 20:20:01 BASE 1.32 281 1.80 279 -5.2 91 -6.4 0 0 980.1 NA 0.0000 9999 2200 4070 0 0
2019/07/21 20:21:01 BASE 1.73 278 1.95 272 -5.2 91 -6.4 0 0 980.1 NA 0.0000 9999 4200 4890 0 0
2019/07/21 20:22:01 BASE 1.77 278 1.95 272 -5.2 91 -6.5 0 0 980.1 NA 0.0000 9999 2030 4170 0 0
2019/07/21 20:23:01 BASE 1.61 276 1.95 272 -5.3 91 -6.5 0 0 980.1 NA 0.0000 9999 2230 4070 0 0
2019/07/21 20:24:01 BASE 1.49 277 1.95 272 -5.3 91 -6.5 0 0 980.1 NA 0.0000 9999 2130 4040 0 0
2019/07/21 20:25:01 BASE 1.49 283 1.95 272 -5.3 91 -6.5 0 0 980.1 NA 0.0000 9999 2130 4040 0 0
2019/07/21 20:26:01 BASE 1.59 290 1.95 291 -5.3 91 -6.5 0 0 980.1 NA 0.0000 9999 1940 4040 0 0
2019/07/21 20:27:01 BASE 1.70 299 1.95 291 -5.3 92 -6.4 0 0 980.1 NA 0.0000 9999 1940 4070 0 0
2019/07/21 20:28:01 BASE 1.47 301 1.95 291 -5.2 92 -6.4 0 0 980.1 NA 0.0000 9999 2230 3670 0 0
2019/07/21 20:29:01 BASE 0.92 299 1.95 291 -5.2 92 -6.3 0 0 980.1 NA 0.0000 9999 3670 4130 0 0
2019/07/21 20:30:01 BASE 0.90 305 1.95 291 -5.2 92 -6.2 0 0 980.1 NA 0.0000 9999 5150 0 0 0
2019/07/21 20:31:01 BASE 1.15 317 1.95 291 -5.1 92 -6.2 0 0 980.1 NA 0.0000 9999 5090 0 0 0
2019/07/21 20:32:01 BASE 1.29 328 1.95 291 -5.1 93 -6.1 0 0 980.1 NA 0.0000 9999 2260 3670 0 0
2019/07/21 20:33:01 BASE 1.74 332 2.78 325 -5.1 93 -6.1 0 0 980.1 NA 0.0000 9999 2200 3710 0 0
2019/07/21 20:34:01 BASE 2.44 330 2.93 332 -5.1 93 -6.1 0 0 980.1 NA 0.0000 9999 2200 4100 0 0
2019/07/21 20:35:01 BASE 2.71 328 2.93 332 -5.1 93 -6.1 0 0 980.1 NA 0.0000 9999 2230 4100 0 0
2019/07/21 20:36:01 BASE 2.27 329 2.93 332 -5.1 93 -6.1 0 0 980.1 NA 0.0000 9999 2030 5120 0 0
2019/07/21 20:37:01 BASE 1.72 333 2.93 332 -5.1 93 -6.1 0 0 980.1 NA 0.0000 9999 2000 5220 0 0
2019/07/21 20:38:01 BASE 1.62 330 2.93 332 -5.1 93 -6.1 0 0 980.1 NA 0.0000 9999 1970 5150 0 0
2019/07/21 20:39:01 BASE 1.66 327 2.93 332 -5.1 93 -6.1 0 0 980.1 NA 0.0000 9999 1940 5320 0 0
2019/07/21 20:40:01 BASE 1.68 334 2.93 332 -5.1 92 -6.1 0 0 980.1 NA 0.0000 9999 1940 5350 0 0
2019/07/21 20:41:01 BASE 1.88 341 2.93 332 -5.1 92 -6.1 0 0 980.1 NA 0.0000 9999 2030 5380 0 0
2019/07/21 20:42:01 BASE 1.97 342 2.93 332 -5.1 92 -6.2 0 0 980.1 NA 0.0000 9999 5090 0 0 0
2019/07/21 20:43:01 BASE 1.69 340 2.93 332 -5.1 92 -6.2 0 0 980.2 NA 0.0000 9999 2130 5120 0 0
2019/07/21 20:44:01 BASE 1.39 341 2.78 327 -5.1 92 -6.2 0 0 980.2 NA 0.0000 9999 2070 5320 0 0
2019/07/21 20:45:01 BASE 1.39 341 2.31 344 -5.1 92 -6.2 0 0 980.1 NA 0.0000 9999 1640 5380 0 0
2019/07/21 20:46:01 BASE 1.78 343 2.31 344 -5.0 92 -6.1 0 0 980.1 NA 0.0000 9999 1670 5450 0 0
2019/07/21 20:47:01 BASE 2.18 350 2.62 348 -5.0 92 -6.1 0 0 980.1 NA 0.0000 9999 1740 5350 0 0
2019/07/21 20:48:01 BASE 2.21 359 2.62 1 -5.0 92 -6.1 0 0 980.1 NA 0.0000 9999 1740 5410 0 0
2019/07/21 20:49:01 BASE 2.22 18 2.62 1 -5.0 93 -6.0 0 0 980.1 NA 0.0000 9999 1640 5410 0 0
2019/07/21 20:50:01 BASE 2.24 28 2.62 1 -5.1 93 -6.0 0 0 980.1 NA 0.0000 9999 1800 3710 5450 0
2019/07/21 20:51:00 BASE 2.01 27 2.62 1 -5.1 93 -6.0 0 0 980.1 NA 0.0000 9999 1870 3640 5450 0
2019/07/21 20:52:01 BASE 1.72 25 2.62 1 -5.1 93 -6.0 0 0 980.1 NA 0.0000 9999 1900 3710 5350 0
2019/07/21 20:53:00 BASE 1.33 33 2.62 1 -5.1 93 -6.1 0 0 980.1 NA 0.0000 9999 1900 2430 3710 0
2019/07/21 20:54:01 BASE 1.15 44 2.62 1 -5.1 93 -6.1 0 0 980.0 NA 0.0000 9999 1900 3740 5510 0
2019/07/21 20:55:00 BASE 1.07 48 2.62 1 -5.1 93 -6.1 0 0 980.0 NA 0.0000 9999 1800 3670 5450 0
2019/07/21 20:56:00 BASE 1.19 53 2.62 1 -5.1 93 -6.1 0 0 980.0 NA 0.0000 9999 1840 2490 3670 0
2019/07/21 20:57:00 BASE 1.81 60 2.62 1 -5.1 93 -6.1 0 0 980.0 NA 0.0000 9999 1900 3740 5450 0
2019/07/21 20:58:00 BASE 2.14 64 2.52 64 -5.1 93 -6.1 0 0 980.0 NA 0.0000 9999 1840 2490 3710 0
2019/07/21 20:59:00 BASE 2.31 63 2.57 64 -5.1 93 -6.1 0 0 980.0 NA 0.0000 9999 1870 3710 5410 0
2019/07/21 21:00:00 BASE 2.34 63 2.57 64 -5.2 93 -6.1 0 0 980.1 NA 0.0000 9999 2330 3710 5410 0
2019/07/21 21:01:00 BASE 2.06 59 2.57 64 -5.2 93 -6.1 0 0 980.1 NA 0.0000 9999 2300 3740 0 0
2019/07/21 21:02:00 BASE 1.87 59 2.57 64 -5.2 93 -6.2 0 0 980.1 NA 0.0000 9999 2200 3770 0 0
2019/07/21 21:03:00 BASE 1.79 63 2.57 64 -5.2 93 -6.2 0 0 980.1 NA 0.0000 9999 2100 3770 0 0
2019/07/21 21:04:00 BASE 1.61 64 2.57 64 -5.2 93 -6.1 0 0 980.1 NA 0.0000 9999 2030 3770 0 0
2019/07/21 21:05:00 BASE 1.55 62 2.57 64 -5.2 93 -6.1 0 0 980.1 NA 0.0000 9999 2130 3770 0 0
2019/07/21 21:06:00 BASE 1.57 59 2.57 64 -5.1 94 -6.0 0 0 980.1 NA 0.0000 9999 2200 3770 0 0
2019/07/21 21:07:00 BASE 1.15 57 2.57 64 -5.1 94 -5.9 0 0 980.1 NA 0.0000 9999 2170 3770 0 0
2019/07/21 21:08:01 BASE 0.42 50 2.57 64 -5.1 94 -5.9 0 0 980.1 NA 0.0000 9999 2170 3770 0 0
2019/07/21 21:09:01 BASE 0.09 44 2.37 60 -5.1 94 -5.9 0 0 980.1 NA 0.0000 9000 3770 0 0 0
2019/07/21 21:10:00 BASE 0.04 40 2.01 56 -5.1 94 -5.9 0 0 980.1 NA 0.0000 9999 3740 0 0 0
2019/07/21 21:11:00 BASE 0.00 38 1.95 63 -5.1 94 -5.9 0 0 980.1 NA 0.0000 9999 3770 0 0 0
2019/07/21 21:12:01 BASE 0.00 37 1.95 63 -5.1 94 -5.8 0 0 980.1 NA 0.0000 9999 3810 0 0 0
2019/07/21 21:13:00 BASE 0.00 40 1.95 63 -5.0 95 -5.8 0 0 980.1 NA 0.0000 9999 3840 0 0 0
2019/07/21 21:14:00 BASE 0.00 46 1.75 56 -5.0 95 -5.8 0 0 980.1 NA 0.0000 9999 3810 0 0 0
2019/07/21 21:15:00 BASE 0.00 45 1.70 60 -5.0 95 -5.7 0 0 980.1 NA 0.0000 9999 3810 0 0 0
2019/07/21 21:16:00 BASE 0.00 36 1.44 55 -5.0 94 -5.8 0 0 980.1 NA 0.0000 9999 1840 3770 0 0
2019/07/21 21:17:00 BASE 0.00 11 1.03 42 -5.0 94 -5.8 0 0 980.1 NA 0.0000 9999 1740 3740 0 0
2019/07/21 21:18:00 BASE 0.00 348 1.03 42 -5.0 94 -5.8 0 0 980.1 NA 0.0000 9999 3770 5680 0 0
2019/07/21 21:19:00 BASE 0.00 345 M M -5.0 94 -5.8 0 0 980.1 NA 0.0000 9999 2330 3810 0 0
2019/07/21 21:20:00 BASE 0.00 339 M M -5.0 94 -5.8 0 0 980.1 NA 0.0000 9999 2300 3840 0 0
2019/07/21 21:21:00 BASE 0.00 334 M M -4.9 94 -5.8 0 0 980.2 NA 0.0000 9999 2300 3810 0 0
2019/07/21 21:22:00 BASE 0.00 337 M M -4.9 94 -5.7 0 0 980.2 NA 0.0000 9999 3770 0 0 0
2019/07/21 21:23:00 BASE 0.00 338 M M -4.9 94 -5.7 0 0 980.2 NA 0.0000 9999 2430 3810 0 0
2019/07/21 21:24:00 BASE 0.00 348 M M -4.9 94 -5.7 0 0 980.2 NA 0.0000 9999 2430 3870 0 0
2019/07/21 21:25:00 BASE 0.00 360 M M -4.9 94 -5.7 0 0 980.2 NA 0.0000 9999 3870 0 0 0
2019/07/21 21:26:00 BASE 0.00 1 M M -4.9 94 -5.7 0 0 980.2 NA 0.0000 9999 2490 3870 0 0
2019/07/21 21:27:00 BASE 0.00 0 M M -4.9 94 -5.7 0 0 980.2 NA 0.0000 9999 2430 3840 0 0
2019/07/21 21:28:00 BASE 0.00 0 M M -4.9 94 -5.7 0 0 980.2 NA 0.0000 9999 2400 3840 0 0
2019/07/21 21:29:00 BASE 0.00 0 M M -4.9 94 -5.7 0 0 980.2 NA 0.0000 9999 2130 3840 0 0
2019/07/21 21:30:00 BASE 0.00 0 M M -4.9 94 -5.7 0 0 980.2 NA 0.0000 9999 2130 3810 0 0
2019/07/21 21:31:00 BASE 0.00 1 M M -4.9 94 -5.7 0 0 980.2 NA 0.0000 9999 3840 0 0 0
2019/07/21 21:32:00 BASE 0.00 3 M M -4.9 94 -5.7 0 0 980.2 NA 0.0000 9999 2170 3840 0 0
2019/07/21 21:33:00 BASE 0.00 13 M M -4.8 94 -5.7 0 0 980.2 NA 0.0000 9999 2170 3810 0 0
2019/07/21 21:34:00 BASE 0.00 19 M M -4.8 94 -5.6 0 0 980.2 NA 0.0000 9999 2170 3810 0 0
2019/07/21 21:35:00 BASE 0.00 1 M M -4.8 94 -5.6 0 0 980.2 NA 0.0000 9999 2230 3810 0 0
2019/07/21 21:36:00 BASE 0.18 350 1.18 342 -4.8 94 -5.6 0 0 980.1 NA 0.0000 9999 2200 3770 0 0
2019/07/21 21:37:00 BASE 0.63 354 1.65 346 -4.8 94 -5.6 0 0 980.1 NA 0.0000 9999 2230 3810 0 0
2019/07/21 21:38:00 BASE 0.45 1 1.65 346 -4.8 94 -5.6 0 0 980.1 NA 0.0000 9999 2260 3840 0 0
2019/07/21 21:39:00 BASE 0.21 2 1.65 346 -4.8 94 -5.6 0 0 980.1 NA 0.0000 9999 2230 3840 0 0
2019/07/21 21:40:01 BASE 0.21 15 1.65 346 -4.8 95 -5.6 0 0 980.1 NA 0.0000 9999 2260 3770 0 0
2019/07/21 21:41:00 BASE 0.00 47 1.65 346 -4.8 95 -5.5 0 0 980.1 NA 0.0000 9999 2330 3710 0 0
2019/07/21 21:42:00 BASE 0.00 53 1.65 346 -4.8 95 -5.5 0 0 980.1 NA 0.0000 9999 2330 3740 0 0
2019/07/21 21:43:00 BASE 0.00 51 1.65 346 -4.8 95 -5.5 0 0 980.1 NA 0.0000 9999 3810 6070 0 0
2019/07/21 21:44:00 BASE 0.36 55 1.65 346 -4.8 95 -5.5 0 0 980.0 NA 0.0000 9999 2360 3540 6170 0
2019/07/21 21:45:00 BASE 1.10 53 1.70 40 -4.8 95 -5.5 0 0 980.0 NA 0.0000 9999 2400 3510 0 0
2019/07/21 21:46:00 BASE 0.74 40 1.70 40 -4.8 95 -5.4 0 0 979.9 NA 0.0000 9999 2400 3540 0 0
2019/07/21 21:47:00 BASE 0.00 34 1.70 40 -4.8 95 -5.4 0 0 979.9 NA 0.0000 9999 2330 3580 0 0
2019/07/21 21:48:00 BASE 0.15 38 1.70 40 -4.8 95 -5.4 0 0 979.9 NA 0.0000 9999 2400 3540 0 0
2019/07/21 21:49:00 BASE 0.83 23 2.68 9 -4.7 95 -5.4 0 0 979.9 NA 0.0000 9999 3540 0 0 0
2019/07/21 21:50:00 BASE 2.10 358 3.34 347 -4.7 95 -5.4 0 0 979.9 NA 0.0000 9999 2460 3640 6140 0
2019/07/21 21:51:00 BASE 3.12 349 3.91 350 -4.7 96 -5.3 0 0 979.9 NA 0.0000 9999 3610 0 0 0
2019/07/21 21:52:00 BASE 3.68 349 5.56 354 -4.7 96 -5.3 0 0 979.9 NA 0.0000 9999 3640 6140 0 0
2019/07/21 21:53:00 BASE 4.67 355 5.66 2 -4.7 96 -5.2 0 0 979.9 NA 0.0000 9999 3640 5940 0 0
2019/07/21 21:54:01 BASE 5.14 2 5.66 2 -4.6 96 -5.2 0 0 979.9 NA 0.0000 9999 3540 0 0 0
2019/07/21 21:55:00 BASE 5.11 356 5.66 353 -4.6 96 -5.1 0 0 979.9 NA 0.0000 9999 2760 0 0 0
2019/07/21 21:56:00 BASE 4.92 346 5.66 353 -4.6 96 -5.1 0 0 979.9 NA 0.0000 9999 3580 5940 0 0
2019/07/21 21:57:00 BASE 4.60 350 5.66 353 -4.5 96 -5.0 0 0 979.9 NA 0.0000 9999 3540 0 0 0
2019/07/21 21:58:00 BASE 5.05 358 5.86 354 -4.5 97 -5.0 0 0 979.8 NA 0.0000 9999 3540 0 0 0
2019/07/21 21:59:00 BASE 5.59 359 6.02 242 -4.5 97 -4.9 0 0 979.8 NA 0.0000 9999 3480 0 0 0
2019/07/21 22:00:00 BASE 5.45 359 6.02 242 -4.5 97 -4.9 0 0 979.8 NA 0.0000 9999 3480 0 0 0
2019/07/21 22:01:00 BASE 4.67 357 6.02 242 -4.5 97 -4.9 0 0 979.8 NA 0.0000 9999 3480 0 0 0
2019/07/21 22:02:00 BASE 4.03 2 6.02 242 -4.5 97 -4.9 0 0 979.8 NA 0.0000 9999 3540 0 0 0
2019/07/21 22:03:00 BASE 4.34 10 6.02 242 -4.5 97 -4.9 0 0 979.8 NA 0.0000 9999 3580 0 0 0
2019/07/21 22:04:00 BASE 4.95 8 6.02 242 -4.5 97 -4.9 0 0 979.8 NA 0.0000 9999 3510 0 0 0
2019/07/21 22:05:00 BASE 4.95 9 6.02 242 -4.5 97 -4.9 0 0 979.8 NA 0.0000 9999 3450 0 0 0
2019/07/21 22:06:00 BASE 4.80 7 6.02 242 -4.5 97 -4.9 0 0 979.8 NA 0.0000 9999 3480 0 0 0
2019/07/21 22:07:00 BASE 5.31 3 6.17 1 -4.5 97 -4.9 0 0 979.8 NA 0.0000 9999 3480 5770 0 0
2019/07/21 22:08:00 BASE 5.88 2 6.33 4 -4.5 97 -4.8 0 0 979.8 NA 0.0000 9999 3510 0 0 0
2019/07/21 22:09:00 BASE 5.66 1 6.33 4 -4.5 97 -4.8 0 0 979.8 NA 0.0000 9999 3510 0 0 0
2019/07/21 22:10:00 BASE 5.42 353 6.33 4 -4.5 98 -4.8 0 0 979.8 NA 0.0000 9999 3580 0 0 0
2019/07/21 22:11:00 BASE 5.61 347 6.33 4 -4.5 98 -4.8 0 0 979.8 NA 0.0000 9999 3510 0 0 0
2019/07/21 22:12:00 BASE 5.25 349 6.33 4 -4.5 98 -4.7 0 0 979.8 NA 0.0000 9999 3510 0 0 0
2019/07/21 22:13:00 BASE 4.68 354 6.33 4 -4.5 98 -4.7 0 0 979.8 NA 0.0000 9999 3540 0 0 0
2019/07/21 22:14:00 BASE 4.64 357 6.33 4 -4.4 98 -4.7 0 0 979.8 NA 0.0000 9999 3510 0 0 0
2019/07/21 22:15:00 BASE 5.12 2 6.33 4 -4.4 98 -4.7 0 0 979.8 NA 0.0000 9999 1940 3480 0 0
2019/07/21 22:16:00 BASE 5.49 2 6.33 4 -4.4 98 -4.7 0 0 979.8 NA 0.0000 9999 1900 3510 0 0
2019/07/21 22:17:00 BASE 4.86 1 6.33 4 -4.4 98 -4.7 0 0 979.8 NA 0.0000 9999 1900 3510 0 0
2019/07/21 22:18:00 BASE 4.47 8 6.17 355 -4.4 98 -4.7 0 0 979.8 NA 0.0000 9999 1900 3540 0 0
2019/07/21 22:19:00 BASE 4.73 15 6.17 355 -4.4 98 -4.7 0 0 979.8 NA 0.0000 9999 2660 3480 0 0
2019/07/21 22:20:00 BASE 4.49 17 6.17 355 -4.4 98 -4.7 0 0 979.8 NA 0.0000 9999 2690 3410 0 0
2019/07/21 22:21:00 BASE 4.42 22 6.12 3 -4.4 98 -4.7 0 0 979.8 NA 0.0000 9999 2330 2760 3450 0
2019/07/21 22:22:00 BASE 4.76 28 6.12 3 -4.4 98 -4.7 0 0 979.8 NA 0.0000 9999 2330 2720 3450 0
2019/07/21 22:23:00 BASE 5.15 24 6.22 7 -4.5 99 -4.7 0 0 979.8 NA 0.0000 9999 2360 3480 0 0
2019/07/21 22:24:00 BASE 5.33 20 6.22 7 -4.5 99 -4.7 0 0 979.8 NA 0.0000 9999 2360 3450 0 0
2019/07/21 22:25:00 BASE 5.22 19 6.22 7 -4.5 99 -4.7 0 0 979.8 NA 0.0000 9999 2360 3450 0 0
2019/07/21 22:26:00 BASE 5.06 24 6.22 7 -4.5 99 -4.7 0 0 979.8 NA 0.0000 9999 2360 3310 0 0
2019/07/21 22:27:00 BASE 4.95 29 6.22 7 -4.5 99 -4.7 0 0 979.8 NA 0.0000 9999 2400 3310 0 0
2019/07/21 22:28:00 BASE 5.32 27 6.22 7 -4.5 99 -4.6 0 0 979.8 NA 0.0000 9999 2430 3350 0 0
2019/07/21 22:29:00 BASE 5.81 25 6.22 27 -4.5 99 -4.6 0 0 979.8 NA 0.0000 9999 2460 3280 0 0
2019/07/21 22:30:00 BASE 5.74 23 6.22 27 -4.5 100 -4.6 0 0 979.8 NA 0.0000 9999 2490 3410 0 0
2019/07/21 22:31:00 BASE 5.48 22 6.22 27 -4.5 100 -4.5 0 0 979.8 NA 0.0000 9999 2490 3080 0 0
2019/07/21 22:32:00 BASE 5.27 21 6.22 27 -4.5 100 -4.5 0 0 979.8 NA 0.0000 9999 2530 3180 0 0
2019/07/21 22:33:00 BASE 5.01 15 6.22 27 -4.5 100 -4.5 0 0 979.8 NA 0.0000 9999 2530 3380 0 0
2019/07/21 22:34:00 BASE 4.77 14 6.22 27 -4.5 100 -4.5 0 0 979.8 NA 0.0000 9999 2530 3120 0 0
2019/07/21 22:35:00 BASE 4.66 14 6.22 27 -4.5 100 -4.5 0 0 979.8 NA 0.0000 9999 1840 2490 3080 0
2019/07/21 22:36:00 BASE 4.43 15 6.22 27 -4.5 100 -4.5 0 0 979.8 NA 0.0000 9999 2490 3510 0 0
2019/07/21 22:37:00 BASE 4.71 13 6.22 27 -4.5 100 -4.5 0 0 979.8 NA 0.0000 9999 2490 3410 0 0
2019/07/21 22:38:00 BASE 5.18 10 6.22 27 -4.4 100 -4.4 0 0 979.8 NA 0.0000 9999 2490 0 0 0
2019/07/21 22:39:00 BASE 4.99 6 6.02 26 -4.4 100 -4.4 0 0 979.8 NA 0.0000 9999 2430 0 0 0
2019/07/21 22:40:00 BASE 4.81 4 5.92 21 -4.3 100 -4.3 0 0 979.8 NA 0.0000 9999 2400 2790 0 0
2019/07/21 22:41:00 BASE 4.90 6 5.81 5 -4.3 100 -4.3 0 0 979.8 NA 0.0000 9999 1770 2360 3120 0
2019/07/21 22:42:00 BASE 5.13 3 5.92 6 -4.2 100 -4.2 0 0 979.8 NA 0.0000 9999 1770 2400 0 0
2019/07/21 22:43:00 BASE 5.25 6 5.92 6 -4.2 100 -4.2 0 0 979.8 NA 0.0000 9999 2400 3120 0 0
2019/07/21 22:44:00 BASE 5.35 10 5.92 6 -4.2 100 -4.2 0 0 979.8 NA 0.0000 9999 1800 2330 3150 0
2019/07/21 22:45:00 BASE 5.24 13 5.92 6 -4.2 100 -4.2 0 0 979.8 NA 0.0000 9999 1840 2400 3180 0
2019/07/21 22:46:00 BASE 5.33 18 6.28 26 -4.2 100 -4.2 0 0 979.8 NA 0.0000 9999 1770 2360 3150 0
2019/07/21 22:47:00 BASE 6.00 18 6.89 11 -4.2 100 -4.2 0 0 979.8 NA 0.0000 9999 2300 3220 0 0
2019/07/21 22:48:00 BASE 6.13 18 6.89 11 -4.2 100 -4.2 0 0 979.8 NA 0.0000 9999 1740 2300 3220 0
2019/07/21 22:49:00 BASE 6.11 18 7.05 22 -4.2 100 -4.2 0 0 979.7 NA 0.0000 9999 1610 2330 3220 0
2019/07/21 22:50:00 BASE 6.48 16 7.05 1 -4.2 100 -4.2 0 0 979.7 NA 0.0000 9999 1610 2260 3080 0
2019/07/21 22:51:00 BASE 6.58 11 7.51 360 -4.2 100 -4.2 0 0 979.7 NA 0.0000 9999 1670 2230 3020 0
2019/07/21 22:52:00 BASE 6.42 5 7.51 360 -4.2 100 -4.2 0 0 979.7 NA 0.0000 9999 1670 2300 3080 0
2019/07/21 22:53:00 BASE 5.96 3 7.51 360 -4.2 100 -4.2 0 0 979.7 NA 0.0000 9999 1670 2330 3080 0
2019/07/21 22:54:00 BASE 5.58 7 7.51 360 -4.2 100 -4.2 0 0 979.7 NA 0.0000 9999 1740 2260 3050 0
2019/07/21 22:55:00 BASE 5.73 7 7.51 360 -4.2 100 -4.2 0 0 979.7 NA 0.0000 9999 2070 3120 0 0
2019/07/21 22:56:00 BASE 5.80 357 7.51 360 -4.2 100 -4.2 0 0 979.7 NA 0.0000 9999 1870 2330 3220 0
2019/07/21 22:57:00 BASE 5.50 357 7.51 360 -4.2 100 -4.2 0 0 979.7 NA 0.0000 9999 1800 2400 3280 0
2019/07/21 22:58:00 BASE 5.33 5 7.51 360 -4.2 100 -4.2 0 0 979.7 NA 0.0000 9999 1770 3150 0 0
2019/07/21 22:59:00 BASE 5.28 8 7.51 360 -4.1 100 -4.1 0 0 979.7 NA 0.0000 9999 1540 3410 0 0
2019/07/21 23:00:00 BASE 5.45 9 7.51 360 -4.1 100 -4.1 0 0 979.7 NA 0.0000 9999 1540 3250 0 0
2019/07/21 23:01:00 BASE 5.53 8 6.69 5 -4.1 100 -4.1 0 0 979.7 NA 0.0000 9999 1570 3280 0 0
2019/07/21 23:02:00 BASE 5.20 0 6.58 2 -4.1 100 -4.1 0 0 979.7 NA 0.0000 9999 1610 3280 0 0
2019/07/21 23:03:00 BASE 4.85 359 6.58 2 -4.1 100 -4.1 0 0 979.7 NA 0.0000 9999 1570 3380 0 0
2019/07/21 23:04:00 BASE 4.98 0 6.58 2 -4.1 100 -4.1 0 0 979.7 NA 0.0000 9999 1280 0 0 0
2019/07/21 23:05:00 BASE 5.28 356 6.17 9 -4.1 100 -4.1 0 0 979.7 NA 0.0000 9999 1210 0 0 0
2019/07/21 23:06:00 BASE 5.16 350 6.17 9 -4.2 100 -4.2 0 0 979.8 NA 0.0000 9999 1050 1800 0 0
2019/07/21 23:07:00 BASE 5.27 344 6.17 9 -4.2 100 -4.2 0 0 979.8 NA 0.0000 9999 1120 0 0 0
2019/07/21 23:08:00 BASE 5.71 346 6.58 3 -4.1 100 -4.1 0 0 979.8 NA 0.0000 9999 1250 0 0 0
2019/07/21 23:09:00 BASE 5.66 348 6.58 3 -4.2 100 -4.2 0 0 979.8 NA 0.0000 9999 820 0 0 0
2019/07/21 23:10:00 BASE 5.56 347 6.58 3 -4.2 100 -4.2 0 0 979.8 NA 0.0000 9999 1080 3350 0 0
2019/07/21 23:11:00 BASE 5.47 350 6.58 3 -4.2 99 -4.2 0 0 979.8 NA 0.0000 9999 1050 0 0 0
2019/07/21 23:12:00 BASE 4.91 354 6.58 3 -4.2 99 -4.3 0 0 979.8 NA 0.0000 9999 950 0 0 0
2019/07/21 23:13:00 BASE 4.75 0 6.58 3 -4.2 99 -4.3 0 0 979.8 NA 0.0000 9999 980 0 0 0
2019/07/21 23:14:00 BASE 5.03 5 6.58 3 -4.2 99 -4.3 0 0 979.8 NA 0.0000 9999 820 2360 0 0
2019/07/21 23:15:00 BASE 5.25 6 6.58 3 -4.2 99 -4.3 0 0 979.8 NA 0.0000 9999 850 2360 0 0
2019/07/21 23:16:00 BASE 5.53 2 6.58 3 -4.2 99 -4.3 0 0 979.8 NA 0.0000 9999 820 3020 0 0
2019/07/21 23:17:00 BASE 5.26 357 6.58 3 -4.2 99 -4.3 0 0 979.8 NA 0.0000 9999 750 3020 0 0
2019/07/21 23:18:00 BASE 4.56 359 6.28 355 -4.2 99 -4.3 0 0 979.8 NA 0.0000 9999 750 3080 0 0
2019/07/21 23:19:00 BASE 4.67 1 6.28 355 -4.2 99 -4.3 0 0 979.8 NA 0.0000 9999 750 3050 0 0
2019/07/21 23:20:00 BASE 5.07 2 5.97 2 -4.2 99 -4.3 0 0 979.8 NA 0.0000 9999 790 0 0 0
2019/07/21 23:21:00 BASE 4.90 3 5.97 2 -4.2 99 -4.3 0 0 979.8 NA 0.0000 9999 720 0 0 0
2019/07/21 23:22:00 BASE 5.08 6 6.17 10 -4.2 100 -4.2 0 0 979.8 NA 0.0000 9999 1480 2430 0 0
2019/07/21 23:23:00 BASE 5.79 12 6.94 10 -4.2 100 -4.2 0 0 979.8 NA 0.0000 9999 1510 3080 0 0
2019/07/21 23:24:00 BASE 6.31 15 7.15 8 -4.2 100 -4.2 0 0 979.8 NA 0.0000 9999 1610 3080 0 0
2019/07/21 23:25:00 BASE 6.40 13 7.15 8 -4.2 100 -4.2 0 0 979.8 NA 0.0000 9999 1670 0 0 0
2019/07/21 23:26:00 BASE 6.45 10 7.15 8 -4.2 100 -4.2 0 0 979.8 NA 0.0000 9999 1870 3080 0 0
2019/07/21 23:27:00 BASE 6.80 11 7.51 14 -4.2 100 -4.2 0 0 979.7 NA 0.0000 9999 2000 2950 0 0
2019/07/21 23:28:00 BASE 6.89 13 7.51 14 -4.1 100 -4.1 0 0 979.7 NA 0.0000 9999 2170 2890 0 0
2019/07/21 23:29:00 BASE 6.64 12 7.51 14 -4.2 100 -4.2 0 0 979.7 NA 0.0000 9999 2300 0 0 0
2019/07/21 23:30:00 BASE 6.25 11 7.51 14 -4.2 100 -4.2 0 0 979.7 NA 0.0000 9999 2990 0 0 0
2019/07/21 23:31:00 BASE 6.01 10 7.51 14 -4.2 100 -4.2 0 0 979.7 NA 0.0000 9999 2990 0 0 0
2019/07/21 23:32:01 BASE 5.99 8 7.51 14 -4.2 100 -4.2 0 0 979.7 NA 0.0000 9999 1350 3080 0 0
2019/07/21 23:33:00 BASE 5.71 7 7.51 14 -4.2 100 -4.2 0 0 979.7 NA 0.0000 9999 1280 2030 0 0
2019/07/21 23:34:00 BASE 5.50 8 7.51 14 -4.2 100 -4.2 0 0 979.7 NA 0.0000 9999 1210 2070 0 0
2019/07/21 23:35:00 BASE 5.55 7 7.51 14 -4.2 100 -4.2 0 0 979.7 NA 0.0000 9999 1150 2100 0 0
2019/07/21 23:36:00 BASE 5.89 5 7.51 14 -4.2 100 -4.2 0 0 979.7 NA 0.0000 9999 1120 2170 0 0
2019/07/21 23:37:00 BASE 6.12 4 7.05 14 -4.2 100 -4.2 0 0 979.7 NA 0.0000 9999 1180 0 0 0
2019/07/21 23:38:00 BASE 5.75 3 7.00 11 -4.2 100 -4.2 0 0 979.7 NA 0.0000 9999 1120 0 0 0
2019/07/21 23:39:00 BASE 5.40 0 6.64 11 -4.2 100 -4.2 0 0 979.7 NA 0.0000 9999 1120 0 0 0
2019/07/21 23:40:00 BASE 5.08 357 6.64 11 -4.3 100 -4.3 0 0 979.7 NA 0.0000 9999 1080 0 0 0
2019/07/21 23:41:00 BASE 4.63 360 6.48 6 -4.3 100 -4.3 0 0 979.7 NA 0.0000 9999 1050 0 0 0
2019/07/21 23:42:00 BASE 4.81 4 6.43 3 -4.3 100 -4.3 0 0 979.7 NA 0.0000 9999 1080 0 0 0
2019/07/21 23:43:00 BASE 5.53 5 6.43 3 -4.3 100 -4.3 0 0 979.7 NA 0.0000 9999 1080 0 0 0
2019/07/21 23:44:00 BASE 5.60 7 6.43 3 -4.3 100 -4.3 0 0 979.7 NA 0.0000 9999 950 0 0 0
2019/07/21 23:45:00 BASE 5.02 11 6.43 3 -4.3 100 -4.3 0 0 979.7 NA 0.0000 9999 1020 0 0 0
2019/07/21 23:46:00 BASE 4.69 17 6.38 5 -4.3 100 -4.3 0 0 979.7 NA 0.0000 9999 890 0 0 0
2019/07/21 23:47:00 BASE 4.41 20 6.38 5 -4.3 100 -4.3 0 0 979.7 NA 0.0000 9999 850 0 0 0
2019/07/21 23:48:00 BASE 4.37 17 6.38 5 -4.3 100 -4.3 0 0 979.7 NA 0.0000 9999 820 2070 0 0
2019/07/21 23:49:00 BASE 4.97 17 6.38 5 -4.3 100 -4.3 0 0 979.7 NA 0.0000 9999 720 1540 0 0
2019/07/21 23:50:00 BASE 5.17 22 6.38 5 -4.3 100 -4.3 0 0 979.8 NA 0.0000 9999 720 0 0 0
2019/07/21 23:51:00 BASE 5.23 22 6.38 5 -4.3 100 -4.3 0 0 979.7 NA 0.0000 9999 890 0 0 0
2019/07/21 23:52:00 BASE 5.26 23 6.38 5 -4.3 100 -4.3 0 0 979.7 NA 0.0000 9999 950 0 0 0
2019/07/21 23:53:00 BASE 5.12 25 6.07 18 -4.3 100 -4.3 0 0 979.7 NA 0.0000 9999 980 0 0 0
2019/07/21 23:54:00 BASE 5.00 22 6.07 18 -4.3 100 -4.3 0 0 979.7 NA 0.0000 9999 850 0 0 0
2019/07/21 23:55:00 BASE 5.18 19 6.43 17 -4.4 100 -4.4 0 0 979.7 NA 0.0000 9999 790 0 0 0
2019/07/21 23:56:00 BASE 5.14 16 6.43 17 -4.4 100 -4.4 0 0 979.7 NA 0.0000 9999 750 0 0 0
2019/07/21 23:57:00 BASE 4.59 12 6.43 17 -4.3 100 -4.3 0 0 979.7 NA 0.0000 9999 620 0 0 0
2019/07/21 23:58:00 BASE 4.62 8 6.43 17 -4.3 100 -4.3 0 0 979.7 NA 0.0000 9999 660 0 0 0
2019/07/21 23:59:00 BASE 4.67 8 6.43 17 -4.3 100 -4.3 0 0 979.7 NA 0.0000 9999 690 0 0 0